[[{"header":{"parameterUnit":"m.s-1","parameterCategory":1,"la1":31.0,"la2":29.5877,"lo1":-88.7671,"lo2":-86.6584,"dy":0.0162,"dx":0.0185,"nx":115,"ny":88,"refTime":"2026-05-08T12:00:00:Z","depth":0,"parameterNumber":2,"parameterNumberName":"U-component_of_WINDS"},"data":[0.0,0.0,0.0,0.0,0.0,0.0,0.0,0.0,0.0,0.0,0.0,0.0,0.0,0.0,0.0,0.0,0.0,0.0,0.0,0.0,0.0,0.0,0.0,0.0,0.0,0.0,0.0,0.0,0.0,0.0,0.0,0.0,0.0,0.0,0.0,0.0,0.0,0.0,0.0,0.0,0.0,0.0,0.0,0.0,0.0,0.0,0.0,0.0,0.0,0.0,0.0,0.0,0.0,0.0,0.0,0.0,0.0,0.0,0.0,0.0,0.0,0.0,0.0,0.0,0.0,0.0,0.0,0.0,0.0,0.0,0.0,0.0,0.0,0.0,0.0,0.0,0.0,0.0,0.0,0.0,0.0,0.0,0.0,0.0,0.0,0.0,0.0,0.0,0.0,0.0,0.0,0.0,0.0,0.0,0.0,0.0,0.0,0.0,0.0,0.0,0.0,0.0,0.0,0.0,0.0,0.0,0.0,0.0,0.0,0.0,0.0,0.0,0.0,0.0,0.0,0.0,0.0,0.0,0.0,0.0,0.0,0.0,0.0,0.0,0.0,0.0,0.0,0.0,0.0,0.0,0.0,0.0,0.0,0.0,0.0,0.0,0.0,0.0,0.0,0.0,0.0,0.0,0.0,0.0,0.0,0.0,0.0,0.0,0.0,0.0,0.0,0.0,0.0,0.0,0.0,0.0,0.0,0.0,0.0,0.0,0.0,0.0,0.0,0.0,0.0,0.0,0.0,0.0,0.0,0.0,0.0,0.0,0.0,0.0,0.0,0.0,0.0,0.0,0.0,0.0,0.0,0.0,0.0,0.0,0.0,0.0,0.0,0.0,0.0,0.0,0.0,0.0,0.0,0.0,0.0,0.0,0.0,0.0,0.0,0.0,0.0,0.0,0.0,0.0,0.0,0.0,0.0,0.0,0.0,0.0,0.0,0.0,0.0,0.0,0.0,0.0,0.0,0.0,0.0,0.0,0.0,0.0,0.0,0.0,0.0,0.0,0.0,0.0,0.0,0.0,0.0,0.0,0.0,0.0,0.0,0.0,0.0,0.0,0.0,0.0,0.0,0.0,0.0,0.0,0.0,0.0,0.0,0.0,0.0,0.0,0.0,0.0,0.0,0.0,0.0,0.0,0.0,0.0,0.0,0.0,0.0,0.0,0.0,0.0,0.0,0.0,0.0,0.0,0.0,0.0,0.0,0.0,0.0,0.0,0.0,0.0,0.0,0.0,0.0,0.0,0.0,0.0,0.0,0.0,0.0,0.0,0.0,0.0,0.0,0.0,0.0,0.0,0.0,0.0,0.0,0.0,0.0,0.0,0.0,0.0,0.0,0.0,0.0,0.0,0.0,0.0,0.0,0.0,0.0,0.0,0.0,0.0,0.0,0.0,0.0,0.0,0.0,0.0,0.0,0.0,0.0,0.0,0.0,0.0,0.0,0.0,0.0,0.0,0.0,0.0,0.0,0.0,0.0,0.0,0.0,0.0,0.0,0.0,0.0,0.0,0.0,0.0,0.0,0.0,0.0,0.0,0.0,0.0,0.0,0.0,0.0,0.0,0.0,0.0,0.0,0.0,0.0,0.0,0.0,0.0,0.0,0.0,0.0,0.0,0.0,0.0,0.0,0.0,0.0,0.0,0.0,0.0,0.0,0.0,0.0,0.0,0.0,0.0,0.0,0.0,0.0,0.0,0.0,0.0,0.0,0.0,0.0,0.0,0.0,0.0,0.0,0.0,0.0,0.0,0.0,0.0,0.0,0.0,0.0,0.0,0.0,0.0,0.0,0.0,0.0,0.0,0.0,0.0,0.0,0.0,0.0,0.0,0.0,0.0,0.0,0.0,0.0,0.0,0.0,0.0,0.0,0.0,0.0,0.0,0.0,0.0,0.0,0.0,0.0,0.0,0.0,0.0,0.0,0.0,0.0,0.0,0.0,0.0,0.0,0.0,0.0,0.0,0.0,0.0,0.0,0.0,0.0,0.0,0.0,0.0,0.0,0.0,0.0,0.0,0.0,0.0,0.0,0.0,0.0,0.0,0.0,0.0,0.0,0.0,0.0,0.0,0.0,0.0,0.0,0.0,0.0,0.0,0.0,0.0,0.0,0.0,0.0,0.0,0.0,0.0,0.0,0.0,0.0,0.0,0.0,0.0,0.0,0.0,0.0,0.0,0.0,0.0,0.0,0.0,0.0,0.0,0.0,0.0,0.0,0.0,0.0,0.0,0.0,0.0,0.0,0.0,0.0,0.0,0.0,0.0,0.0,0.0,0.0,0.0,0.0,0.0,0.0,0.0,0.0,0.0,0.0,0.0,0.0,0.0,0.0,0.0,0.0,0.0,0.0,0.0,0.0,0.0,0.0,0.0,0.0,0.0,0.0,0.0,0.0,0.0,0.0,0.0,0.0,0.0,0.0,0.0,0.0,0.0,0.0,0.0,0.0,0.0,0.0,0.0,0.0,0.0,0.0,0.0,0.0,0.0,0.0,0.0,0.0,0.0,0.0,0.0,0.0,0.0,0.0,0.0,0.0,0.0,0.0,0.0,0.0,0.0,0.0,0.0,0.0,0.0,0.0,0.0,0.0,0.0,0.0,0.0,0.0,0.0,0.0,0.0,0.0,0.0,0.0,0.0,0.0,0.0,0.0,0.0,0.0,0.0,0.0,0.0,0.0,0.0,0.0,0.0,0.0,0.0,0.0,0.0,0.0,0.0,0.0,0.0,0.0,0.0,0.0,0.0,0.0,0.0,0.0,0.0,0.0,0.0,0.0,0.0,0.0,0.0,0.0,0.0,0.0,0.0,0.0,0.0,0.0,0.0,0.0,0.0,0.0,0.0,0.0,0.0,0.0,0.0,0.0,0.0,0.0,0.0,0.0,0.0,0.0,0.0,0.0,0.0,0.0,0.0,0.0,0.0,0.0,0.0,0.0,0.0,0.0,0.0,0.0,0.0,0.0,0.0,0.0,0.0,0.0,0.0,0.0,0.0,0.0,0.0,0.0,0.0,0.0,0.0,0.0,0.0,0.0,0.0,0.0,0.0,0.0,0.0,0.0,0.0,0.0,0.0,0.0,0.0,0.0,0.0,0.0,0.0,0.0,0.0,0.0,0.0,0.0,0.0,0.0,0.0,0.0,0.0,0.0,0.0,0.0,0.0,0.0,0.0,0.0,0.0,0.0,0.0,0.0,0.0,0.0,0.0,0.0,0.0,0.0,0.0,0.0,0.0,0.0,0.0,0.0,0.0,0.0,0.0,0.0,0.0,0.0,0.0,0.0,0.0,0.0,0.0,0.0,0.0,0.0,0.0,0.0,0.0,0.0,0.0,0.0,0.0,0.0,0.0,0.0,0.0,0.0,0.0,0.0,0.0,0.0,0.0,0.0,0.0,0.0,0.0,0.0,0.0,0.0,0.0,0.0,0.0,0.0,0.0,0.0,0.0,0.0,0.0,0.0,0.0,0.0,0.0,0.0,0.0,0.0,0.0,0.0,0.0,0.0,0.0,0.0,0.0,0.0,0.0,0.0,0.0,0.0,0.0,0.0,0.0,0.0,0.0,0.0,0.0,0.0,0.0,0.0,0.0,0.0,0.0,0.0,0.0,0.0,0.0,0.0,0.0,0.0,0.0,0.0,0.0,0.0,0.0,0.0,0.0,0.0,0.0,0.0,0.0,0.0,0.0,0.0,0.0,0.0,0.0,0.0,0.0,0.0,0.0,0.0,0.0,0.0,0.0,0.0,0.0,0.0,0.0,0.0,0.0,0.0,0.0,0.0,0.0,0.0,0.0,0.0,0.0,0.0,0.0,0.0,0.0,0.0,0.0,0.0,0.0,0.0,0.0,0.0,0.0,0.0,0.0,0.0,0.0,0.0,0.0,0.0,0.0,0.0,0.0,0.0,0.0,0.0,0.0,0.0,0.0,0.0,0.0,0.0,0.0,0.0,0.0,0.0,0.0,0.0,0.0,0.0,0.0,0.0,0.0,0.0,0.0,0.0,0.0,0.0,0.0,0.0,0.0,0.0,0.0,0.0,0.0,0.0,0.0,0.0,0.0,0.0,0.0,0.0,0.0,0.0,0.0,0.0,0.0,0.0,0.0,0.0,0.0,0.0,0.0,0.0,0.0,0.0,0.0,0.0,0.0,0.0,0.0,0.0,0.0,0.0,0.0,0.0,0.0,0.0,0.0,0.0,0.0,0.0,0.0,0.0,0.0,0.0,0.0,0.0,0.0,0.0,0.0,0.0,0.0,0.0,0.0,0.0,0.0,0.0,0.0,0.0,0.0,-0.2001,0.0,0.0,0.0,0.0,0.0,0.0,0.0,0.0,0.0,0.0,0.0,0.0,0.0,0.0,0.0,0.0,0.0,0.0,0.0,0.0,0.0,0.0,0.0,0.0,0.0,0.0,0.0,0.0,0.0,0.0,0.0,0.0,0.0,0.0,0.0,0.0,0.0,0.0,0.0,0.0,0.0,0.0,0.0,0.0,0.0,0.0,0.0,0.0,0.0,0.0,0.0,0.0,0.0,0.0,0.0,0.0,0.0,0.0,0.0,0.0,0.0,0.0,0.0,0.0,0.0,0.0,0.0,0.0,0.0,0.0,0.0,0.0,0.0,0.0,0.0,0.0,0.0,0.0,0.0,0.0,0.0,0.0,0.0,0.0,0.0,0.0,0.0,0.0,0.0,0.0,0.0,0.0,0.0,0.0,0.0,0.0,0.0,0.0,0.0,0.0,0.0,0.0,0.0,0.0,0.0,0.0,0.0,0.0,0.0,0.0,-0.1394,-0.1584,-0.154,-0.1691,-0.2102,0.0,0.0,0.0,0.0,0.0,0.0,0.0,0.0,0.0,0.0,0.0,0.0,0.0,0.0,0.0,0.0,0.0,0.0,0.0,0.0,0.0,0.0,0.0,0.0,0.0,0.0,0.0,0.0,0.0,0.0,0.0,0.0,0.0,0.0,0.0,0.0,0.0,0.0,0.0,0.0,0.0,0.0,0.0,0.0,0.0,0.0,0.0,0.0,0.0,0.0,0.0,0.0,0.0,0.0,0.0,0.0,0.0,0.0,0.0,0.0,0.0,0.0,0.0,0.0,0.0,0.0,0.0,0.0,0.0,0.0,0.0,0.0,0.0,0.0,0.0,0.0,0.0,0.0,0.0,0.0,0.0,0.0,0.0,0.0,0.0,0.0,0.0,0.0,0.0,0.0,0.0,0.0,0.0,0.0,0.0,0.0,0.0,0.0,0.0,0.0,0.0,0.0,0.0,0.0,0.0,0.0,0.0,0.0,0.0,0.0,0.0,0.0,-0.1841,-0.1995,-0.245,0.0,0.0,0.0,0.0,0.0,0.0,0.0,0.0,0.0,0.0,0.0,0.0,0.0,0.0,0.0,0.0,0.0,0.0,0.0,0.0,0.0,0.0,0.0,0.0,0.0,0.0,0.0,0.0,0.0,0.0,0.0,0.0,0.0,0.0,0.0,0.0,0.0,0.0,0.0,0.0,0.0,0.0,0.0,0.0,0.0,0.0,0.0,0.0,0.0,0.0,0.0,0.0,0.0,0.0,0.0,0.0,0.0,0.0,0.0,0.0,0.0,0.0,0.0,0.0,0.0,0.0,0.0,0.0,0.0,0.0,0.0,0.0,0.0,0.0,0.0,0.0,0.0,0.0,0.0,0.0,0.0,0.0,0.0,0.0,0.0,0.0,0.0,0.0,0.0,0.0,0.0,0.0,0.0,0.0,0.0,0.0,0.0,0.0,0.0,0.0,0.0,0.0,0.0,0.0,0.0,0.0,0.0,0.0,0.0,0.0,-0.1924,-0.3022,-0.2582,0.0,-0.3173,0.0,0.0,0.0,0.0,0.0,0.0,0.0,0.0,0.0,0.0,0.0,0.0,0.0,0.0,0.0,0.0,0.0,0.0,0.0,0.0,0.0,0.0,0.0,0.0,0.0,0.0,0.0,0.0,0.0,0.0,0.0,0.0,0.0,0.0,0.0,0.0,0.0,0.0,0.0,0.0,0.0,0.0,0.0,0.0,0.0,0.0,0.0,0.0,0.0,0.0,0.0,0.0,0.0,0.0,0.0,0.0,0.0,0.0,0.0,0.0,0.0,0.0,0.0,0.0,0.0,0.0,0.0,0.0,0.0,0.0,0.0,0.0,0.0,0.0,0.0,0.0,0.0,0.0,0.0,0.0,0.0,0.0,0.0,0.0,0.0,0.0,0.0,0.0,0.0,0.0,0.0,0.0,0.0,0.0,0.0,0.0,0.0,0.0,0.0,0.0,0.0,0.0,0.0,0.0,0.0,0.0,0.0,0.0,0.0,0.0,0.0,-0.2822,-0.2906,-0.3043,0.0,0.0,0.0,0.0,0.0,0.0,0.0,0.0,0.0,0.0,0.0,0.0,0.0,0.0,0.0,0.0,0.0,0.0,0.0,0.0,0.0,0.0,0.0,0.0,0.0,0.0,0.0,0.0,0.0,0.0,0.0,0.0,0.0,0.0,0.0,0.0,0.0,0.0,0.0,0.0,0.0,0.0,0.0,0.0,0.0,0.0,0.0,0.0,0.0,0.0,0.0,0.0,0.0,0.0,0.0,0.0,0.0,0.0,0.0,0.0,0.0,0.0,0.0,0.0,0.0,0.0,0.0,0.0,0.0,0.0,0.0,0.0,0.0,0.0,0.0,0.0,0.0,0.0,0.0,0.0,0.0,0.0,0.0,0.0,0.0,0.0,0.0,0.0,0.0,0.0,0.0,0.0,0.0,0.0,0.0,0.0,0.0,0.0,0.0,0.0,0.0,0.0,0.0,0.0,0.0,0.0,0.0,0.0,0.0,0.0,-0.221,0.0,-0.2753,-0.3121,-0.3294,-0.3315,0.0,0.0,0.0,0.0,0.0,0.0,0.0,0.0,0.0,0.0,0.0,0.0,0.0,0.0,0.0,0.0,0.0,0.0,0.0,0.0,0.0,0.0,0.0,0.0,0.0,0.0,0.0,0.0,0.0,0.0,0.0,0.0,0.0,0.0,0.0,0.0,0.0,0.0,0.0,0.0,0.0,0.0,0.0,0.0,0.0,0.0,0.0,0.0,0.0,0.0,0.0,0.0,0.0,0.0,0.0,0.0,0.0,0.0,0.0,0.0,0.0,0.0,0.0,0.0,0.0,0.0,0.0,0.0,0.0,0.0,0.0,0.0,0.0,0.0,0.0,0.0,0.0,0.0,0.0,0.0,0.0,0.0,0.0,0.0,0.0,0.0,0.0,0.0,0.0,0.0,0.0,0.0,0.0,0.0,0.0,0.0,0.0,0.0,0.0,0.0,0.0,0.0,0.0,0.0,0.0,0.0,0.0,0.0,0.0,-0.2892,-0.2643,-0.3141,-0.3275,-0.3317,0.0,0.0,0.0,0.0,0.0,0.0,0.0,0.0,0.0,0.0,0.0,0.0,0.0,0.0,0.0,0.0,0.0,0.0,0.0,0.0,0.0,0.0,0.0,0.0,0.0,0.0,0.0,0.0,0.0,0.0,0.0,0.0,0.0,0.0,0.0,0.0,0.0,0.0,0.0,0.0,0.0,0.0,0.0,0.0,0.0,0.0,0.0,0.0,0.0,0.0,0.0,0.0,0.0,0.0,0.0,0.0,0.0,0.0,0.0,0.0,0.0,0.0,0.0,0.0,0.0,0.0,0.0,0.0,0.0,0.0,0.0,0.0,0.0,0.0,0.0,0.0,0.0,0.0,0.0,0.0,0.0,0.0,0.0,0.0,0.0,0.0,0.0,0.0,0.0,0.0,0.0,0.0,0.0,0.0,0.0,0.0,0.0,0.0,0.0,0.0,0.0,0.0,0.0,0.0,0.0,0.0,0.0,0.0,0.0,-0.2662,-0.2497,-0.2752,-0.3415,-0.3347,-0.3317,0.0,0.0,0.0,0.0,0.0,0.0,0.0,0.0,0.0,0.0,0.0,0.0,0.0,0.0,0.0,0.0,0.0,0.0,0.0,0.0,0.0,0.0,0.0,0.0,0.0,0.0,0.0,0.0,0.0,0.0,0.0,0.0,0.0,0.0,0.0,0.0,0.0,0.0,0.0,0.0,0.0,0.0,0.0,0.0,0.0,0.0,0.0,0.0,0.0,0.0,0.0,0.0,0.0,0.0,0.0,0.0,0.0,0.0,0.0,0.0,0.0,0.0,0.0,0.0,0.0,0.0,0.0,0.0,0.0,0.0,0.0,0.0,0.0,0.0,0.0,0.0,0.0,0.0,0.0,0.0,0.0,0.0,0.0,0.0,0.0,0.0,0.0,0.0,0.0,0.0,0.0,0.0,0.0,0.0,0.0,0.0,0.0,0.0,0.0,0.0,0.0,0.0,0.0,0.0,0.0,0.0,0.0,0.0,0.0,-0.2549,0.0,-0.3105,0.0,-0.3475,-0.3321,0.0,0.0,0.0,0.0,0.0,0.0,0.0,0.0,0.0,0.0,0.0,0.0,0.0,0.0,0.0,0.0,0.0,0.0,0.0,0.0,0.0,0.0,0.0,0.0,0.0,0.0,0.0,0.0,0.0,0.0,0.0,0.0,0.0,0.0,0.0,0.0,0.0,0.0,0.0,0.0,0.0,0.0,0.0,0.0,0.0,0.0,0.0,0.0,0.0,0.0,0.0,0.0,0.0,0.0,0.0,0.0,0.0,0.0,0.0,0.0,0.0,0.0,0.0,0.0,0.0,0.0,0.0,0.0,0.0,0.0,0.0,0.0,0.0,0.0,0.0,0.0,0.0,0.0,0.0,0.0,0.0,0.0,0.0,0.0,0.0,0.0,0.0,0.0,0.0,0.0,0.0,0.0,0.0,0.0,0.0,0.0,0.0,0.0,0.0,0.0,0.0,0.0,0.0,0.0,0.0,0.0,0.0,0.0,-0.2567,-0.3612,-0.372,-0.3731,-0.3793,-0.3601,-0.3373,0.0,0.0,0.0,0.0,0.0,0.0,0.0,0.0,0.0,0.0,0.0,0.0,0.0,0.0,0.0,0.0,0.0,0.0,0.0,0.0,0.0,0.0,0.0,0.0,0.0,0.0,0.0,0.0,0.0,0.0,0.0,0.0,0.0,0.0,0.0,0.0,0.0,0.0,0.0,0.0,0.0,0.0,0.0,0.0,0.0,0.0,0.0,0.0,0.0,0.0,0.0,0.0,0.0,0.0,0.0,0.0,0.0,0.0,0.0,0.0,0.0,0.0,0.0,0.0,0.0,0.0,0.0,0.0,0.0,0.0,0.0,0.0,0.0,0.0,0.0,0.0,0.0,0.0,0.0,0.0,0.0,0.0,0.0,0.0,0.0,0.0,0.0,0.0,0.0,0.0,0.0,0.0,0.0,0.0,0.0,0.0,0.0,0.0,0.0,0.0,0.0,0.0,0.0,0.0,0.0,0.0,0.0,0.0,0.0,-0.2906,-0.3316,-0.3612,-0.378,-0.3369,-0.3306,0.0,0.0,0.0,0.0,0.0,0.0,0.0,0.0,0.0,0.0,0.0,0.0,0.0,0.0,0.0,0.0,0.0,0.0,0.0,0.0,0.0,0.0,0.0,0.0,0.0,0.0,0.0,0.0,0.0,0.0,0.0,0.0,0.0,0.0,0.0,0.0,0.0,0.0,0.0,0.0,0.0,0.0,0.0,0.0,0.0,0.0,0.0,0.0,0.0,0.0,0.0,0.0,0.0,0.0,0.0,0.0,0.0,0.0,0.0,0.0,0.0,0.0,0.0,0.0,0.0,0.0,0.0,0.0,0.0,0.0,0.0,0.0,0.0,0.0,0.0,0.0,0.0,0.0,0.0,0.0,0.0,0.0,0.0,0.0,0.0,0.0,0.0,0.0,0.0,0.0,0.0,0.0,0.0,0.0,0.0,0.0,0.0,0.0,0.0,0.0,0.0,0.0,0.0,0.0,0.0,0.0,0.0,0.0,0.0,-0.3129,-0.3827,-0.429,-0.4356,-0.3811,-0.3575,-0.3742,0.0,0.0,0.0,0.0,0.0,0.0,0.0,0.0,0.0,0.0,0.0,0.0,0.0,0.0,0.0,0.0,0.0,0.0,0.0,0.0,0.0,0.0,0.0,0.0,0.0,0.0,0.0,0.0,0.0,0.0,0.0,0.0,0.0,0.0,0.0,0.0,0.0,0.0,0.0,0.0,0.0,0.0,0.0,0.0,0.0,0.0,0.0,0.0,0.0,0.0,0.0,0.0,0.0,0.0,0.0,0.0,0.0,0.0,0.0,0.0,0.0,0.0,0.0,0.0,0.0,0.0,0.0,0.0,0.0,0.0,0.0,0.0,0.0,0.0,0.0,0.0,0.0,0.0,0.0,0.0,0.0,0.0,0.0,0.0,0.0,0.0,0.0,0.0,0.0,0.0,0.0,0.0,0.0,0.0,0.0,0.0,0.0,0.0,0.0,0.0,0.0,0.0,0.0,0.0,0.0,0.0,0.0,0.0,-0.4072,-0.5184,-0.5631,-0.5356,-0.4736,-0.4175,0.0,0.0,0.0,0.0,0.0,0.0,0.0,0.0,0.0,0.0,0.0,0.0,0.0,0.0,0.0,0.0,0.0,0.0,0.0,0.0,0.0,0.0,0.0,0.0,0.0,0.0,0.0,0.0,0.0,0.0,0.0,0.0,0.0,0.0,0.0,0.0,0.0,0.0,0.0,0.0,0.0,0.0,0.0,0.0,0.0,0.0,0.0,0.0,0.0,0.0,0.0,0.0,0.0,0.0,0.0,0.0,0.0,0.0,0.0,0.0,0.0,0.0,0.0,0.0,0.0,0.0,0.0,0.0,0.0,0.0,0.0,0.0,0.0,0.0,0.0,0.0,0.0,0.0,0.0,0.0,0.0,0.0,0.0,0.0,0.0,0.0,0.0,0.0,0.0,0.0,0.0,0.0,0.0,0.0,0.0,0.0,0.0,0.0,0.0,0.0,0.0,0.0,0.0,0.0,0.0,0.0,0.0,0.0,0.0,-0.4993,-0.6079,-0.6433,-0.5967,-0.515,-0.4756,0.0,0.0,0.0,0.0,0.0,0.0,0.0,0.0,0.0,0.0,0.0,0.0,0.0,0.0,0.0,0.0,0.0,0.0,0.0,0.0,0.0,0.0,0.0,0.0,0.0,0.0,0.0,0.0,0.0,0.0,0.0,0.0,0.0,0.0,0.0,0.0,0.0,0.0,0.0,0.0,0.0,0.0,0.0,0.0,0.0,0.0,0.0,0.0,0.0,0.0,0.0,0.0,0.0,0.0,0.0,0.0,0.0,0.0,0.0,0.0,0.0,0.0,0.0,0.0,0.0,0.0,0.0,0.0,0.0,0.0,0.0,0.0,0.0,0.0,0.0,0.0,0.0,0.0,0.0,0.0,0.0,0.0,0.0,0.0,0.0,0.0,0.0,0.0,0.0,0.0,0.0,0.0,0.0,0.0,0.0,0.0,0.0,0.0,0.0,0.0,0.0,0.0,0.0,0.0,0.0,0.0,0.0,0.0,-0.505,-0.5936,-0.6699,-0.6969,-0.6747,-0.5894,-0.5354,0.0,0.0,0.0,0.0,0.0,0.0,0.0,0.0,0.0,0.0,0.0,0.0,0.0,0.0,0.0,0.0,0.0,0.0,0.0,0.0,0.0,0.0,0.0,0.0,0.0,0.0,0.0,0.0,0.0,0.0,0.0,0.0,0.0,0.0,0.0,0.0,0.0,0.0,0.0,0.0,0.0,0.0,0.0,0.0,0.0,0.0,0.0,0.0,0.0,0.0,0.0,0.0,0.0,0.0,0.0,0.0,0.0,0.0,0.0,0.0,0.0,0.0,0.0,0.0,0.0,0.0,0.0,0.0,0.0,0.0,0.0,0.0,0.0,0.0,0.0,0.0,0.0,0.0,0.0,0.0,0.0,0.0,0.0,0.0,0.0,0.0,0.0,0.0,0.0,0.0,0.0,0.0,0.0,0.0,0.0,0.0,0.0,0.0,0.0,0.0,0.0,0.0,0.0,0.0,0.0,0.0,0.0,0.0,-0.5619,-0.6729,-0.7086,-0.7303,-0.7517,-0.6726,-0.5902,0.0,0.0,0.0,0.0,0.0,0.0,0.0,0.0,0.0,0.0,0.0,0.0,0.0,0.0,0.0,0.0,0.0,0.0,0.0,0.0,0.0,0.0,0.0,0.0,0.0,0.0,0.0,0.0,0.0,0.0,0.0,0.0,0.0,0.0,0.0,0.0,0.0,0.0,0.0,0.0,0.0,0.0,0.0,0.0,0.0,0.0,0.0,0.0,0.0,0.0,0.0,0.0,0.0,0.0,0.0,0.0,0.0,0.0,0.0,0.0,0.0,0.0,0.0,0.0,0.0,0.0,0.0,0.0,0.0,0.0,0.0,0.0,0.0,0.0,0.0,0.0,0.0,0.0,0.0,0.0,0.0,0.0,0.0,0.0,0.0,0.0,0.0,0.0,0.0,0.0,0.0,0.0,0.0,0.0,0.0,0.0,0.0,0.0,0.0,0.0,0.0,0.0,0.0,0.0,0.0,0.0,0.0,0.0,-0.5835,-0.6537,-0.709,-0.7482,-0.7729,-0.7052,-0.6391,0.0,0.0,0.0,0.0,0.0,0.0,0.0,0.0,0.0,0.0,0.0,0.0,0.0,0.0,0.0,0.0,0.0,0.0,0.0,0.0,0.0,0.0,0.0,0.0,0.0,0.0,0.0,0.0,0.0,0.0,0.0,0.0,0.0,0.0,0.0,0.0,0.0,0.0,0.0,0.0,0.0,0.0,0.0,0.0,0.0,0.0,0.0,0.0,-0.509,0.0,0.0,0.0,0.0,0.0,0.0,0.0,0.0,0.0,0.0,0.0,0.0,0.0,0.0,0.0,0.0,0.0,0.0,0.0,0.0,0.0,0.0,0.0,0.0,0.0,0.0,0.0,0.0,0.0,0.0,0.0,0.0,0.0,0.0,0.0,0.0,0.0,0.0,0.0,0.0,0.0,0.0,0.0,0.0,0.0,0.0,0.0,0.0,0.0,0.0,0.0,0.0,0.0,0.0,0.0,0.0,0.0,0.0,0.0,-0.6143,-0.7197,-0.7362,-0.7553,-0.7753,-0.737,-0.6909,0.0,0.0,0.0,0.0,0.0,0.0,0.0,0.0,0.0,0.0,0.0,0.0,0.0,0.0,0.0,0.0,0.0,0.0,0.0,0.0,0.0,0.0,0.0,0.0,0.0,0.0,0.0,0.0,0.0,0.0,0.0,0.0,0.0,0.0,0.0,0.0,0.0,0.0,0.0,0.0,0.0,0.0,0.0,0.0,0.0,0.0,0.0,0.0,0.0,0.0,0.0,0.0,0.0,0.0,0.0,0.0,0.0,0.0,0.0,0.0,0.0,0.0,0.0,0.0,0.0,0.0,0.0,0.0,0.0,0.0,0.0,0.0,0.0,0.0,0.0,0.0,0.0,0.0,0.0,0.0,0.0,0.0,0.0,0.0,0.0,0.0,0.0,0.0,0.0,0.0,0.0,0.0,0.0,0.0,0.0,0.0,0.0,0.0,0.0,0.0,0.0,0.0,0.0,0.0,0.0,0.0,0.0,-0.5751,-0.6478,-0.7867,-0.7674,-0.7617,-0.7792,-0.7624,-0.743,-0.7145,0.0,0.0,0.0,0.0,0.0,0.0,0.0,0.0,0.0,0.0,0.0,0.0,0.0,0.0,0.0,0.0,0.0,0.0,0.0,0.0,0.0,0.0,0.0,0.0,0.0,0.0,0.0,0.0,0.0,0.0,0.0,0.0,0.0,0.0,0.0,0.0,0.0,0.0,-0.4058,-0.4882,0.0,0.0,0.0,0.0,0.0,0.0,0.0,0.0,-0.5369,0.0,0.0,0.0,0.0,0.0,0.0,0.0,0.0,0.0,0.0,0.0,0.0,0.0,0.0,0.0,0.0,0.0,0.0,0.0,0.0,0.0,0.0,0.0,0.0,0.0,0.0,0.0,0.0,0.0,0.0,0.0,0.0,0.0,0.0,0.0,0.0,0.0,0.0,0.0,0.0,0.0,0.0,0.0,0.0,0.0,0.0,0.0,0.0,0.0,0.0,0.0,0.0,0.0,0.0,0.0,0.0,-0.6153,-0.6142,-0.6666,-0.7721,-0.7699,-0.7699,-0.7708,-0.7699,-0.7564,-0.7332,0.0,0.0,0.0,0.0,0.0,0.0,0.0,0.0,0.0,0.0,0.0,0.0,0.0,0.0,0.0,0.0,0.0,0.0,0.0,0.0,0.0,0.0,0.0,0.0,0.0,0.0,0.0,0.0,0.0,0.0,0.0,0.0,0.0,0.0,0.0,0.0,0.0,0.0,0.0,-0.5821,-0.6236,0.0,0.0,0.0,0.0,0.0,0.0,0.0,0.0,-0.5515,0.0,0.0,0.0,0.0,0.0,0.0,0.0,0.0,0.0,0.0,0.0,0.0,0.0,0.0,0.0,0.0,0.0,0.0,0.0,0.0,0.0,0.0,0.0,0.0,0.0,0.0,0.0,0.0,0.0,0.0,0.0,0.0,0.0,0.0,0.0,0.0,0.0,0.0,0.0,0.0,0.0,0.0,0.0,0.0,0.0,0.0,0.0,0.0,0.0,0.0,0.0,0.0,0.0,0.0,0.0,-0.588,-0.6201,-0.676,-0.766,-0.7821,-0.7829,-0.7821,-0.7665,-0.7387,0.0,0.0,0.0,0.0,0.0,0.0,0.0,0.0,0.0,0.0,0.0,0.0,0.0,0.0,0.0,0.0,0.0,0.0,0.0,0.0,0.0,0.0,0.0,0.0,0.0,0.0,0.0,0.0,0.0,0.0,0.0,0.0,0.0,0.0,0.0,0.0,0.0,0.0,0.0,0.0,-0.7073,-0.7403,-0.8041,0.0,0.0,0.0,0.0,0.0,0.0,-0.6558,-0.6097,0.0,0.0,0.0,0.0,0.0,0.0,0.0,0.0,0.0,0.0,0.0,0.0,0.0,0.0,0.0,0.0,0.0,0.0,0.0,0.0,0.0,0.0,0.0,0.0,0.0,0.0,0.0,0.0,0.0,0.0,0.0,0.0,0.0,0.0,0.0,0.0,0.0,0.0,0.0,0.0,0.0,0.0,0.0,0.0,0.0,0.0,0.0,0.0,0.0,0.0,0.0,0.0,0.0,0.0,0.0,-0.5707,-0.6186,-0.6854,-0.7713,-0.7931,-0.7972,-0.7964,-0.7668,-0.719,0.0,0.0,0.0,0.0,0.0,0.0,0.0,0.0,0.0,0.0,0.0,0.0,0.0,0.0,0.0,0.0,0.0,0.0,0.0,0.0,0.0,0.0,0.0,0.0,0.0,0.0,0.0,0.0,0.0,0.0,0.0,0.0,0.0,0.0,0.0,0.0,0.0,0.0,0.0,0.0,0.0,-0.8573,-0.873,-0.8668,0.0,0.0,0.0,0.0,-0.8458,-0.7623,0.0,0.0,0.0,0.0,0.0,0.0,0.0,0.0,0.0,0.0,0.0,0.0,0.0,0.0,0.0,0.0,0.0,0.0,0.0,0.0,0.0,0.0,0.0,0.0,0.0,0.0,0.0,0.0,0.0,0.0,0.0,0.0,0.0,0.0,0.0,0.0,0.0,0.0,0.0,0.0,0.0,0.0,0.0,0.0,0.0,0.0,0.0,0.0,0.0,0.0,0.0,0.0,0.0,0.0,0.0,0.0,-0.5822,-0.6259,-0.6941,-0.7822,-0.7972,-0.8021,-0.8062,-0.7676,-0.7219,0.0,0.0,0.0,0.0,0.0,0.0,0.0,0.0,0.0,0.0,0.0,0.0,0.0,0.0,0.0,0.0,0.0,0.0,0.0,0.0,0.0,0.0,0.0,0.0,0.0,0.0,0.0,0.0,0.0,0.0,0.0,0.0,0.0,0.0,0.0,0.0,0.0,0.0,0.0,0.0,0.0,-0.9098,-0.8393,-0.837,-0.867,0.0,0.0,-0.838,-0.9827,-0.8653,0.0,0.0,0.0,0.0,0.0,0.0,0.0,0.0,0.0,0.0,0.0,0.0,0.0,0.0,0.0,0.0,0.0,0.0,0.0,0.0,0.0,0.0,0.0,0.0,0.0,0.0,0.0,0.0,0.0,0.0,0.0,0.0,0.0,0.0,0.0,0.0,0.0,0.0,0.0,0.0,0.0,0.0,0.0,0.0,0.0,0.0,0.0,0.0,0.0,0.0,0.0,0.0,0.0,0.0,0.0,-0.444,-0.5876,-0.654,-0.7241,-0.7934,-0.8152,-0.8242,-0.8283,-0.7718,-0.7107,0.0,0.0,0.0,0.0,0.0,0.0,0.0,0.0,0.0,0.0,0.0,0.0,0.0,0.0,0.0,0.0,0.0,0.0,0.0,0.0,0.0,0.0,0.0,0.0,0.0,0.0,0.0,0.0,0.0,0.0,0.0,0.0,0.0,0.0,0.0,0.0,0.0,0.0,0.0,0.0,0.0,0.0,-0.9571,-0.9255,0.0,0.0,0.0,-0.9473,-1.0209,0.0,0.0,0.0,0.0,0.0,0.0,0.0,0.0,0.0,0.0,0.0,0.0,0.0,0.0,0.0,0.0,0.0,0.0,0.0,0.0,0.0,0.0,0.0,0.0,0.0,0.0,0.0,0.0,0.0,0.0,0.0,0.0,0.0,0.0,0.0,0.0,0.0,0.0,0.0,0.0,0.0,0.0,0.0,0.0,0.0,0.0,0.0,0.0,0.0,0.0,0.0,0.0,0.0,0.0,0.0,0.0,0.0,-0.5937,-0.6788,-0.75,-0.8072,-0.8283,-0.8373,-0.8357,-0.7712,0.0,0.0,0.0,0.0,0.0,0.0,0.0,0.0,0.0,0.0,0.0,0.0,0.0,0.0,0.0,0.0,0.0,0.0,0.0,0.0,0.0,0.0,0.0,0.0,0.0,0.0,0.0,0.0164,0.0,0.0,0.0,0.0,0.0,0.0,0.0,0.0,0.0,0.0,0.0,0.0,0.0,0.0,-1.0155,-1.0201,-1.002,-1.0113,0.0,0.0,-1.0702,-1.0702,-1.0702,-1.0141,0.0,0.0,0.0,0.0,0.0,0.0,0.0,0.0,0.0,0.0,0.0,0.0,0.0,0.0,0.0,0.0,0.0,0.0,0.0,0.0,0.0,0.0,0.0,0.0,0.0,0.0,0.0,0.0,0.0,0.0,0.0,0.0,0.0,0.0,0.0,0.0,0.0,0.0,0.0,0.0,0.0,0.0,0.0,0.0,0.0,0.0,0.0,0.0,0.0,0.0,0.0,0.0,0.0,0.0,0.0,-0.6068,-0.6883,-0.765,-0.8341,-0.8373,-0.8373,-0.8398,-0.7682,-0.6983,0.0,0.0,0.0,0.0,0.0,0.0,0.0,0.0,0.0,0.0,0.0,0.0,0.0,0.0,0.0,0.0,0.0,0.0,0.0,0.0,0.0,0.0,0.0,0.0,0.0,0.0,0.0,0.0,0.0,0.0,0.0,0.0,0.0,0.0,0.0,0.0,0.0,0.0,0.0,0.0,0.0,-1.0347,-0.9343,-1.0214,-1.1015,0.0,0.0,-1.1784,-1.1817,-1.057,-0.9415,-0.8827,0.0,0.0,0.0,0.0,0.0,0.0,0.0,0.0,0.0,0.0,0.0,0.0,0.0,0.0,0.0,0.0,0.0,0.0,0.0,0.0,0.0,0.0,0.0,0.0,0.0,0.0,0.0,0.0,0.0,0.0,0.0,0.0,0.0,0.0,0.0,0.0,0.0,0.0,0.0,0.0,0.0,0.0,0.0,0.0,0.0,0.0,0.0,0.0,0.0,0.0,0.0,0.0,0.0,-0.4742,-0.6083,-0.6883,-0.765,-0.8382,-0.8659,-0.8659,-0.8414,-0.8056,-0.7391,0.0,0.0,0.0,0.0,0.0,0.0,0.0,0.0,0.0,0.0,0.0,0.0,0.0,0.0,0.0,0.0,0.0,0.0,0.0,0.0,0.0,0.0,0.0,0.0,0.0,0.0,0.0,0.0,-0.1751,-0.2277,-0.3084,0.0,0.0,0.0,0.0,0.0,0.0,0.0,0.0,0.0,0.0,-1.1361,-1.1311,-1.1742,0.0,0.0,-1.324,-1.3264,-1.301,-1.2106,-1.1124,-1.0091,-0.8647,0.0,0.0,0.0,0.0,0.0,0.0,0.0,0.0,0.0,0.0,0.0,0.0,0.0,0.0,0.0,0.0,0.0,0.0,0.0,0.0,0.0,0.0,0.0,0.0,0.0,0.0,0.0,0.0,0.0,0.0,0.0,0.0,0.0,0.0,0.0,0.0,0.0,0.0,0.0,0.0,0.0,0.0,0.0,0.0,0.0,0.0,0.0,0.0,0.0,0.0,0.0,0.0,-0.4774,-0.6091,-0.6883,-0.765,-0.8406,-0.8659,-0.8847,-0.8921,-0.8416,-0.7704,0.0,0.0,0.0,0.0,0.0,0.0,0.0,0.0,0.0,0.0,0.0,0.0,0.0,0.0,0.0,0.0,0.0,0.0,0.0,0.0,0.0,0.0,0.0,0.0,0.0,0.0,0.0,0.0,-0.3035,-0.3395,-0.4439,0.0,0.0,0.0,0.0,0.0,0.0,0.0,0.0,0.0,0.0,-1.2162,-1.2614,-1.2842,-1.3252,-1.4156,-1.4156,-1.3857,-1.3204,-1.3447,-1.301,-1.0907,0.0,0.0,0.0,0.0,0.0,0.0,0.0,0.0,0.0,0.0,0.0,0.0,0.0,0.0,0.0,0.0,0.0,0.0,0.0,0.0,0.0,0.0,0.0,0.0,0.0,0.0,0.0,0.0,0.0,0.0,-0.2498,0.0,0.0,0.0,0.0,0.0,0.0,0.0,0.0,0.0,0.0,0.0,0.0,0.0,0.0,0.0,0.0,0.0,0.0,0.0,0.0,0.0,0.0,-0.475,-0.6083,-0.6883,-0.7642,-0.839,-0.8414,-0.902,-1.0124,-0.8746,-0.7851,-0.7634,0.0,0.0,0.0,0.0,0.0,0.0,0.0,0.0,0.0,0.0,0.0,0.0,0.0,0.0,0.0,0.0,0.0,0.0,0.0,0.0,0.0,0.0,0.0,0.0,0.0,0.0,-0.4703,-0.4455,-0.4419,0.0,0.0,0.0,0.0,0.0,0.0,0.0,0.0,0.0,0.0,-1.1212,-1.2709,-1.2745,-1.318,-1.3746,-1.428,-1.3891,-1.3204,-1.2239,-1.4277,-1.486,0.0,0.0,0.0,0.0,0.0,0.0,0.0,0.0,0.0,0.0,0.0,0.0,0.0,0.0,0.0,0.0,0.0,0.0,0.0,0.0,0.0,0.0,0.0,0.0,0.0,0.0,0.0,-0.3638,-0.3483,0.0,0.0,0.0,0.0,0.0,0.0,0.0,0.0,0.0,0.0,0.0,-0.5531,-0.5746,0.0,0.0,0.0,0.0,0.0,0.0,0.0,0.0,0.0,0.0,0.0,0.0,-0.4983,-0.6098,-0.7205,-0.8106,-0.8797,-0.9408,-0.9793,-0.9977,-0.945,-0.8575,-0.732,0.0,0.0,0.0,0.0,0.0,0.0,0.0,0.0,0.0,0.0,0.0,0.0,0.0,0.0,0.0,0.0,0.0,0.0,0.0,0.0,0.0,0.0,0.0,0.0,0.0,-0.5236,0.0,0.0,0.0,0.0,0.0,0.0,0.0,0.0,0.0,0.0,0.0,-1.1148,-1.2412,-1.3614,-1.432,-1.4238,-1.513,-1.5813,0.0,0.0,0.0,0.0,0.0,0.0,0.0,0.0,0.0,0.0,0.0,0.0,0.0,0.0,-1.0366,-0.7497,-0.6693,-0.6487,-0.649,0.0,0.0,0.0,0.0,0.0,0.0,0.0,0.0,0.0,0.0,0.0,0.0,0.0,0.0,-0.4762,0.0,-0.4648,0.0,0.0,0.0,0.0,0.0,0.0,0.0,0.0,-0.6085,-0.6512,-0.6551,-0.677,-0.6768,0.0,-0.6414,-0.5719,0.0,0.0,0.0,0.0,0.0,0.0,0.0,0.0,-0.5656,-0.6686,-0.7663,-0.8494,-0.9199,-0.9607,-0.9873,-0.9961,-0.9817,-0.9036,-0.7599,-0.6694,-0.6108,0.0,0.0,0.0,0.0,0.0,0.0,0.0,0.0,0.0,0.0,0.0,0.0,0.0,0.0,0.0,0.0,0.0,0.0,0.0,0.0,0.0,0.0,0.0,-0.5744,0.0,0.0,0.0,0.0,0.0,0.0,0.0,0.0,0.0,-0.9015,-1.0649,-1.2615,-1.4696,-1.5052,-1.5232,-1.5492,0.0,0.0,0.0,0.0,0.0,0.0,0.0,-1.4364,-1.4312,-1.4036,-1.3523,-1.2797,-1.2102,-1.2203,-1.3932,0.0,0.0,-0.9761,-0.8989,-0.8843,-0.8878,-0.9189,-0.9572,-0.987,-1.0309,-1.0703,0.0,0.0,0.0,0.0,0.0,0.0,0.0,0.0,-0.5967,-0.6058,0.0,-0.5887,0.0,0.0,0.0,0.0,0.0,-0.5748,0.0,0.0,-0.7558,-0.8186,-0.8245,-0.8094,-0.7896,-0.7706,-0.7712,-0.726,-0.6353,-0.5305,0.0,0.0,0.0,0.0,0.0,0.0,-0.6751,-0.7757,-0.8308,-0.8917,-0.9554,-0.9096,-0.9306,-1.0264,-0.9874,-0.9277,-0.8517,-0.8244,-0.7613,-0.6618,-0.6181,0.0,0.0,0.0,0.0,0.0,0.0,0.0,0.0,0.0,0.0,0.0,0.0,0.0,0.0,0.0,0.0,0.0,0.0,0.0,0.0,-0.5817,0.0,0.0,0.0,0.0,0.0,0.0,0.0,0.0,0.0,0.0,-1.1024,-1.2129,-1.3642,-1.5807,0.0,0.0,0.0,0.0,-1.638,-1.6368,-1.5867,-1.557,-1.5546,-1.5048,-1.4718,-1.4759,0.0,0.0,-1.3461,-1.4149,-1.455,-1.3805,-1.4592,-1.5095,-1.389,-1.2871,-1.2497,-1.2571,-1.252,-1.2589,-1.2229,-1.2429,-1.2729,-0.562,0.0,0.0,0.0,0.0,-0.623,-0.6684,-0.7236,-0.7544,-0.7339,-0.6848,-0.6826,0.0,0.0,0.0,0.0,0.0,0.0,-0.6779,-0.7321,-0.763,-0.7999,-0.8287,-0.8336,-0.8335,-0.8287,-0.8422,-0.8245,-0.7866,-0.732,-0.6323,-0.4902,0.0,0.0,0.0,0.0,-0.7283,-0.792,-0.8936,-0.9722,-1.0157,-1.0477,-1.0659,-1.0784,-1.0534,-1.0261,-0.9992,-0.9091,-0.8439,-0.8072,-0.6739,0.0,0.0,0.0,0.0,0.0,0.0,0.0,0.0,0.0,0.0,0.0,0.0,0.0,0.0,0.0,0.0,0.0,0.0,0.0,-0.5373,-0.5802,-0.6198,0.0,0.0,0.0,0.0,0.0,0.0,0.0,0.0,0.0,-1.224,-1.3179,-1.3956,0.0,0.0,-1.5887,-1.5531,-1.6736,-1.7535,-1.726,0.0,0.0,0.0,-1.6585,-1.5961,-1.599,-1.5772,-1.5409,-1.4877,-1.4839,-1.4752,-1.4317,-1.4262,-1.4402,-1.4797,-1.3435,-1.2299,-1.2251,-1.2568,-1.2946,-1.3252,-1.3722,-1.418,-0.7132,-0.6334,-0.6352,-0.6659,-0.7101,-0.7251,-0.7653,-0.8219,-0.8375,-0.8281,-0.809,-0.7986,-0.761,-0.7039,-0.6881,0.0,0.0,0.0,-0.828,-0.8576,-0.8753,-0.8929,-0.9036,-0.8994,-0.9115,-0.9408,-0.939,-0.9253,-0.9014,-0.8757,-0.7971,-0.6706,0.0,0.0,-0.6643,-0.7657,-0.8437,-0.8903,-0.9685,-1.0273,-1.0611,-1.1012,-1.1153,-1.0998,-1.0902,-1.0849,-1.0804,-0.9833,-0.9289,-0.9249,-0.7822,-0.6725,0.0,0.0,0.0,0.0,0.0,0.0,0.0,0.0,0.0,0.0,0.0,-0.4971,0.0,0.0,0.0,0.0,-0.429,-0.567,-0.6361,-0.653,0.0,0.0,0.0,0.0,0.0,0.0,0.0,-0.967,-1.0729,-1.1885,-1.3357,-1.3969,-1.4441,-1.5025,-1.5855,-1.6312,-1.6107,0.0,-1.8317,-1.8091,-1.8606,-1.8858,-1.8581,-1.8129,-1.7727,-1.7426,-1.6898,-1.6414,-1.603,-1.583,-1.5694,-1.5492,-1.4842,-1.4428,-1.5029,-1.3801,-1.2881,-1.3285,-1.367,-1.3971,-1.4114,-1.4559,-1.5068,-0.8379,-0.8398,-0.7779,-0.7699,-0.8039,-0.8062,-0.8316,-0.8705,-0.8735,-0.904,-0.9467,-0.9341,-0.9189,-0.8997,-0.8712,0.0,-0.8989,-0.9973,-1.0347,-1.0194,-1.0547,-1.06,-1.0316,-0.9955,-1.0144,-1.0841,-1.0502,-1.0225,-0.9959,-0.984,-0.9479,-0.8982,-0.8278,-0.8113,-0.8386,-0.9245,-0.9913,-1.036,-1.0456,-1.0611,-1.0916,-1.1019,-1.1057,-1.1046,-1.1135,-1.1193,-1.1115,-1.0526,-1.0143,-1.0038,-0.9164,-0.8279,-0.7438,0.0,0.0,0.0,0.0,0.0,0.0,0.0,0.0,0.0,0.0,0.0,0.0,0.0,0.0,0.0,-0.5781,0.0,-0.7773,-0.7812,0.0,0.0,0.0,-1.0399,-0.9561,-0.9833,-1.0494,-1.1501,0.0,0.0,-1.4351,0.0,-1.5146,-1.648,-1.6575,-1.6741,-1.7421,-1.8172,-1.8744,-1.8781,-1.897,-1.9046,-1.9058,-1.9321,-1.9296,-1.8593,-1.8092,-1.7454,-1.6991,-1.7024,-1.7096,-1.7274,-1.6153,-1.5123,-1.4872,-1.4402,-1.4245,-1.5199,-1.5291,-1.5134,-1.4794,-1.5068,-1.5461,-0.9211,-0.9775,-0.9222,-0.8788,-0.855,-0.8741,-0.892,-0.9047,-0.9196,-0.9637,-1.0147,-1.014,-1.0113,-1.0045,-1.0103,-1.0181,-1.0258,-1.0612,-1.106,-1.1633,-1.1817,-1.1768,-1.1477,-1.1425,-1.1327,-1.1286,-1.1277,-1.1324,-1.1459,-1.1194,-1.0836,-1.0474,-1.0309,-0.9751,-0.8913,-0.9734,-1.0282,-1.0394,-1.0895,-1.1223,-1.1362,-1.1527,-1.1616,-1.1616,-1.1926,-1.1897,-1.149,-1.1097,-1.0552,-0.9904,-0.9501,-0.8748,-0.7532,-0.6546,0.0,0.0,0.0,0.0,0.0,0.0,0.0,0.0,0.0,-0.5798,-0.5166,0.0,-0.4402,0.0,-0.6451,-0.8758,-0.8335,-0.8538,0.0,0.0,-1.085,-1.1675,-1.1104,-1.1103,-1.1501,-1.2325,-1.2573,-1.3134,-1.4338,-1.5448,-1.6376,-1.7109,-1.7128,-1.7013,-1.6781,-1.8007,-1.9095,-1.9434,-1.956,-1.9623,-1.9585,-1.9459,-1.9168,-1.8548,-1.8469,-1.8132,-1.7111,-1.7549,-1.8192,-1.8401,-1.8022,-1.7342,-1.6676,-1.5787,-1.5212,-1.5369,-1.4807,-1.4441,-1.5095,-1.5382,-1.5603,-1.0085,-1.0284,-1.0548,-1.0361,-0.9819,-0.9662,-0.9854,-1.017,-1.0335,-1.0566,-1.0786,-1.0847,-1.0852,-1.0734,-1.1364,-1.1717,-1.184,-1.2167,-1.2499,-1.2781,-1.2902,-1.2659,-1.2245,-1.2088,-1.2032,-1.2138,-1.21,-1.2176,-1.2325,-1.2188,-1.1991,-1.1684,-1.1684,-1.1297,-1.0646,-1.0891,-1.1037,-1.105,-1.152,-1.1719,-1.1623,-1.1748,-1.1673,-1.1507,-1.2081,-1.2142,-1.1524,-1.1248,-1.0862,-1.0391,-0.9809,-0.9051,-0.8097,-0.7842,-0.7123,0.0,0.0,0.0,0.0,0.0,0.0,0.0,0.0,0.0,0.0,0.0,-0.6771,-0.6312,-0.8856,-1.0271,-0.9792,-0.9721,-0.9969,-1.0661,-1.2025,-1.2793,-1.2539,-1.2446,-1.2768,-1.3641,-1.3859,-1.431,-1.5257,-1.6053,-1.6678,-1.7218,-1.7363,-1.7501,-1.7945,-1.8781,-1.9484,-1.9748,-1.9798,-1.9798,-1.9862,-1.9725,-1.9483,-1.9264,-1.9166,-1.8939,-1.8472,-1.8371,-1.8649,-1.9447,-1.9251,-1.861,-1.7761,-1.6885,-1.6258,-1.614,-1.5565,-1.4964,-1.4768,-1.4925,-1.5262,-1.1011,-1.0736,-1.169,-1.1894,-1.1451,-1.0947,-1.103,-1.1641,-1.1578,-1.1563,-1.1674,-1.1854,-1.1736,-1.1496,-1.2504,-1.3148,-1.338,-1.3898,-1.4061,-1.3871,-1.3919,-1.358,-1.2986,-1.2661,-1.2735,-1.3213,-1.292,-1.2819,-1.2894,-1.2975,-1.2882,-1.2594,-1.2573,-1.2584,-1.2584,-1.2213,-1.2012,-1.2018,-1.2164,-1.207,-1.1849,-1.1844,-1.1644,-1.1272,-1.2001,-1.2142,-1.1501,-1.1275,-1.1159,-1.1063,-1.0089,-0.9329,-0.9005,-0.9598,-0.9163,0.0,-0.8214,0.0,0.0,0.0,0.0,0.0,0.0,0.0,0.0,-0.8731,-0.9697,-1.0702,-1.1633,-1.2019,-1.146,-1.1064,-1.1236,-1.2197,-1.3088,-1.3662,-1.3817,-1.3848,-1.4159,-1.4966,-1.5277,-1.5645,-1.6321,-1.6462,-1.6581,-1.7124,-1.7412,-1.8032,-1.9294,-1.9606,-1.967,-1.9798,-1.9862,-1.9914,-2.0042,-2.0042,-2.0067,-2.0156,-1.9971,-1.9855,-2.0104,-1.9409,-1.9179,-2.028,-2.0074,-1.9407,-1.8558,-1.7904,-1.7434,-1.7408,-1.6872,-1.5996,-1.4859,-1.4637,-1.482,-1.2098,-1.2294,-1.2166,-1.2497,-1.3101,-1.2912,-1.266,-1.2454,-1.1907,-1.2357,-1.3454,-1.4152,-1.3882,-1.3116,-1.3408,-1.3588,-1.3639,-1.3987,-1.4468,-1.4915,-1.5061,-1.4906,-1.4551,-1.4486,-1.4291,-1.3901,-1.3871,-1.3687,-1.3449,-1.359,-1.3397,-1.3002,-1.3081,-1.2978,-1.2627,0.0,0.0,0.0,-1.2356,-1.2156,-1.2135,-1.2061,-1.1995,-1.1939,-1.2401,0.0,-1.185,-1.1784,-1.1532,-1.1099,-1.0089,0.0,0.0,0.0,0.0,0.0,0.0,0.0,0.0,0.0,0.0,0.0,-0.8521,-0.8043,-0.7521,-0.8581,-0.9717,-1.0667,-1.2269,-1.2929,-1.2032,-1.1973,-1.2325,-1.3191,-1.3517,-1.3944,-1.4925,-1.507,-1.5173,-1.5308,-1.5401,-1.5639,-1.6304,-1.6379,-1.6581,-1.7101,-1.7644,-1.8255,-1.9052,-1.9223,-1.9408,-1.9965,-2.008,-2.008,-2.0144,-2.0246,-2.0245,-2.0435,-2.0497,-2.0468,-2.0521,-2.0466,-2.024,-2.0699,-2.0594,-2.0437,-2.0201,-1.9316,-1.8584,-1.8571,-1.7761,-1.695,-1.6598,-1.5879,-1.5082,-1.2909,0.0,-1.3197,-1.3538,0.0,-1.3893,-1.4101,-1.4421,-1.3787,-1.3794,-1.435,-1.4742,-1.4637,-1.4256,-1.464,-1.478,-1.4772,-1.4884,-1.5081,-1.5323,-1.5488,-1.531,-1.5018,-1.5109,-1.4811,-1.4114,-1.4143,-1.4016,-1.3736,-1.3773,-1.3742,-1.3637,-1.3729,-1.3656,-1.3486,-1.3903,-1.3872,-1.3474,-1.322,-1.31,-1.3117,-1.305,-1.2794,-1.234,0.0,0.0,0.0,0.0,0.0,0.0,0.0,0.0,0.0,0.0,0.0,-1.1154,-1.1067,-1.0501,-0.9329,-0.9741,-1.0319,-1.0826,-1.0499,-1.0211,-0.9975,-1.0067,-1.0579,-1.1696,-1.2913,-1.347,-1.3253,-1.3062,-1.331,-1.4179,-1.4697,-1.5163,-1.5473,-1.5484,-1.5556,-1.5846,-1.5887,-1.6032,-1.6436,-1.6545,-1.6648,-1.6888,-1.7179,-1.7967,-1.9221,-1.9523,-1.972,-2.0131,-2.0144,-2.0144,-2.0258,-1.9986,-2.0073,-2.0419,-2.0427,-2.0388,-2.066,-2.0699,-2.0699,-2.0699,-2.0699,-2.0699,-2.066,-2.0201,-1.9682,-1.9394,-1.8885,-1.8537,-1.849,-1.7188,-1.55,-1.3622,-1.3258,-1.4274,-1.4633,-1.4489,-1.4625,-1.5338,-1.6367,0.0,0.0,0.0,-1.5016,-1.5094,-1.5219,-1.5827,-1.5984,-1.5779,-1.5831,-1.571,-1.5478,-1.5614,-1.5541,-1.5193,-1.5452,-1.5124,-1.445,-1.4419,-1.4289,-1.3994,-1.39,-1.3999,-1.4176,-1.4222,-1.4316,-1.4466,-1.4605,-1.4552,-1.4281,-1.4136,-1.407,-1.4064,-1.4011,-1.3592,-1.278,-1.3346,-1.3166,-1.2223,-1.2279,-1.2335,-1.2289,-1.2109,-1.1736,-1.1245,-1.1862,-1.2501,-1.3044,-1.2842,-1.2105,-1.0877,-1.1729,-1.2375,-1.238,-1.2069,-1.2068,-1.2655,-1.1727,-1.1686,-1.3016,-1.3445,-1.3838,-1.4366,-1.3921,-1.4014,-1.5018,-1.5877,-1.6208,-1.5866,-1.568,-1.5846,-1.6363,-1.6415,-1.6493,-1.6691,-1.6722,-1.6768,-1.6842,-1.7045,-1.7698,-1.9574,-2.0387,-2.0538,-2.027,-2.0246,-2.0296,-2.037,-2.007,-1.9837,-2.0531,-2.0283,-2.0152,-2.0555,-2.0699,-2.0699,-2.0699,-2.0699,-2.0699,-2.0699,-2.0646,-2.0542,-2.0109,-2.0018,-2.0053,-1.9977,-1.8579,-1.6691,-1.4425,-1.4418,-1.4919,-1.5133,-1.5133,-1.5771,-1.6342,-1.683,-1.6711,-1.6406,-1.6096,-1.6287,-1.6159,-1.59,-1.6284,-1.6172,-1.584,-1.6013,-1.59,0.0,-1.5682,-1.5806,-1.5965,-1.5955,-1.5858,-1.5624,-1.5248,-1.4911,-1.4584,-1.4286,-1.4176,-1.4222,-1.4326,-1.4466,-1.4662,-1.4708,-1.4892,-1.5262,-1.4656,-1.4347,-1.4363,-1.4093,-1.3945,-1.3804,-1.4026,-1.412,-1.3963,-1.3939,-1.3951,-1.3951,-1.36,-1.3409,-1.3447,-1.4171,-1.4457,-1.4001,-1.4007,-1.3702,-1.2986,-1.2918,-1.285,-1.2816,-1.2772,-1.2696,-1.2676,-1.2337,-1.2648,-1.3931,-1.3859,-1.3972,-1.4718,-1.4169,-1.4242,-1.5411,-1.6053,-1.6332,-1.626,-1.626,-1.6405,-1.675,-1.6612,-1.6659,-1.703,-1.6917,-1.6958,-1.7552,-1.7966,-1.8633,-1.9957,-2.1525,-2.1728,-2.0706,-2.0476,-2.0588,-2.0688,-2.0597,-2.0505,-2.0673,-2.0607,-2.044,-2.066,-2.0699,-2.0699,-2.0699,-2.0699,-2.0699,-2.0699,-2.0699,-2.0696,-2.0641,-2.0641,-2.0703,-2.0748,-2.0013,-1.907,-1.4919,-1.4991,-1.5338,-1.563,-1.5842,-1.6412,-1.6691,-1.6908,-1.7038,-1.6936,-1.6847,-1.6896,-1.6919,-1.6949,-1.7072,-1.6983,-1.6641,-1.6586,-1.6375,-1.6019,-1.5956,-1.5999,-1.6114,-1.6275,-1.6217,-1.5888,-1.5742,-1.5362,-1.4832,-1.4672,-1.4493,-1.4348,-1.4466,-1.4697,-1.4926,-1.5062,-1.5289,-1.5647,-1.5233,-1.5072,-1.516,-1.5033,-1.4827,-1.4553,-1.4653,-1.4578,-1.4301,-1.4329,-1.4329,-1.4368,-1.4171,-1.4087,-1.4126,-1.4389,-1.4804,-1.5334,-1.4987,-1.4845,-1.4983,-1.4611,-1.4216,-1.3841,-1.3952,-1.4068,-1.4169,-1.3737,-1.3862,-1.4634,-1.4914,-1.5173,-1.537,-1.5214,-1.538,-1.6046,-1.626,-1.6363,-1.6415,-1.6694,-1.6808,-1.6746,-1.7012,-1.7204,-1.6974,-1.7376,-1.768,-1.8121,-1.8744,-1.9602,-2.019,-2.1758,-2.2522,-2.1267,-2.113,-2.1199,-2.1132,-2.0882,-2.0725,-2.0699,-2.0348,-2.026,-2.0531,-2.0686,-2.0673,-2.0699,-2.0699,-2.0699,-2.0699,-2.0762,-2.0825,-2.0888,-2.0938,-2.101,-2.1015,-2.0657,-1.9898,-1.5196,-1.5204,-1.5692,-1.6123,-1.6491,-1.676,-1.6899,-1.6968,-1.7097,-1.7235,-1.7304,-1.7304,-1.7432,-1.7706,-1.7706,-1.7629,-1.7429,-1.7214,-1.6944,-1.6567,-1.6353,-1.6267,-1.6314,-1.6519,-1.6437,-1.61,-1.6158,-1.5828,-1.5315,-1.5163,-1.5023,-1.4876,-1.4985,-1.5174,-1.5372,-1.5599,-1.578,-1.5972,-1.5825,-1.5778,-1.5792,-1.5792,-1.56,-1.5229,-1.5181,-1.5031,-1.4703,-1.4691,-1.472,-1.4801,-1.4801,-1.4773,-1.472,-1.4597,-1.5113,-1.6278,-1.5886,-1.5645,-1.5996,-1.5899,-1.5446,-1.4549,-1.4811,-1.5148,-1.5414,-1.4982,-1.4829,-1.5174,-1.5856,-1.6187,-1.5949,-1.6115,-1.6374,-1.6374,-1.6374,-1.6436,-1.655,-1.7033,-1.7322,-1.7061,-1.762,-1.7835,-1.7641,-1.8023,-1.844,-1.8632,-1.9482,-2.0166,-2.0545,-2.1873,-2.2365,-2.2153,-2.2095,-2.2152,-2.1799,-2.1289,-2.1026,-2.0908,-2.0312,-2.0234,-2.0479,-2.0364,-2.0312,-2.039,-2.0749,-2.0749,-2.0762,-2.0825,-2.0924,-2.0974,-2.0877,-2.0868,-2.0946,-2.084,-2.0129,-1.5204,-1.5267,-1.5991,-1.6491,-1.6839,-1.6908,-1.7038,-1.7176,-1.7166,-1.7373,-1.7638,-1.7638,-1.7638,-1.7716,-1.7852,-1.7841,-1.7579,-1.7566,-1.75,-1.7307,-1.694,-1.6786,-1.6832,-1.6712,-1.6673,-1.668,-1.6427,-1.6342,-1.6232,-1.5872,-1.5829,-1.6087,-1.6126,-1.6101,-1.6162,-1.6197,-1.629,-1.6512,-1.6512,-1.6272,-1.5828,-1.5792,-1.5756,-1.5732,-1.572,-1.5784,-1.5782,-1.5842,-1.5886,-1.6009,-1.6003,-1.5985,-1.6028,-1.6034,-1.6213,-1.6491,-1.6416,-1.6071,-1.5415,-1.6049,-1.5873,-1.4528,-1.4779,-1.5248,-1.5608,-1.5479,-1.5374,-1.5673,-1.6084,-1.6332,-1.6312,-1.6353,-1.6374,-1.6374,-1.6431,-1.6529,-1.687,-1.7319,-1.7806,-1.8438,-1.8247,-1.8456,-1.8913,-1.8856,-1.8754,-1.9171,-1.9712,-2.0298,-2.0859,-2.1658,-2.2482,-2.2827,-2.3405,-2.3258,-2.2479,-2.1956,-2.1564,-2.1381,-2.0923,-2.0686,-2.0377,-1.932,-1.8138,-2.044,-2.0848,-2.0911,-2.0911,-2.0911,-2.1006,-2.0922,-2.0751,-2.0462,-2.0583,-2.0833,-2.0468,-1.5842,-1.5912,-1.6412,-1.6769,-1.6899,-1.7038,-1.7107,-1.7235,-1.7442,-1.7569,-1.7706,-1.7852,-1.7862,-1.7872,-1.8076,-1.8093,-1.7982,-1.7921,-1.7762,-1.7513,-1.7183,-1.7009,-1.6796,-1.6846,-1.6853,-1.6909,-1.6894,-1.6754,-1.6481,-1.6199,-1.6182,-1.6322,-1.6635,-1.6616,-1.6315,-1.6432,-1.6382,-1.6128,-1.6116,-1.6029,-1.5848,-1.6203,-1.6194,-1.5872,-1.5981,-1.6013,-1.5988,-1.6088,-1.6188,-1.6318,-1.6318,-1.656,-1.7003,-1.6642,-1.6823,-1.7689,-1.7626,-1.7331,-1.6949,-1.7,-1.6576,-1.5566,-1.57,-1.5912,-1.6098,-1.6061,-1.605,-1.614,-1.628,-1.6374,-1.6374,-1.6374,-1.6374,-1.6431,-1.6488,-1.6618,-1.6717,-1.7469,-1.8012,-1.8065,-1.871,-1.9147,-1.9254,-1.9318,-1.9499,-1.977,-1.9976,-2.0355,-2.0996,-2.1678,-2.2153,-2.2568,-2.3161,-2.3219,-2.2544,-2.2283,-2.1838,-2.1211,-2.0869,-2.0699,-2.0518,-2.0145,-1.9762,-2.067,-2.0908,-2.0997,-2.0947,-2.074,-2.0636,-2.0637,-2.0348,-2.0021,-2.0053,-2.0419,-2.0202,-1.6272,-1.6342,-1.6769,-1.6908,-1.6968,-1.7176,-1.7235,-1.7364,-1.7569,-1.7706,-1.7784,-1.7998,-1.8076,-1.8076,-1.8279,-1.8337,-1.8422,-1.8329,-1.8219,-1.7998,-1.7749,-1.7532,-1.7265,-1.7209,-1.7205,-1.7194,-1.7266,-1.7137,-1.6829,-1.6721,-1.678,-1.6985,-1.7303,-1.7225,-1.6658,-1.6752,-1.6536,-1.608,-1.6173,-1.6279,-1.6372,-1.6983,-1.6886,-1.6078,-1.6113,-1.6188,-1.612,-1.6175,-1.6405,-1.6673,-1.6673,-1.6935,-1.7505,-1.72,-1.7589,-1.8781,-1.8643,-1.8246,-1.8026,-1.7873,-1.7342,-1.6602,-1.6557,-1.6545,-1.6404,-1.6374,-1.6374,-1.6363,-1.6374,-1.6374,-1.6374,-1.6545,-1.6602,-1.6488,-1.6534,-1.6644,-1.7038,-1.7828,-1.8291,-1.828,-1.9124,-1.9522,-1.9057,-1.9184,-1.9465,-1.9812,-1.991,-2.0264,-2.0991,-2.1566,-2.1946,-2.2216,-2.2695,-2.2763,-2.2465,-2.2165,-2.1707,-2.1302,-2.0882,-2.0762,-2.0762,-2.0736,-2.0772,-2.0908,-2.1019,-2.1082,-2.1082,-2.0818,-2.0442,-2.0226,-2.0016,-1.9768,-1.9497,-1.9781,-1.9836,-1.6272,-1.6351,-1.6769,-1.7065,-1.7176,-1.7273,-1.7392,-1.7686,-1.7735,-1.7794,-1.8008,-1.8212,-1.8279,-1.8269,-1.8337,-1.8472,-1.8741,-1.8767,-1.8895,-1.9055,-1.8753,-1.8702,-1.8754,-1.8115,-1.777,-1.7683,-1.7396,-1.7412,-1.7589,-1.7611,-1.7961,-1.8401,-1.846,-1.8104,-1.7471,-1.7327,-1.7123,-1.669,-1.7098,-1.746,-1.7568,-1.8228,-1.7855,-1.6596,-1.6249,-1.6361,-1.6411,-1.6417,-1.671,-1.7325,-1.7338,-1.7438,-1.7652,-1.7953,-1.8618,-1.951,-1.9258,-1.8561,-1.791,-1.8365,-1.8242,-1.6913,-1.6896,-1.6912,-1.6467,-1.6374,-1.6374,-1.6374,-1.6374,-1.6374,-1.6488,-1.6828,-1.6987,-1.6637,-1.6477,-1.6948,-1.7967,-1.8251,-1.8989,-1.9392,-1.9434,-1.9258,-1.8818,-1.8447,-1.8884,-1.9353,-1.9506,-1.9905,-2.0892,-2.1319,-2.1756,-2.2158,-2.2395,-2.2454,-2.2376,-2.2192,-2.1747,-2.1315,-2.1036,-2.0914,-2.0861,-2.0835,-2.0947,-2.1095,-2.1229,-2.1277,-2.1229,-2.1008,-2.063,-2.0359,-2.0238,-1.9944,-1.9402,-1.9187,-1.9266,-1.676,-1.6917,-1.7324,-1.7577,-1.7807,-1.8214,-1.8256,-1.8158,-1.8259,-1.8242,-1.8231,-1.8269,-1.8405,-1.8596,-1.8607,-1.8674,-1.8808,-1.9008,-1.9062,-1.8931,-1.9009,-1.8901,-1.8599,-1.8116,-1.7941,-1.7875,-1.7508,-1.7445,-1.7711,-1.8084,-1.8398,-1.8548,-1.8774,-1.851,-1.8049,-1.7917,-1.7701,-1.7327,-1.7508,-1.7665,-1.7773,-1.8115,-1.8292,-1.8485,-1.7844,-1.7464,-1.7451,-1.7497,-1.7656,-1.7903,-1.7915,-1.8091,-1.8505,-1.897,-1.9384,-1.9736,-1.9635,-1.9384,-1.8993,-1.863,-1.8519,-1.8553,-1.7324,-1.6637,-1.6431,-1.6374,-1.6374,-1.6374,-1.6374,-1.6488,-1.6715,-1.6941,-1.6931,-1.6761,-1.6761,-1.7052,-1.775,-1.8143,-1.8512,-1.8964,-1.9037,-1.8982,-1.9069,-1.9047,-1.9233,-1.9746,-2.0176,-2.0448,-2.0671,-2.1531,-2.2275,-2.2072,-2.2257,-2.2549,-2.2523,-2.2405,-2.2089,-2.1509,-2.1202,-2.1212,-2.1173,-2.0987,-2.1046,-2.1131,-2.1326,-2.1375,-2.1299,-2.1042,-2.0677,-2.0202,-2.0107,-2.0039,-1.9469,-1.9361,-1.9429,-1.7385,-1.7666,-1.7947,-1.8212,-1.8466,-1.8807,-1.8914,-1.8776,-1.8701,-1.8686,-1.8566,-1.8474,-1.8607,-1.8818,-1.8952,-1.8942,-1.8942,-1.9208,-1.9249,-1.9104,-1.934,-1.9306,-1.896,-1.8616,-1.8517,-1.857,-1.8256,-1.8171,-1.8303,-1.8666,-1.879,-1.8732,-1.8934,-1.8734,-1.8289,-1.8244,-1.8029,-1.7703,-1.7836,-1.8031,-1.8164,-1.8448,-1.8929,-1.9561,-1.9077,-1.8482,-1.8074,-1.8257,-1.8405,-1.8455,-1.8468,-1.8706,-1.9233,-1.9597,-1.9798,-1.9798,-1.9798,-1.9798,-1.9695,-1.8898,-1.859,-1.8939,-1.771,-1.6694,-1.642,-1.6374,-1.6374,-1.6441,-1.6612,-1.6828,-1.6941,-1.6987,-1.6931,-1.692,-1.7022,-1.7283,-1.7796,-1.7995,-1.8217,-1.8523,-1.8851,-1.8982,-1.9015,-1.9102,-1.9478,-2.009,-2.0642,-2.0682,-2.0876,-2.174,-2.2594,-2.1876,-2.2221,-2.2405,-2.2538,-2.2618,-2.2671,-2.2233,-2.1912,-2.1816,-2.1442,-2.1255,-2.1144,-2.1229,-2.1313,-2.1361,-2.1287,-2.1043,-2.0623,-2.0093,-2.0066,-2.0148,-1.9836,-1.9659,-1.9723,-1.8178,-1.8606,-1.8692,-1.8858,-1.9014,-1.9126,-1.9234,-1.9508,-1.9132,-1.9033,-1.9173,-1.8917,-1.889,-1.8916,-1.9173,-1.9285,-1.9341,-1.9351,-1.9528,-1.9738,-1.9814,-1.9868,-1.9922,-1.9495,-1.9459,-1.9649,-1.9684,-1.9529,-1.9338,-1.9368,-1.9285,-1.9042,-1.8999,-1.8758,-1.8229,-1.8355,-1.8189,-1.802,-1.8437,-1.8797,-1.8859,-1.9384,-1.966,-1.9787,-1.9698,-1.9246,-1.8342,-1.8593,-1.8844,-1.8995,-1.8983,-1.9284,-1.966,-1.9786,-1.9798,-1.9798,-1.9798,-1.9798,-1.9747,-1.9226,-1.8375,-1.7809,-1.7435,-1.7067,-1.6534,-1.6431,-1.6431,-1.6545,-1.6885,-1.7233,-1.7054,-1.7155,-1.7211,-1.7067,-1.7145,-1.7486,-1.7912,-1.8152,-1.8217,-1.8348,-1.8807,-1.9004,-1.8556,-1.8775,-1.9449,-2.025,-2.0734,-2.1016,-2.144,-2.2179,-2.2198,-2.2143,-2.2482,-2.2776,-2.2791,-2.2804,-2.3004,-2.3071,-2.2843,-2.2627,-2.1914,-2.1551,-2.1331,-2.1361,-2.1361,-2.141,-2.141,-2.1192,-2.107,-2.0677,-2.0582,-2.046,-2.0351,-2.0243,-2.0121,-1.8924,-1.8969,-1.9247,-1.9577,-1.9791,-1.9811,-2.0044,-2.0226,-1.9795,-1.9676,-1.9809,-1.9481,-1.9414,-1.9536,-1.9442,-1.9483,-1.9681,-1.9736,-1.9813,-1.9944,-2.0009,-2.0074,-2.0052,-1.9902,-1.9705,-1.9775,-1.9982,-2.0006,-1.9934,-1.9773,-1.9629,-1.9504,-1.9179,-1.898,-1.8875,-1.8915,-1.8897,-1.8992,-1.9218,-1.9407,-1.9509,-1.971,-1.9798,-1.9798,-1.9798,-1.961,-1.9321,-1.9409,-1.9484,-1.9547,-1.956,-1.9635,-1.9761,-1.9798,-1.9798,-1.9798,-1.9798,-1.9798,-1.9695,-1.8898,-1.7941,-1.7022,-1.6853,-1.6797,-1.6658,-1.6488,-1.6545,-1.6772,-1.711,-1.7278,-1.7222,-1.7278,-1.7278,-1.7211,-1.7278,-1.754,-1.8108,-1.8665,-1.8709,-1.8359,-1.8632,-1.8742,-1.8819,-1.9199,-2.0198,-2.1032,-2.1691,-2.22,-2.2152,-2.2854,-2.3612,-2.3728,-2.3639,-2.3417,-2.3498,-2.3594,-2.3702,-2.3689,-2.3528,-2.3176,-2.2474,-2.2028,-2.1767,-2.1572,-2.1545,-2.145,-2.145,-2.1355,-2.1233,-2.1247,-2.1125,-2.103,-2.0962,-2.1009,-2.1144,-1.958,-1.9655,-1.9992,-2.0252,-2.047,-2.0556,-2.0717,-2.0872,-2.0467,-2.041,-2.0535,-2.0143,-2.0087,-2.026,-1.9948,-1.9948,-2.0148,-2.0203,-2.0238,-2.0151,-2.0085,-2.014,-2.0302,-2.0534,-2.0527,-2.0505,-2.0771,-2.0855,-2.0653,-2.0505,-2.0342,-2.0101,-1.9799,-1.9655,-1.9592,-1.9621,-1.9707,-1.9614,-1.9643,-1.9708,-1.9798,-1.9798,-1.9798,-1.9798,-1.9798,-1.9798,-1.9798,-1.9798,-1.9798,-1.9798,-1.9798,-1.9798,-1.9798,-1.9798,-1.9798,-1.9798,-1.9811,-1.9772,-1.95,-1.875,-1.7776,-1.6874,-1.6648,-1.6648,-1.6715,-1.6715,-1.6941,-1.7301,-1.7312,-1.7467,-1.779,-1.7467,-1.7356,-1.7278,-1.7518,-1.7835,-1.8381,-1.8993,-1.9069,-1.8769,-1.9149,-1.9382,-1.9497,-2.0278,-2.1252,-2.193,-2.2592,-2.3207,-2.298,-2.3531,-2.4086,-2.4465,-2.4256,-2.4182,-2.4334,-2.4363,-2.4448,-2.4326,-2.415,-2.3649,-2.3026,-2.285,-2.2607,-2.2332,-2.221,-2.1776,-2.1694,-2.1491,-2.1342,-2.145,-2.1689,-2.1681,-2.1757,-2.2553,-2.272,-2.0062,-2.0634,-2.0809,-2.0867,-2.0934,-2.1038,-2.1247,-2.141,-2.0992,-2.103,-2.1251,-2.0957,-2.0889,-2.0935,-2.07,-2.0633,-2.0679,-2.0795,-2.0787,-2.0631,-2.0444,-2.0388,-2.0741,-2.1267,-2.146,-2.1646,-2.193,-2.1861,-2.1452,-2.1343,-2.1198,-2.09,-2.073,-2.0604,-2.0342,-2.0432,-2.0176,-1.9843,-1.9809,-1.9798,-1.9798,-1.9798,-1.9798,-1.9798,-1.9798,-1.9798,-1.9798,-1.9798,-1.9798,-1.9798,-1.9798,-1.9798,-1.9798,-1.9798,-1.9798,-1.9786,-1.9926,-1.9656,-1.9174,-1.875,-1.8159,-1.7368,-1.6931,-1.6761,-1.692,-1.7267,-1.7479,-1.7788,-1.7734,-1.7879,-1.8363,-1.8057,-1.7564,-1.7518,-1.8108,-1.8523,-1.8709,-1.9179,-1.9339,-1.9348,-2.0166,-2.0974,-2.049,-2.1584,-2.2176,-2.2834,-2.316,-2.3458,-2.3734,-2.4041,-2.4287,-2.4452,-2.4614,-2.4603,-2.4579,-2.4676,-2.4747,-2.4666,-2.4503,-2.4069,-2.3513,-2.3283,-2.3297,-2.3051,-2.3019,-2.2464,-2.2083,-2.2051,-2.2005,-2.2199,-2.2328,-2.2328,-2.2889,-2.3702,-2.4213,-2.0556,-2.0819,-2.0906,-2.1061,-2.1308,-2.109,-2.1206,-2.1649,-2.1395,-2.147,-2.1744,-2.1565,-2.1581,-2.1672,-2.1334,-2.1198,-2.133,-2.1329,-2.1241,-2.1173,-2.0997,-2.1106,-2.1336,-2.1588,-2.1851,-2.2049,-2.2185,-2.2175,-2.214,-2.1777,-2.1581,-2.1587,-2.1244,-2.1031,-2.0977,-2.0685,-2.0532,-2.0335,-1.9987,-1.9798,-1.9798,-1.9798,-1.9798,-1.9798,-1.9798,-1.9798,-1.9798,-1.9798,-1.9798,-1.9798,-1.9798,-1.9798,-1.9798,-1.9798,-1.9825,-1.9825,-1.994,-1.9901,-1.953,-1.8927,-1.8483,-1.8387,-1.7568,-1.7123,-1.7567,-1.7909,-1.7909,-1.7878,-1.8205,-1.8544,-1.8107,-1.8163,-1.8414,-1.8851,-1.9273,-1.9522,-1.9295,-1.9561,-2.007,-2.0677,-2.0974,-2.1655,-2.2494,-2.2823,-2.321,-2.3857,-2.4034,-2.4008,-2.4302,-2.4345,-2.4518,-2.4691,-2.4865,-2.4811,-2.4784,-2.4894,-2.4951,-2.491,-2.4706,-2.4394,-2.3838,-2.3351,-2.3513,-2.3526,-2.4226,-2.4003,-2.3482,-2.3142,-2.3183,-2.3105,-2.3568,-2.3893,-2.4312,-2.4959,-2.5502,-2.0886,-2.1061,-2.1128,-2.1282,-2.1482,-2.1292,-2.1484,-2.1876,-2.1763,-2.1913,-2.2221,-2.2211,-2.2209,-2.2375,-2.1962,-2.1887,-2.2114,-2.2079,-2.1936,-2.1858,-2.1719,-2.1686,-2.1726,-2.1851,-2.2049,-2.2247,-2.2309,-2.2371,-2.2445,-2.2225,-2.2163,-2.2233,-2.2009,-2.1807,-2.1693,-2.1194,-2.0824,-2.0614,-2.0112,-1.9798,-1.9798,-1.9798,-1.9798,-1.9798,-1.9798,-1.9798,-1.9798,-1.9798,-1.9798,-1.9798,-1.9798,-1.9798,-1.9798,-1.9914,-1.9902,-1.9826,-2.0029,-2.0144,-1.9925,-1.938,-1.8947,-1.8724,-1.8193,-1.8216,-1.8385,-1.886,-1.9083,-1.8952,-1.9537,-1.9368,-1.8862,-1.9028,-1.9375,-1.9701,-2.0403,-2.0658,-2.0086,-2.0325,-2.0782,-2.1313,-2.1865,-2.2421,-2.3936,-2.3914,-2.4365,-2.4786,-2.4786,-2.484,-2.4919,-2.4771,-2.4865,-2.5239,-2.5409,-2.5409,-2.548,-2.5592,-2.6013,-2.5931,-2.5729,-2.5301,-2.4628,-2.404,-2.4069,-2.4464,-2.5203,-2.5488,-2.4763,-2.4212,-2.4184,-2.4359,-2.495,-2.5296,-2.5541,-2.6041,-2.6587,-2.1128,-2.1205,-2.1436,-2.1512,-2.1578,-2.1721,-2.1918,-2.2101,-2.2145,-2.2371,-2.2606,-2.2692,-2.2713,-2.2979,-2.2615,-2.2656,-2.2921,-2.2976,-2.2776,-2.2549,-2.2305,-2.2169,-2.1913,-2.2049,-2.2235,-2.2359,-2.242,-2.2543,-2.2653,-2.2641,-2.2775,-2.2822,-2.2822,-2.2621,-2.2163,-2.1707,-2.1204,-2.0652,-2.01,-1.9811,-1.9798,-1.9811,-1.9861,-1.9999,-1.9999,-1.9987,-1.9936,-1.9874,-1.9823,-1.9911,-1.9925,-2.0015,-2.0027,-2.0207,-2.0156,-2.0117,-2.045,-2.0669,-2.0307,-2.0062,-1.9743,-1.926,-1.9666,-1.966,-1.9448,-2.0084,-2.0471,-2.0163,-2.0689,-2.0662,-2.0461,-2.038,-2.0362,-2.0621,-2.1479,-2.1753,-2.1561,-2.1331,-2.1406,-2.1843,-2.2801,-2.3444,-2.402,-2.4674,-2.5323,-2.6074,-2.5911,-2.5568,-2.5701,-2.5807,-2.594,-2.6221,-2.6253,-2.6145,-2.6217,-2.6349,-2.6903,-2.719,-2.7074,-2.6652,-2.5953,-2.5411,-2.519,-2.5356,-2.5903,-2.5934,-2.5512,-2.5206,-2.5247,-2.558,-2.6174,-2.6194,-2.6247,-2.7045,-2.7643,-2.1339,-2.1436,-2.1512,-2.1578,-2.1731,-2.1949,-2.2025,-2.2101,-2.2402,-2.2628,-2.2703,-2.2852,-2.3001,-2.3001,-2.3165,-2.3363,-2.3469,-2.3639,-2.3494,-2.2946,-2.2843,-2.2597,-2.2258,-2.2247,-2.2309,-2.242,-2.242,-2.2543,-2.2787,-2.2848,-2.2909,-2.303,-2.2992,-2.2815,-2.2347,-2.1845,-2.123,-2.0718,-2.0125,-1.9874,-1.9849,-1.9874,-2.0062,-2.0413,-2.0489,-2.0476,-2.0363,-2.0037,-2.0089,-2.0498,-2.0603,-2.0693,-2.0894,-2.1161,-2.1104,-2.0945,-2.1332,-2.1458,-2.0888,-2.096,-2.1251,-2.1317,-2.0839,-2.0645,-2.0945,-2.1124,-2.1156,-2.0966,-2.1375,-2.1817,-2.1668,-2.1655,-2.1572,-2.1651,-2.2199,-2.2862,-2.3145,-2.2865,-2.2974,-2.3737,-2.4205,-2.4391,-2.4229,-2.5253,-2.6113,-2.7059,-2.6947,-2.6411,-2.6445,-2.6668,-2.6884,-2.7054,-2.7078,-2.6955,-2.7175,-2.7395,-2.8046,-2.8379,-2.8283,-2.7905,-2.714,-2.6759,-2.6481,-2.6403,-2.6467,-2.637,-2.6211,-2.6601,-2.6758,-2.7051,-2.7225,-2.7289,-2.7512,-2.8158,-2.8501,-2.1568,-2.1655,-2.1731,-2.1807,-2.1949,-2.2187,-2.2327,-2.2413,-2.2628,-2.2777,-2.2927,-2.315,-2.3309,-2.3298,-2.3677,-2.397,-2.4146,-2.4202,-2.3831,-2.3224,-2.3071,-2.2856,-2.2579,-2.2494,-2.2482,-2.2604,-2.2665,-2.2787,-2.2957,-2.2957,-2.3017,-2.3078,-2.3125,-2.2952,-2.2673,-2.2146,-2.1782,-2.1368,-2.0614,-2.0213,-2.02,-2.0213,-2.0476,-2.0928,-2.1108,-2.1108,-2.11,-2.0885,-2.1006,-2.1307,-2.1467,-2.144,-2.1462,-2.1774,-2.1983,-2.2388,-2.2108,-2.2482,-2.23,-2.2072,-2.2282,-2.3119,-2.2362,-2.1918,-2.2076,-2.2279,-2.2349,-2.2051,-2.2451,-2.3001,-2.2628,-2.2223,-2.2173,-2.2261,-2.2871,-2.3634,-2.4129,-2.3865,-2.3903,-2.49,-2.5318,-2.5402,-2.57,-2.6215,-2.6777,-2.7677,-2.7798,-2.7296,-2.7225,-2.7422,-2.7575,-2.7699,-2.7748,-2.788,-2.807,-2.8528,-2.926,-2.9493,-2.9402,-2.8884,-2.8213,-2.7983,-2.7798,-2.7753,-2.7668,-2.7277,-2.7195,-2.769,-2.7955,-2.7917,-2.7984,-2.8301,-2.8568,-2.8863,-2.9128,-2.1807,-2.1883,-2.2025,-2.2111,-2.2176,-2.2327,-2.2489,-2.2584,-2.2595,-2.2752,-2.3029,-2.3334,-2.347,-2.3728,-2.4127,-2.449,-2.472,-2.4682,-2.4304,-2.3462,-2.3429,-2.3154,-2.2837,-2.2726,-2.2787,-2.2909,-2.2848,-2.2957,-2.3078,-2.3125,-2.3078,-2.3125,-2.3125,-2.3,-2.2815,-2.2573,-2.2121,-2.182,-2.1179,-2.0731,-2.0665,-2.0769,-2.1134,-2.1562,-2.1675,-2.1787,-2.1792,-2.1733,-2.1801,-2.2108,-2.2337,-2.221,-2.2166,-2.2216,-2.287,-2.3949,-2.3167,-2.3155,-2.3442,-2.321,-2.3145,-2.406,-2.361,-2.3103,-2.284,-2.3213,-2.3377,-2.3428,-2.3492,-2.3728,-2.3292,-2.2932,-2.2616,-2.2776,-2.3573,-2.4313,-2.4848,-2.4697,-2.5152,-2.592,-2.6347,-2.6461,-2.6744,-2.7187,-2.7651,-2.8088,-2.8168,-2.8182,-2.8072,-2.8093,-2.823,-2.8469,-2.8594,-2.9149,-2.9445,-2.9518,-3.028,-3.0582,-3.0541,-3.0108,-2.9549,-2.9753,-2.9693,-2.9139,-2.8877,-2.8478,-2.8182,-2.8404,-2.8556,-2.855,-2.874,-2.9053,-2.9224,-2.9459,-2.9757,-2.1883,-2.2025,-2.2101,-2.2176,-2.2402,-2.2553,-2.2487,-2.2142,-2.2331,-2.2567,-2.2916,-2.2977,-2.3534,-2.4002,-2.449,-2.4909,-2.5087,-2.5187,-2.4828,-2.403,-2.3912,-2.37,-2.3071,-2.2873,-2.2969,-2.3017,-2.2957,-2.2957,-2.3078,-2.3125,-2.3125,-2.3125,-2.3125,-2.2975,-2.2648,-2.2334,-2.2196,-2.197,-2.1531,-2.1192,-2.0991,-2.1247,-2.1744,-2.2293,-2.2414,-2.2471,-2.2483,-2.2232,-2.221,-2.2778,-2.2708,-2.302,-2.3308,-2.3438,-2.3683,-2.3865,-2.3864,-2.3822,-2.3958,-2.3953,-2.3864,-2.406,-2.3968,-2.3929,-2.3767,-2.3865,-2.3936,-2.3975,-2.3988,-2.4119,-2.3936,-2.3675,-2.3991,-2.4266,-2.4447,-2.4909,-2.5994,-2.6385,-2.6411,-2.7129,-2.7392,-2.751,-2.7626,-2.7769,-2.8072,-2.8298,-2.8403,-2.8444,-2.8363,-2.8566,-2.8821,-2.9122,-2.942,-3.017,-3.091,-3.0881,-3.1172,-3.1641,-3.1713,-3.1698,-3.1433,-3.1787,-3.1673,-3.0708,-3.0083,-2.9648,-2.948,-2.9354,-2.9326,-2.9376,-2.9552,-2.9744,-2.9993,-3.0292,-3.0479,-2.2025,-2.2101,-2.2327,-2.2478,-2.2553,-2.2777,-2.2733,-2.2557,-2.2556,-2.2661,-2.2925,-2.329,-2.3675,-2.4166,-2.4826,-2.5051,-2.5175,-2.5578,-2.5191,-2.4484,-2.4304,-2.4087,-2.3467,-2.3205,-2.3042,-2.3078,-2.3017,-2.303,-2.3078,-2.3125,-2.3125,-2.3125,-2.3125,-2.2987,-2.2811,-2.2761,-2.2585,-2.2297,-2.2046,-2.1794,-2.1531,-2.1876,-2.2426,-2.289,-2.3102,-2.3173,-2.3309,-2.3212,-2.3192,-2.3488,-2.348,-2.372,-2.3955,-2.4028,-2.4015,-2.4112,-2.4125,-2.4125,-2.4125,-2.4125,-2.4099,-2.4112,-2.4125,-2.4125,-2.4125,-2.4054,-2.4138,-2.4269,-2.4792,-2.4739,-2.4145,-2.4151,-2.44,-2.4936,-2.538,-2.6096,-2.6773,-2.732,-2.7731,-2.7986,-2.7971,-2.7996,-2.8128,-2.8285,-2.8481,-2.8587,-2.8587,-2.8587,-2.8587,-2.8944,-2.931,-2.9842,-3.0254,-3.0911,-3.158,-3.1652,-3.1667,-3.212,-3.2398,-3.2398,-3.2398,-3.2351,-3.2259,-3.1805,-3.1274,-3.0658,-3.0346,-3.0072,-3.0107,-3.0208,-3.032,-3.0514,-3.0829,-3.1064,-3.1334,-2.2176,-2.2252,-2.2553,-2.2703,-2.2777,-2.3001,-2.3084,-2.3014,-2.295,-2.3007,-2.3137,-2.3712,-2.4107,-2.4435,-2.4895,-2.5235,-2.5078,-2.5763,-2.5469,-2.4892,-2.476,-2.4553,-2.4092,-2.3753,-2.3441,-2.3353,-2.3328,-2.3238,-2.3138,-2.3125,-2.3125,-2.3138,-2.3138,-2.3138,-2.316,-2.317,-2.3198,-2.3072,-2.282,-2.2543,-2.2589,-2.2642,-2.2949,-2.3577,-2.3616,-2.3734,-2.3813,-2.3833,-2.3865,-2.3975,-2.4047,-2.4099,-2.4112,-2.4112,-2.4112,-2.4125,-2.4125,-2.4125,-2.4125,-2.4125,-2.4125,-2.4125,-2.4125,-2.4178,-2.4256,-2.4295,-2.4269,-2.4635,-2.5132,-2.5458,-2.4739,-2.4269,-2.457,-2.5406,-2.653,-2.7459,-2.7497,-2.7809,-2.819,-2.8379,-2.8379,-2.843,-2.8495,-2.8444,-2.8587,-2.8587,-2.8587,-2.8587,-2.8716,-2.9247,-2.9718,-3.051,-3.1102,-3.158,-3.2007,-3.216,-3.2176,-3.2287,-3.2398,-3.2398,-3.2398,-3.2398,-3.2305,-3.2228,-3.2006,-3.1458,-3.1093,-3.0871,-3.0974,-3.1009,-3.106,-3.1315,-3.1809,-3.2065,-3.2206,-2.2327,-2.2628,-2.2703,-2.2777,-2.3001,-2.3372,-2.3274,-2.2999,-2.3276,-2.356,-2.377,-2.399,-2.4423,-2.5049,-2.538,-2.5627,-2.5767,-2.5938,-2.5878,-2.5319,-2.5315,-2.5106,-2.4782,-2.4682,-2.4205,-2.3916,-2.3853,-2.3577,-2.3301,-2.3188,-2.3138,-2.3138,-2.3271,-2.339,-2.333,-2.339,-2.3556,-2.3497,-2.342,-2.3369,-2.3352,-2.3007,-2.3264,-2.3664,-2.3878,-2.3936,-2.3995,-2.4067,-2.4067,-2.4125,-2.4125,-2.4125,-2.4125,-2.4125,-2.4125,-2.4125,-2.4125,-2.4125,-2.4125,-2.4125,-2.4125,-2.4125,-2.4125,-2.4387,-2.4779,-2.4648,-2.4792,-2.6059,-2.6059,-2.5772,-2.538,-2.4766,-2.504,-2.5887,-2.7013,-2.7657,-2.7984,-2.8072,-2.8495,-2.8766,-2.8739,-2.8753,-2.8766,-2.8638,-2.8587,-2.8587,-2.8587,-2.8651,-2.9008,-2.978,-3.0375,-3.116,-3.158,-3.2064,-3.2176,-3.2398,-3.2444,-3.2428,-3.2552,-3.2521,-3.2459,-3.249,-3.2459,-3.2351,-3.2261,-3.2129,-3.175,-3.1622,-3.1779,-3.1883,-3.1934,-3.2415,-3.2956,-3.3103,-3.2956,-2.2553,-2.2703,-2.2852,-2.3075,-2.3372,-2.353,-2.3627,-2.3689,-2.3757,-2.3839,-2.4048,-2.4174,-2.4749,-2.5451,-2.5758,-2.598,-2.6131,-2.627,-2.6214,-2.589,-2.5774,-2.5485,-2.5222,-2.4958,-2.4619,-2.4443,-2.4205,-2.4015,-2.37,-2.3397,-2.3258,-2.3378,-2.345,-2.3509,-2.3509,-2.3569,-2.3569,-2.3556,-2.3616,-2.37,-2.3695,-2.3612,-2.3632,-2.3995,-2.3995,-2.4054,-2.4067,-2.4125,-2.4125,-2.4125,-2.4125,-2.4125,-2.4125,-2.4125,-2.4125,-2.4125,-2.4125,-2.4125,-2.4125,-2.4125,-2.4164,-2.4151,-2.4282,-2.4792,-2.572,-2.5667,-2.5367,-2.6269,-2.6661,-2.6504,-2.6177,-2.602,-2.6112,-2.6647,-2.7458,-2.7801,-2.8235,-2.8444,-2.8638,-2.8881,-2.9184,-2.9247,-2.9247,-2.9008,-2.9008,-2.9184,-2.9324,-2.9477,-3.0054,-3.0911,-3.145,-3.1879,-3.212,-3.2342,-3.2342,-3.2398,-3.2505,-3.2598,-3.3029,-3.2936,-3.2659,-3.2598,-3.2736,-3.2669,-3.2477,-3.24,-3.2338,-3.2367,-3.2478,-3.2631,-3.2798,-3.3119,-3.3356,-3.3293,-3.3261,-2.2852,-2.2927,-2.3086,-2.3309,-2.3593,-2.3813,-2.4043,-2.4288,-2.4355,-2.4388,-2.4446,-2.4747,-2.5184,-2.5673,-2.6062,-2.6213,-2.627,-2.6465,-2.6452,-2.6289,-2.6143,-2.5929,-2.5791,-2.5501,-2.5187,-2.4949,-2.4697,-2.4327,-2.4007,-2.3764,-2.3569,-2.3616,-2.3641,-2.37,-2.37,-2.376,-2.3747,-2.3747,-2.3747,-2.3819,-2.3923,-2.3936,-2.3969,-2.4067,-2.4125,-2.4125,-2.4125,-2.4125,-2.4125,-2.4125,-2.4125,-2.4125,-2.4125,-2.4125,-2.4125,-2.4125,-2.4125,-2.4125,-2.4191,-2.4269,-2.4374,-2.4543,-2.4831,-2.5667,-2.6896,-2.6661,-2.6321,-2.6765,-2.7092,-2.6935,-2.6674,-2.704,-2.7079,-2.7339,-2.7889,-2.8179,-2.8495,-2.8931,-2.9184,-2.9373,-2.967,-3.0086,-2.9979,-2.956,-2.9484,-2.9718,-2.9917,-3.0309,-3.1087,-3.2034,-3.2235,-3.2594,-3.241,-3.2628,-3.2875,-3.2813,-3.2782,-3.2952,-3.3383,-3.3521,-3.3336,-3.3332,-3.3439,-3.3234,-3.3113,-3.3286,-3.3552,-3.3388,-3.315,-3.3077,-3.3119,-3.334,-3.3498,-3.3498,-3.3414,-2.3224,-2.3519,-2.353,-2.3593,-2.3677,-2.4418,-2.4718,-2.479,-2.5052,-2.5204,-2.5402,-2.5673,-2.5812,-2.6094,-2.6126,-2.6252,-2.644,-2.6452,-2.6445,-2.6445,-2.6471,-2.6438,-2.6418,-2.6266,-2.6003,-2.5371,-2.509,-2.4677,-2.4193,-2.4128,-2.385,-2.3628,-2.3857,-2.3832,-2.3878,-2.3936,-2.3995,-2.3995,-2.3995,-2.3995,-2.4054,-2.4067,-2.4067,-2.4125,-2.4125,-2.4125,-2.4125,-2.4125,-2.4125,-2.4125,-2.4125,-2.4125,-2.4125,-2.4125,-2.4125,-2.4125,-2.4125,-2.4125,-2.4178,-2.457,-2.5118,-2.5628,-2.6086,-2.6478,-2.7353,-2.751,-2.7406,-2.7301,-2.7445,-2.7445,-2.734,-2.7471,-2.7551,-2.7854,-2.8153,-2.8542,-2.8994,-2.9718,-2.9979,-2.9993,-3.0222,-3.0689,-3.1176,-3.0848,-3.0355,-3.0507,-3.1114,-3.1516,-3.2212,-3.2997,-3.2982,-3.3049,-3.2798,-3.2952,-3.3521,-3.3583,-3.3567,-3.3844,-3.4275,-3.4306,-3.4198,-3.4241,-3.4426,-3.455,-3.4571,-3.4701,-3.4657,-3.4195,-3.3817,-3.3429,-3.3451,-3.3909,-3.4146,-3.4225,-3.3864,-2.3446,-2.3666,-2.4116,-2.4345,-2.4345,-2.4646,-2.4921,-2.5123,-2.5394,-2.5606,-2.5758,-2.598,-2.6144,-2.6126,-2.5915,-2.587,-2.5937,-2.5925,-2.5963,-2.6143,-2.6337,-2.662,-2.6726,-2.6693,-2.6521,-2.5845,-2.5525,-2.5318,-2.4942,-2.4611,-2.4541,-2.445,-2.4177,-2.4034,-2.4067,-2.4067,-2.4125,-2.4125,-2.4125,-2.4125,-2.4125,-2.4125,-2.4125,-2.4125,-2.4125,-2.4125,-2.4125,-2.4125,-2.4125,-2.4125,-2.4125,-2.4125,-2.4125,-2.4125,-2.4125,-2.4125,-2.4125,-2.4125,-2.4256,-2.4674,-2.521,-2.5785,-2.6334,-2.6922,-2.7471,-2.7456,-2.7469,-2.7456,-2.7536,-2.7536,-2.7643,-2.7577,-2.7643,-2.8039,-2.856,-2.9008,-2.9498,-3.0283,-3.0644,-3.0598,-3.094,-3.1349,-3.185,-3.2352,-3.1794,-3.1411,-3.2077,-3.273,-3.3368,-3.3798,-3.3814,-3.3737,-3.3444,-3.3383,-3.3937,-3.4152,-3.4321,-3.4737,-3.5137,-3.5074,-3.5027,-3.5537,-3.5721,-3.5854,-3.5915,-3.5875,-3.5628,-3.4967,-3.4581,-3.4352,-3.4431,-3.4747,-3.4889,-3.4968,-3.4605,-2.3751,-2.4043,-2.4562,-2.4801,-2.4801,-2.4933,-2.5123,-2.5394,-2.5535,-2.5758,-2.598,-2.6201,-2.627,-2.6202,-2.6033,-2.59,-2.5963,-2.6005,-2.5967,-2.6186,-2.6549,-2.6782,-2.693,-2.687,-2.6709,-2.6142,-2.5987,-2.5753,-2.487,-2.5123,-2.4888,-2.4648,-2.4504,-2.436,-2.4125,-2.4125,-2.4125,-2.4125,-2.4125,-2.4125,-2.4125,-2.4125,-2.4125,-2.4125,-2.4125,-2.4125,-2.4125,-2.4125,-2.4125,-2.4125,-2.4125,-2.4125,-2.4125,-2.4125,-2.4125,-2.4125,-2.4125,-2.4125,-2.4321,-2.5197,-2.5837,-2.6478,-2.6726,-2.717,-2.7406,-2.7469,-2.7469,-2.7469,-2.7536,-2.7669,-2.7921,-2.7855,-2.8026,-2.8532,-2.9936,-3.0495,-3.0329,-3.0763,-3.1014,-3.1204,-3.1715,-3.2273,-3.2646,-3.32,-3.3343,-3.2806,-3.2755,-3.3462,-3.4176,-3.4506,-3.4537,-3.4414,-3.4214,-3.4229,-3.4337,-3.4568,-3.4904,-3.5581,-3.5859,-3.5735,-3.5859,-3.6322,-3.6708,-3.6745,-3.6751,-3.6959,-3.6674,-3.6169,-3.5742,-3.5331,-3.5473,-3.56,-3.5631,-3.5679,-3.56,-2.4043,-2.4729,-2.479,-2.4801,-2.4861,-2.5182,-2.5394,-2.5535,-2.5618,-2.584,-2.6201,-2.6396,-2.6452,-2.6414,-2.6251,-2.6219,-2.6231,-2.6418,-2.643,-2.6498,-2.6815,-2.7053,-2.7201,-2.7152,-2.6881,-2.6192,-2.6101,-2.5735,-2.4523,-2.5432,-2.5223,-2.4792,-2.4792,-2.4583,-2.4164,-2.4138,-2.4138,-2.4125,-2.4125,-2.4125,-2.4217,-2.4191,-2.4125,-2.4256,-2.4151,-2.4125,-2.4125,-2.4125,-2.4125,-2.4125,-2.4125,-2.4125,-2.4125,-2.4125,-2.4125,-2.4125,-2.4178,-2.4204,-2.4295,-2.6269,-2.7079,-2.7196,-2.7275,-2.7419,-2.751,-2.7549,-2.7616,-2.7762,-2.7748,-2.8092,-2.8197,-2.8287,-2.8661,-2.9491,-3.091,-3.1689,-3.15,-3.1677,-3.1985,-3.2327,-3.2871,-3.3387,-3.3602,-3.3983,-3.4478,-3.437,-3.3802,-3.4121,-3.4876,-3.5245,-3.5291,-3.5245,-3.5076,-3.5076,-3.5137,-3.5166,-3.5459,-3.6229,-3.6538,-3.6336,-3.6321,-3.6554,-3.6907,-3.7329,-3.737,-3.7227,-3.7322,-3.7354,-3.6753,-3.62,-3.6279,-3.639,-3.6406,-3.6406,-3.6342,-2.4562,-2.479,-2.5052,-2.5182,-2.5336,-2.5465,-2.5535,-2.5676,-2.5898,-2.6119,-2.6327,-2.6465,-2.6521,-2.6433,-2.6168,-2.603,-2.6152,-2.6101,-2.6168,-2.6458,-2.6966,-2.7175,-2.7348,-2.7311,-2.7039,-2.6634,-2.6569,-2.653,-2.5929,-2.6255,-2.6216,-2.5876,-2.521,-2.4635,-2.4387,-2.4374,-2.4557,-2.4191,-2.4151,-2.4269,-2.4583,-2.4387,-2.4334,-2.4648,-2.4387,-2.4217,-2.4191,-2.4204,-2.4191,-2.4178,-2.4178,-2.4125,-2.4125,-2.4125,-2.4178,-2.4308,-2.4491,-2.4988,-2.5445,-2.6648,-2.7365,-2.751,-2.7523,-2.7523,-2.7536,-2.8159,-2.8226,-2.8331,-2.8596,-2.9063,-2.9344,-2.9477,-2.9893,-3.0701,-3.1768,-3.2405,-3.2628,-3.2996,-3.3334,-3.3671,-3.4106,-3.4429,-3.4691,-3.4691,-3.5106,-3.543,-3.4953,-3.4799,-3.5353,-3.5861,-3.6091,-3.6091,-3.6014,-3.5984,-3.5953,-3.5829,-3.589,-3.646,-3.6754,-3.6829,-3.6815,-3.6877,-3.7044,-3.7405,-3.7464,-3.748,-3.748,-3.7449,-3.7306,-3.7069,-3.6975,-3.6959,-3.6959,-3.7038,-3.7101,-2.4684,-2.4981,-2.5324,-2.5465,-2.5606,-2.5606,-2.5676,-2.5828,-2.6188,-2.6396,-2.6452,-2.6452,-2.6521,-2.6408,-2.6168,-2.6034,-2.6168,-2.6314,-2.6394,-2.6644,-2.7074,-2.731,-2.7403,-2.743,-2.7157,-2.687,-2.6844,-2.6804,-2.6216,-2.6739,-2.6752,-2.6399,-2.5929,-2.5419,-2.5027,-2.4909,-2.4922,-2.4753,-2.4896,-2.4962,-2.5092,-2.5027,-2.4936,-2.5079,-2.4962,-2.4674,-2.4491,-2.4413,-2.4413,-2.4374,-2.4269,-2.4151,-2.4125,-2.4151,-2.4517,-2.5132,-2.5419,-2.5759,-2.6007,-2.6607,-2.7131,-2.7184,-2.7393,-2.7696,-2.7987,-2.8545,-2.8779,-2.909,-2.967,-3.0241,-3.0553,-3.0754,-3.2044,-3.293,-3.2706,-3.3363,-3.3511,-3.3863,-3.4245,-3.4583,-3.486,-3.5245,-3.5599,-3.5599,-3.5676,-3.5907,-3.6076,-3.5938,-3.5768,-3.6153,-3.6492,-3.6461,-3.6445,-3.6322,-3.6338,-3.6476,-3.6569,-3.6769,-3.6923,-3.7044,-3.7181,-3.7181,-3.7361,-3.7421,-3.748,-3.748,-3.748,-3.7433,-3.7354,-3.7354,-3.7354,-3.737,-3.748,-3.748,-3.748,-2.4517,-2.5228,-2.5499,-2.5545,-2.5569,-2.5652,-2.591,-2.6201,-2.6408,-2.6521,-2.6521,-2.6521,-2.6521,-2.6533,-2.662,-2.665,-2.6761,-2.7056,-2.7111,-2.7258,-2.7377,-2.7469,-2.7469,-2.7443,-2.7262,-2.7105,-2.7066,-2.6987,-2.6164,-2.6883,-2.7118,-2.6844,-2.6543,-2.6177,-2.5824,-2.555,-2.5445,-2.5458,-2.5484,-2.5589,-2.5733,-2.5694,-2.5667,-2.572,-2.5628,-2.5328,-2.5132,-2.5001,-2.4988,-2.4844,-2.457,-2.4308,-2.4164,-2.4164,-2.5589,-2.6569,-2.6648,-2.6373,-2.6293,-2.6972,-2.7229,-2.7504,-2.7681,-2.8193,-2.8719,-2.908,-2.9284,-2.9812,-3.0409,-3.1229,-3.1841,-3.3502,-3.511,-3.4834,-3.4145,-3.4248,-3.4248,-3.4522,-3.4922,-3.5214,-3.5414,-3.5753,-3.6122,-3.6215,-3.603,-3.6184,-3.6322,-3.6307,-3.6184,-3.623,-3.6492,-3.6492,-3.6476,-3.6476,-3.66,-3.6723,-3.6846,-3.6968,-3.7089,-3.721,-3.7345,-3.7421,-3.748,-3.748,-3.748,-3.748,-3.748,-3.748,-3.7464,-3.748,-3.748,-3.748,-3.748,-3.748,-3.748,-2.4073,-2.4444,-2.4876,-2.5171,-2.5438,-2.6015,-2.6327,-2.6396,-2.6465,-2.6521,-2.6521,-2.6521,-2.6602,-2.6658,-2.6645,-2.6863,-2.7066,-2.7268,-2.7323,-2.7403,-2.7469,-2.7469,-2.7469,-2.7523,-2.7392,-2.7379,-2.7366,-2.734,-2.7144,-2.7523,-2.7497,-2.7288,-2.6909,-2.6791,-2.67,-2.6452,-2.6164,-2.5968,-2.5981,-2.6151,-2.6229,-2.6138,-2.6203,-2.6295,-2.6125,-2.5837,-2.5654,-2.5641,-2.5628,-2.5484,-2.5529,-2.5274,-2.4151,-2.487,-2.6138,-2.7223,-2.7275,-2.721,-2.7353,-2.7873,-2.8207,-2.8441,-2.8933,-2.9024,-2.938,-2.961,-2.9946,-3.056,-3.1219,-3.2035,-3.3096,-3.4668,-3.5769,-3.5553,-3.4999,-3.486,-3.4891,-3.5153,-3.5537,-3.5799,-3.5999,-3.6061,-3.6461,-3.6461,-3.6307,-3.643,-3.6492,-3.6492,-3.6492,-3.6492,-3.6492,-3.6492,-3.6492,-3.6476,-3.6677,-3.68,-3.6968,-3.715,-3.727,-3.7329,-3.7405,-3.748,-3.748,-3.748,-3.748,-3.748,-3.748,-3.748,-3.748,-3.748,-3.748,-3.748,-3.748,-3.748,-3.748,-2.3765,-2.4049,-2.4475,-2.4945,-2.5485,-2.6214,-2.6521,-2.6521,-2.6521,-2.6521,-2.6533,-2.6602,-2.6658,-2.6714,-2.685,-2.7066,-2.7268,-2.7335,-2.7403,-2.7469,-2.7469,-2.7469,-2.7469,-2.7469,-2.751,-2.7469,-2.7469,-2.7484,-2.7469,-2.7469,-2.751,-2.7471,-2.7105,-2.7315,-2.7341,-2.7223,-2.7051,-2.679,-2.6673,-2.6726,-2.67,-2.6648,-2.6804,-2.6817,-2.6556,-2.6412,-2.6293,-2.6358,-2.6501,-2.6314,-2.6396,-2.6211,-2.5572,-2.6469,-2.6852,-2.7762,-2.7776,-2.7973,-2.8244,-2.8657,-2.9093,-2.954,-3.0254,-3.0592,-3.0392,-3.0492,-3.0863,-3.1306,-3.2109,-3.2961,-3.4091,-3.5171,-3.5569,-3.5922,-3.5691,-3.546,-3.5614,-3.5814,-3.6091,-3.6353,-3.6445,-3.643,-3.6492,-3.6492,-3.6492,-3.6492,-3.6492,-3.6492,-3.6492,-3.6492,-3.6492,-3.6492,-3.6492,-3.6476,-3.6677,-3.6877,-3.6984,-3.7165,-3.7345,-3.7405,-3.748,-3.748,-3.748,-3.748,-3.748,-3.748,-3.748,-3.748,-3.748,-3.748,-3.748,-3.748,-3.748,-3.748,-3.748,-2.3429,-2.3932,-2.4369,-2.495,-2.5636,-2.6214,-2.6521,-2.6521,-2.6533,-2.6533,-2.6521,-2.6645,-2.6714,-2.685,-2.7066,-2.7268,-2.7335,-2.739,-2.7469,-2.7469,-2.7469,-2.7469,-2.7469,-2.7469,-2.7469,-2.7469,-2.7469,-2.7469,-2.7469,-2.7469,-2.7469,-2.7469,-2.7484,-2.7497,-2.7604,-2.7644,-2.7551,-2.7577,-2.7433,-2.7459,-2.7446,-2.7458,-2.7523,-2.7471,-2.7433,-2.7394,-2.7274,-2.7392,-2.7696,-2.7189,-2.7037,-2.713,-2.7581,-2.7851,-2.8025,-2.813,-2.8183,-2.8365,-2.8908,-2.9485,-2.9602,-3.0221,-3.1134,-3.2014,-3.2147,-3.118,-3.1307,-3.239,-3.3185,-3.3819,-3.4866,-3.563,-3.6138,-3.6245,-3.6122,-3.5999,-3.6091,-3.6215,-3.6292,-3.6492,-3.6492,-3.6492,-3.6492,-3.6492,-3.6492,-3.6492,-3.6492,-3.6492,-3.6492,-3.6492,-3.6492,-3.6492,-3.6492,-3.6554,-3.6739,-3.6877,-3.7015,-3.7181,-3.7361,-3.7421,-3.748,-3.748,-3.748,-3.748,-3.748,-3.748,-3.748,-3.748,-3.748,-3.748,-3.748,-3.748,-3.748,-3.748,-3.748,-2.2936,-2.317,-2.4265,-2.5056,-2.5636,-2.6214,-2.6508,-2.6533,-2.6589,-2.6633,-2.6726,-2.6875,-2.6998,-2.7121,-2.7201,-2.7335,-2.7469,-2.7456,-2.7469,-2.7469,-2.7469,-2.7469,-2.7469,-2.7469,-2.7469,-2.7469,-2.7469,-2.7469,-2.7469,-2.7469,-2.7469,-2.7469,-2.7536,-2.759,-2.7669,-2.7789,-2.7921,-2.8,-2.8,-2.7881,-2.7828,-2.7881,-2.7947,-2.7881,-2.7829,-2.7894,-2.7801,-2.7919,-2.8012,-2.7799,-2.7862,-2.8072,-2.8468,-2.8249,-2.8262,-2.8457,-2.8725,-2.8776,-2.9331,-3.0278,-3.0884,-3.1304,-3.2228,-3.3397,-3.3532,-3.2124,-3.199,-3.3305,-3.4286,-3.4864,-3.5322,-3.5998,-3.6492,-3.6492,-3.6492,-3.6492,-3.6492,-3.6492,-3.6492,-3.6492,-3.6492,-3.6492,-3.6492,-3.6492,-3.6492,-3.6492,-3.6492,-3.6492,-3.6492,-3.6492,-3.6492,-3.6492,-3.6492,-3.6554,-3.6754,-3.6877,-3.7015,-3.7197,-3.7421,-3.748,-3.748,-3.748,-3.748,-3.748,-3.748,-3.748,-3.748,-3.748,-3.748,-3.748,-3.748,-3.748,-3.748,-3.748,-3.748,-2.2775,-2.2935,-2.3954,-2.477,-2.5259,-2.5665,-2.6123,-2.6569,-2.6608,-2.67,-2.6985,-2.7079,-2.7214,-2.7335,-2.7335,-2.7403,-2.7469,-2.7469,-2.7469,-2.7469,-2.7469,-2.7469,-2.7469,-2.7469,-2.7469,-2.7469,-2.7469,-2.7469,-2.7469,-2.7469,-2.7469,-2.7536,-2.759,-2.7669,-2.7736,-2.7921,-2.8039,-2.8183,-2.8262,-2.821,-2.8171,-2.8171,-2.8092,-2.8027,-2.8092,-2.8145,-2.8197,-2.8262,-2.8341,-2.8327,-2.8312,-2.8363,-2.8509,-2.8457,-2.8766,-2.9184,-2.9407,-2.9393,-3.0088,-3.1093,-3.2303,-3.29,-3.3321,-3.4486,-3.5155,-3.403,-3.3637,-3.4802,-3.5307,-3.5859,-3.5782,-3.6275,-3.6476,-3.6492,-3.6492,-3.6492,-3.6492,-3.6492,-3.6492,-3.6492,-3.6492,-3.6492,-3.6492,-3.6492,-3.6492,-3.6492,-3.6492,-3.6492,-3.6492,-3.6492,-3.6492,-3.6492,-3.6492,-3.6492,-3.6631,-3.6816,-3.7015,-3.7241,-3.7421,-3.748,-3.748,-3.748,-3.748,-3.748,-3.748,-3.748,-3.748,-3.748,-3.748,-3.748,-3.748,-3.748,-3.748,-3.7496,-3.7543,-2.2884,-2.2946,-2.3704,-2.4268,-2.4707,-2.5037,-2.5737,-2.6489,-2.6672,-2.6907,-2.7297,-2.7403,-2.7403,-2.7403,-2.7469,-2.7469,-2.7469,-2.7469,-2.7469,-2.7469,-2.7469,-2.7469,-2.7469,-2.7469,-2.7469,-2.7469,-2.7469,-2.7469,-2.7469,-2.7523,-2.7523,-2.759,-2.7723,-2.7868,-2.8066,-2.8249,-2.8314,-2.8392,-2.8471,-2.8549,-2.8433,-2.8302,-2.8237,-2.8237,-2.8237,-2.8262,-2.8379,-2.8509,-2.8587,-2.8587,-2.8522,-2.8587,-2.9279,-2.9553,-3.0199,-3.0649,-3.0678,-3.0675,-3.1055,-3.2229,-3.3501,-3.4392,-3.4835,-3.5263,-3.5919,-3.5856,-3.552,-3.5705,-3.6213,-3.6383,-3.6305,-3.6305,-3.6414,-3.6492,-3.6492,-3.6492,-3.6492,-3.6492,-3.6492,-3.6492,-3.6492,-3.6492,-3.6492,-3.6492,-3.6492,-3.6492,-3.6492,-3.6492,-3.6492,-3.6492,-3.6492,-3.6554,-3.6554,-3.6554,-3.6631,-3.6816,-3.706,-3.7241,-3.7421,-3.748,-3.748,-3.748,-3.748,-3.748,-3.748,-3.748,-3.748,-3.748,-3.748,-3.748,-3.748,-3.748,-3.748,-3.7512,-3.7622,-2.3078,-2.3115,-2.3753,-2.4129,-2.4456,-2.5306,-2.5917,-2.6398,-2.7459,-2.7762,-2.7564,-2.7973,-2.8039,-2.7469,-2.7469,-2.7469,-2.7469,-2.7469,-2.7469,-2.7469,-2.7469,-2.7469,-2.7469,-2.7469,-2.7469,-2.7469,-2.7536,-2.7523,-2.7523,-2.7523,-2.759,-2.7789,-2.7789,-2.7921,-2.8079,-2.8262,-2.8365,-2.8457,-2.8603,-2.8709,-2.8682,-2.8603,-2.8511,-2.8511,-2.8511,-2.8536,-2.8522,-2.8587,-2.8587,-2.8587,-2.8651,-2.8651,-2.9519,-3.0974,-3.2105,-3.2302,-3.2364,-3.1792,-3.2228,-3.3578,-3.4865,-3.563,-3.5891,-3.5953,-3.6321,-3.6321,-3.6152,-3.6152,-3.6476,-3.6476,-3.6414,-3.6414,-3.6492,-3.6492,-3.6492,-3.6492,-3.6492,-3.6492,-3.6492,-3.6492,-3.6492,-3.6492,-3.6492,-3.6492,-3.6492,-3.6492,-3.6492,-3.6492,-3.6492,-3.6492,-3.6492,-3.6554,-3.6616,-3.6754,-3.6877,-3.6877,-3.706,-3.7301,-3.7421,-3.748,-3.748,-3.748,-3.748,-3.748,-3.748,-3.748,-3.748,-3.748,-3.748,-3.748,-3.748,-3.748,-3.7539,-3.7512,-3.7622]},{"header":{"parameterUnit":"m.s-1","parameterCategory":1,"la1":31.0,"la2":29.5877,"lo1":-88.7671,"lo2":-86.6584,"dy":0.0162,"dx":0.0185,"nx":115,"ny":88,"refTime":"2026-05-08T12:00:00:Z","depth":0,"parameterNumber":3,"parameterNumberName":"V-component_of_WINDS"},"data":[0.0,0.0,0.0,0.0,0.0,0.0,0.0,0.0,0.0,0.0,0.0,0.0,0.0,0.0,0.0,0.0,0.0,0.0,0.0,0.0,0.0,0.0,0.0,0.0,0.0,0.0,0.0,0.0,0.0,0.0,0.0,0.0,0.0,0.0,0.0,0.0,0.0,0.0,0.0,0.0,0.0,0.0,0.0,0.0,0.0,0.0,0.0,0.0,0.0,0.0,0.0,0.0,0.0,0.0,0.0,0.0,0.0,0.0,0.0,0.0,0.0,0.0,0.0,0.0,0.0,0.0,0.0,0.0,0.0,0.0,0.0,0.0,0.0,0.0,0.0,0.0,0.0,0.0,0.0,0.0,0.0,0.0,0.0,0.0,0.0,0.0,0.0,0.0,0.0,0.0,0.0,0.0,0.0,0.0,0.0,0.0,0.0,0.0,0.0,0.0,0.0,0.0,0.0,0.0,0.0,0.0,0.0,0.0,0.0,0.0,0.0,0.0,0.0,0.0,0.0,0.0,0.0,0.0,0.0,0.0,0.0,0.0,0.0,0.0,0.0,0.0,0.0,0.0,0.0,0.0,0.0,0.0,0.0,0.0,0.0,0.0,0.0,0.0,0.0,0.0,0.0,0.0,0.0,0.0,0.0,0.0,0.0,0.0,0.0,0.0,0.0,0.0,0.0,0.0,0.0,0.0,0.0,0.0,0.0,0.0,0.0,0.0,0.0,0.0,0.0,0.0,0.0,0.0,0.0,0.0,0.0,0.0,0.0,0.0,0.0,0.0,0.0,0.0,0.0,0.0,0.0,0.0,0.0,0.0,0.0,0.0,0.0,0.0,0.0,0.0,0.0,0.0,0.0,0.0,0.0,0.0,0.0,0.0,0.0,0.0,0.0,0.0,0.0,0.0,0.0,0.0,0.0,0.0,0.0,0.0,0.0,0.0,0.0,0.0,0.0,0.0,0.0,0.0,0.0,0.0,0.0,0.0,0.0,0.0,0.0,0.0,0.0,0.0,0.0,0.0,0.0,0.0,0.0,0.0,0.0,0.0,0.0,0.0,0.0,0.0,0.0,0.0,0.0,0.0,0.0,0.0,0.0,0.0,0.0,0.0,0.0,0.0,0.0,0.0,0.0,0.0,0.0,0.0,0.0,0.0,0.0,0.0,0.0,0.0,0.0,0.0,0.0,0.0,0.0,0.0,0.0,0.0,0.0,0.0,0.0,0.0,0.0,0.0,0.0,0.0,0.0,0.0,0.0,0.0,0.0,0.0,0.0,0.0,0.0,0.0,0.0,0.0,0.0,0.0,0.0,0.0,0.0,0.0,0.0,0.0,0.0,0.0,0.0,0.0,0.0,0.0,0.0,0.0,0.0,0.0,0.0,0.0,0.0,0.0,0.0,0.0,0.0,0.0,0.0,0.0,0.0,0.0,0.0,0.0,0.0,0.0,0.0,0.0,0.0,0.0,0.0,0.0,0.0,0.0,0.0,0.0,0.0,0.0,0.0,0.0,0.0,0.0,0.0,0.0,0.0,0.0,0.0,0.0,0.0,0.0,0.0,0.0,0.0,0.0,0.0,0.0,0.0,0.0,0.0,0.0,0.0,0.0,0.0,0.0,0.0,0.0,0.0,0.0,0.0,0.0,0.0,0.0,0.0,0.0,0.0,0.0,0.0,0.0,0.0,0.0,0.0,0.0,0.0,0.0,0.0,0.0,0.0,0.0,0.0,0.0,0.0,0.0,0.0,0.0,0.0,0.0,0.0,0.0,0.0,0.0,0.0,0.0,0.0,0.0,0.0,0.0,0.0,0.0,0.0,0.0,0.0,0.0,0.0,0.0,0.0,0.0,0.0,0.0,0.0,0.0,0.0,0.0,0.0,0.0,0.0,0.0,0.0,0.0,0.0,0.0,0.0,0.0,0.0,0.0,0.0,0.0,0.0,0.0,0.0,0.0,0.0,0.0,0.0,0.0,0.0,0.0,0.0,0.0,0.0,0.0,0.0,0.0,0.0,0.0,0.0,0.0,0.0,0.0,0.0,0.0,0.0,0.0,0.0,0.0,0.0,0.0,0.0,0.0,0.0,0.0,0.0,0.0,0.0,0.0,0.0,0.0,0.0,0.0,0.0,0.0,0.0,0.0,0.0,0.0,0.0,0.0,0.0,0.0,0.0,0.0,0.0,0.0,0.0,0.0,0.0,0.0,0.0,0.0,0.0,0.0,0.0,0.0,0.0,0.0,0.0,0.0,0.0,0.0,0.0,0.0,0.0,0.0,0.0,0.0,0.0,0.0,0.0,0.0,0.0,0.0,0.0,0.0,0.0,0.0,0.0,0.0,0.0,0.0,0.0,0.0,0.0,0.0,0.0,0.0,0.0,0.0,0.0,0.0,0.0,0.0,0.0,0.0,0.0,0.0,0.0,0.0,0.0,0.0,0.0,0.0,0.0,0.0,0.0,0.0,0.0,0.0,0.0,0.0,0.0,0.0,0.0,0.0,0.0,0.0,0.0,0.0,0.0,0.0,0.0,0.0,0.0,0.0,0.0,0.0,0.0,0.0,0.0,0.0,0.0,0.0,0.0,0.0,0.0,0.0,0.0,0.0,0.0,0.0,0.0,0.0,0.0,0.0,0.0,0.0,0.0,0.0,0.0,0.0,0.0,0.0,0.0,0.0,0.0,0.0,0.0,0.0,0.0,0.0,0.0,0.0,0.0,0.0,0.0,0.0,0.0,0.0,0.0,0.0,0.0,0.0,0.0,0.0,0.0,0.0,0.0,0.0,0.0,0.0,0.0,0.0,0.0,0.0,0.0,0.0,0.0,0.0,0.0,0.0,0.0,0.0,0.0,0.0,0.0,0.0,0.0,0.0,0.0,0.0,0.0,0.0,0.0,0.0,0.0,0.0,0.0,0.0,0.0,0.0,0.0,0.0,0.0,0.0,0.0,0.0,0.0,0.0,0.0,0.0,0.0,0.0,0.0,0.0,0.0,0.0,0.0,0.0,0.0,0.0,0.0,0.0,0.0,0.0,0.0,0.0,0.0,0.0,0.0,0.0,0.0,0.0,0.0,0.0,0.0,0.0,0.0,0.0,0.0,0.0,0.0,0.0,0.0,0.0,0.0,0.0,0.0,0.0,0.0,0.0,0.0,0.0,0.0,0.0,0.0,0.0,0.0,0.0,0.0,0.0,0.0,0.0,0.0,0.0,0.0,0.0,0.0,0.0,0.0,0.0,0.0,0.0,0.0,0.0,0.0,0.0,0.0,0.0,0.0,0.0,0.0,0.0,0.0,0.0,0.0,0.0,0.0,0.0,0.0,0.0,0.0,0.0,0.0,0.0,0.0,0.0,0.0,0.0,0.0,0.0,0.0,0.0,0.0,0.0,0.0,0.0,0.0,0.0,0.0,0.0,0.0,0.0,0.0,0.0,0.0,0.0,0.0,0.0,0.0,0.0,0.0,0.0,0.0,0.0,0.0,0.0,0.0,0.0,0.0,0.0,0.0,0.0,0.0,0.0,0.0,0.0,0.0,0.0,0.0,0.0,0.0,0.0,0.0,0.0,0.0,0.0,0.0,0.0,0.0,0.0,0.0,0.0,0.0,0.0,0.0,0.0,0.0,0.0,0.0,0.0,0.0,0.0,0.0,0.0,0.0,0.0,0.0,0.0,0.0,0.0,0.0,0.0,0.0,0.0,0.0,0.0,0.0,0.0,0.0,0.0,0.0,0.0,0.0,0.0,0.0,0.0,0.0,0.0,0.0,0.0,0.0,0.0,0.0,0.0,0.0,0.0,0.0,0.0,0.0,0.0,0.0,0.0,0.0,0.0,0.0,0.0,0.0,0.0,0.0,0.0,0.0,0.0,0.0,0.0,0.0,0.0,0.0,0.0,0.0,0.0,0.0,0.0,0.0,0.0,0.0,0.0,0.0,0.0,0.0,0.0,0.0,0.0,0.0,0.0,0.0,0.0,0.0,0.0,0.0,0.0,0.0,0.0,0.0,0.0,0.0,0.0,0.0,0.0,0.0,0.0,0.0,0.0,0.0,0.0,0.0,0.0,0.0,0.0,0.0,0.0,0.0,0.0,0.0,0.0,0.0,0.0,0.0,0.0,0.0,0.0,0.0,0.0,0.0,0.0,0.0,0.0,0.0,0.0,0.0,0.0,0.0,0.0,0.0,0.0,0.0,0.0,0.0,0.0,0.0,0.0,0.0,0.0,0.0,0.0,0.0,0.0,0.0,0.0,0.0,0.0,0.0,0.0,0.0,0.0,0.0,0.0,0.0,0.0,-0.625,0.0,0.0,0.0,0.0,0.0,0.0,0.0,0.0,0.0,0.0,0.0,0.0,0.0,0.0,0.0,0.0,0.0,0.0,0.0,0.0,0.0,0.0,0.0,0.0,0.0,0.0,0.0,0.0,0.0,0.0,0.0,0.0,0.0,0.0,0.0,0.0,0.0,0.0,0.0,0.0,0.0,0.0,0.0,0.0,0.0,0.0,0.0,0.0,0.0,0.0,0.0,0.0,0.0,0.0,0.0,0.0,0.0,0.0,0.0,0.0,0.0,0.0,0.0,0.0,0.0,0.0,0.0,0.0,0.0,0.0,0.0,0.0,0.0,0.0,0.0,0.0,0.0,0.0,0.0,0.0,0.0,0.0,0.0,0.0,0.0,0.0,0.0,0.0,0.0,0.0,0.0,0.0,0.0,0.0,0.0,0.0,0.0,0.0,0.0,0.0,0.0,0.0,0.0,0.0,0.0,0.0,0.0,0.0,0.0,0.0,-0.4944,-0.4948,-0.4921,-0.5488,-0.6771,0.0,0.0,0.0,0.0,0.0,0.0,0.0,0.0,0.0,0.0,0.0,0.0,0.0,0.0,0.0,0.0,0.0,0.0,0.0,0.0,0.0,0.0,0.0,0.0,0.0,0.0,0.0,0.0,0.0,0.0,0.0,0.0,0.0,0.0,0.0,0.0,0.0,0.0,0.0,0.0,0.0,0.0,0.0,0.0,0.0,0.0,0.0,0.0,0.0,0.0,0.0,0.0,0.0,0.0,0.0,0.0,0.0,0.0,0.0,0.0,0.0,0.0,0.0,0.0,0.0,0.0,0.0,0.0,0.0,0.0,0.0,0.0,0.0,0.0,0.0,0.0,0.0,0.0,0.0,0.0,0.0,0.0,0.0,0.0,0.0,0.0,0.0,0.0,0.0,0.0,0.0,0.0,0.0,0.0,0.0,0.0,0.0,0.0,0.0,0.0,0.0,0.0,0.0,0.0,0.0,0.0,0.0,0.0,0.0,0.0,0.0,0.0,-0.5583,-0.6231,-0.789,0.0,0.0,0.0,0.0,0.0,0.0,0.0,0.0,0.0,0.0,0.0,0.0,0.0,0.0,0.0,0.0,0.0,0.0,0.0,0.0,0.0,0.0,0.0,0.0,0.0,0.0,0.0,0.0,0.0,0.0,0.0,0.0,0.0,0.0,0.0,0.0,0.0,0.0,0.0,0.0,0.0,0.0,0.0,0.0,0.0,0.0,0.0,0.0,0.0,0.0,0.0,0.0,0.0,0.0,0.0,0.0,0.0,0.0,0.0,0.0,0.0,0.0,0.0,0.0,0.0,0.0,0.0,0.0,0.0,0.0,0.0,0.0,0.0,0.0,0.0,0.0,0.0,0.0,0.0,0.0,0.0,0.0,0.0,0.0,0.0,0.0,0.0,0.0,0.0,0.0,0.0,0.0,0.0,0.0,0.0,0.0,0.0,0.0,0.0,0.0,0.0,0.0,0.0,0.0,0.0,0.0,0.0,0.0,0.0,0.0,-0.5967,-0.8191,-0.7498,0.0,-0.9483,0.0,0.0,0.0,0.0,0.0,0.0,0.0,0.0,0.0,0.0,0.0,0.0,0.0,0.0,0.0,0.0,0.0,0.0,0.0,0.0,0.0,0.0,0.0,0.0,0.0,0.0,0.0,0.0,0.0,0.0,0.0,0.0,0.0,0.0,0.0,0.0,0.0,0.0,0.0,0.0,0.0,0.0,0.0,0.0,0.0,0.0,0.0,0.0,0.0,0.0,0.0,0.0,0.0,0.0,0.0,0.0,0.0,0.0,0.0,0.0,0.0,0.0,0.0,0.0,0.0,0.0,0.0,0.0,0.0,0.0,0.0,0.0,0.0,0.0,0.0,0.0,0.0,0.0,0.0,0.0,0.0,0.0,0.0,0.0,0.0,0.0,0.0,0.0,0.0,0.0,0.0,0.0,0.0,0.0,0.0,0.0,0.0,0.0,0.0,0.0,0.0,0.0,0.0,0.0,0.0,0.0,0.0,0.0,0.0,0.0,0.0,-0.7806,-0.8439,-0.9094,0.0,0.0,0.0,0.0,0.0,0.0,0.0,0.0,0.0,0.0,0.0,0.0,0.0,0.0,0.0,0.0,0.0,0.0,0.0,0.0,0.0,0.0,0.0,0.0,0.0,0.0,0.0,0.0,0.0,0.0,0.0,0.0,0.0,0.0,0.0,0.0,0.0,0.0,0.0,0.0,0.0,0.0,0.0,0.0,0.0,0.0,0.0,0.0,0.0,0.0,0.0,0.0,0.0,0.0,0.0,0.0,0.0,0.0,0.0,0.0,0.0,0.0,0.0,0.0,0.0,0.0,0.0,0.0,0.0,0.0,0.0,0.0,0.0,0.0,0.0,0.0,0.0,0.0,0.0,0.0,0.0,0.0,0.0,0.0,0.0,0.0,0.0,0.0,0.0,0.0,0.0,0.0,0.0,0.0,0.0,0.0,0.0,0.0,0.0,0.0,0.0,0.0,0.0,0.0,0.0,0.0,0.0,0.0,0.0,0.0,-0.7228,0.0,-0.7996,-0.913,-0.9772,-0.9765,0.0,0.0,0.0,0.0,0.0,0.0,0.0,0.0,0.0,0.0,0.0,0.0,0.0,0.0,0.0,0.0,0.0,0.0,0.0,0.0,0.0,0.0,0.0,0.0,0.0,0.0,0.0,0.0,0.0,0.0,0.0,0.0,0.0,0.0,0.0,0.0,0.0,0.0,0.0,0.0,0.0,0.0,0.0,0.0,0.0,0.0,0.0,0.0,0.0,0.0,0.0,0.0,0.0,0.0,0.0,0.0,0.0,0.0,0.0,0.0,0.0,0.0,0.0,0.0,0.0,0.0,0.0,0.0,0.0,0.0,0.0,0.0,0.0,0.0,0.0,0.0,0.0,0.0,0.0,0.0,0.0,0.0,0.0,0.0,0.0,0.0,0.0,0.0,0.0,0.0,0.0,0.0,0.0,0.0,0.0,0.0,0.0,0.0,0.0,0.0,0.0,0.0,0.0,0.0,0.0,0.0,0.0,0.0,0.0,-0.8836,-0.8074,-0.9597,-0.9717,-0.9702,0.0,0.0,0.0,0.0,0.0,0.0,0.0,0.0,0.0,0.0,0.0,0.0,0.0,0.0,0.0,0.0,0.0,0.0,0.0,0.0,0.0,0.0,0.0,0.0,0.0,0.0,0.0,0.0,0.0,0.0,0.0,0.0,0.0,0.0,0.0,0.0,0.0,0.0,0.0,0.0,0.0,0.0,0.0,0.0,0.0,0.0,0.0,0.0,0.0,0.0,0.0,0.0,0.0,0.0,0.0,0.0,0.0,0.0,0.0,0.0,0.0,0.0,0.0,0.0,0.0,0.0,0.0,0.0,0.0,0.0,0.0,0.0,0.0,0.0,0.0,0.0,0.0,0.0,0.0,0.0,0.0,0.0,0.0,0.0,0.0,0.0,0.0,0.0,0.0,0.0,0.0,0.0,0.0,0.0,0.0,0.0,0.0,0.0,0.0,0.0,0.0,0.0,0.0,0.0,0.0,0.0,0.0,0.0,0.0,-0.8192,-0.7629,-0.8347,-1.0432,-1.0002,-0.9702,0.0,0.0,0.0,0.0,0.0,0.0,0.0,0.0,0.0,0.0,0.0,0.0,0.0,0.0,0.0,0.0,0.0,0.0,0.0,0.0,0.0,0.0,0.0,0.0,0.0,0.0,0.0,0.0,0.0,0.0,0.0,0.0,0.0,0.0,0.0,0.0,0.0,0.0,0.0,0.0,0.0,0.0,0.0,0.0,0.0,0.0,0.0,0.0,0.0,0.0,0.0,0.0,0.0,0.0,0.0,0.0,0.0,0.0,0.0,0.0,0.0,0.0,0.0,0.0,0.0,0.0,0.0,0.0,0.0,0.0,0.0,0.0,0.0,0.0,0.0,0.0,0.0,0.0,0.0,0.0,0.0,0.0,0.0,0.0,0.0,0.0,0.0,0.0,0.0,0.0,0.0,0.0,0.0,0.0,0.0,0.0,0.0,0.0,0.0,0.0,0.0,0.0,0.0,0.0,0.0,0.0,0.0,0.0,0.0,-0.7674,0.0,-0.9279,0.0,-1.0165,-0.9577,0.0,0.0,0.0,0.0,0.0,0.0,0.0,0.0,0.0,0.0,0.0,0.0,0.0,0.0,0.0,0.0,0.0,0.0,0.0,0.0,0.0,0.0,0.0,0.0,0.0,0.0,0.0,0.0,0.0,0.0,0.0,0.0,0.0,0.0,0.0,0.0,0.0,0.0,0.0,0.0,0.0,0.0,0.0,0.0,0.0,0.0,0.0,0.0,0.0,0.0,0.0,0.0,0.0,0.0,0.0,0.0,0.0,0.0,0.0,0.0,0.0,0.0,0.0,0.0,0.0,0.0,0.0,0.0,0.0,0.0,0.0,0.0,0.0,0.0,0.0,0.0,0.0,0.0,0.0,0.0,0.0,0.0,0.0,0.0,0.0,0.0,0.0,0.0,0.0,0.0,0.0,0.0,0.0,0.0,0.0,0.0,0.0,0.0,0.0,0.0,0.0,0.0,0.0,0.0,0.0,0.0,0.0,0.0,-0.7729,-1.0716,-1.0803,-1.0758,-1.0861,-1.01,-0.9331,0.0,0.0,0.0,0.0,0.0,0.0,0.0,0.0,0.0,0.0,0.0,0.0,0.0,0.0,0.0,0.0,0.0,0.0,0.0,0.0,0.0,0.0,0.0,0.0,0.0,0.0,0.0,0.0,0.0,0.0,0.0,0.0,0.0,0.0,0.0,0.0,0.0,0.0,0.0,0.0,0.0,0.0,0.0,0.0,0.0,0.0,0.0,0.0,0.0,0.0,0.0,0.0,0.0,0.0,0.0,0.0,0.0,0.0,0.0,0.0,0.0,0.0,0.0,0.0,0.0,0.0,0.0,0.0,0.0,0.0,0.0,0.0,0.0,0.0,0.0,0.0,0.0,0.0,0.0,0.0,0.0,0.0,0.0,0.0,0.0,0.0,0.0,0.0,0.0,0.0,0.0,0.0,0.0,0.0,0.0,0.0,0.0,0.0,0.0,0.0,0.0,0.0,0.0,0.0,0.0,0.0,0.0,0.0,0.0,-0.8501,-0.9496,-1.0344,-1.0824,-0.9581,-0.9272,0.0,0.0,0.0,0.0,0.0,0.0,0.0,0.0,0.0,0.0,0.0,0.0,0.0,0.0,0.0,0.0,0.0,0.0,0.0,0.0,0.0,0.0,0.0,0.0,0.0,0.0,0.0,0.0,0.0,0.0,0.0,0.0,0.0,0.0,0.0,0.0,0.0,0.0,0.0,0.0,0.0,0.0,0.0,0.0,0.0,0.0,0.0,0.0,0.0,0.0,0.0,0.0,0.0,0.0,0.0,0.0,0.0,0.0,0.0,0.0,0.0,0.0,0.0,0.0,0.0,0.0,0.0,0.0,0.0,0.0,0.0,0.0,0.0,0.0,0.0,0.0,0.0,0.0,0.0,0.0,0.0,0.0,0.0,0.0,0.0,0.0,0.0,0.0,0.0,0.0,0.0,0.0,0.0,0.0,0.0,0.0,0.0,0.0,0.0,0.0,0.0,0.0,0.0,0.0,0.0,0.0,0.0,0.0,0.0,-0.8837,-1.0807,-1.2031,-1.2215,-1.0688,-1.0026,-1.0423,0.0,0.0,0.0,0.0,0.0,0.0,0.0,0.0,0.0,0.0,0.0,0.0,0.0,0.0,0.0,0.0,0.0,0.0,0.0,0.0,0.0,0.0,0.0,0.0,0.0,0.0,0.0,0.0,0.0,0.0,0.0,0.0,0.0,0.0,0.0,0.0,0.0,0.0,0.0,0.0,0.0,0.0,0.0,0.0,0.0,0.0,0.0,0.0,0.0,0.0,0.0,0.0,0.0,0.0,0.0,0.0,0.0,0.0,0.0,0.0,0.0,0.0,0.0,0.0,0.0,0.0,0.0,0.0,0.0,0.0,0.0,0.0,0.0,0.0,0.0,0.0,0.0,0.0,0.0,0.0,0.0,0.0,0.0,0.0,0.0,0.0,0.0,0.0,0.0,0.0,0.0,0.0,0.0,0.0,0.0,0.0,0.0,0.0,0.0,0.0,0.0,0.0,0.0,0.0,0.0,0.0,0.0,0.0,-1.1113,-1.4242,-1.5472,-1.4616,-1.3013,-1.1471,0.0,0.0,0.0,0.0,0.0,0.0,0.0,0.0,0.0,0.0,0.0,0.0,0.0,0.0,0.0,0.0,0.0,0.0,0.0,0.0,0.0,0.0,0.0,0.0,0.0,0.0,0.0,0.0,0.0,0.0,0.0,0.0,0.0,0.0,0.0,0.0,0.0,0.0,0.0,0.0,0.0,0.0,0.0,0.0,0.0,0.0,0.0,0.0,0.0,0.0,0.0,0.0,0.0,0.0,0.0,0.0,0.0,0.0,0.0,0.0,0.0,0.0,0.0,0.0,0.0,0.0,0.0,0.0,0.0,0.0,0.0,0.0,0.0,0.0,0.0,0.0,0.0,0.0,0.0,0.0,0.0,0.0,0.0,0.0,0.0,0.0,0.0,0.0,0.0,0.0,0.0,0.0,0.0,0.0,0.0,0.0,0.0,0.0,0.0,0.0,0.0,0.0,0.0,0.0,0.0,0.0,0.0,0.0,0.0,-1.3626,-1.6702,-1.7674,-1.6285,-1.415,-1.3068,0.0,0.0,0.0,0.0,0.0,0.0,0.0,0.0,0.0,0.0,0.0,0.0,0.0,0.0,0.0,0.0,0.0,0.0,0.0,0.0,0.0,0.0,0.0,0.0,0.0,0.0,0.0,0.0,0.0,0.0,0.0,0.0,0.0,0.0,0.0,0.0,0.0,0.0,0.0,0.0,0.0,0.0,0.0,0.0,0.0,0.0,0.0,0.0,0.0,0.0,0.0,0.0,0.0,0.0,0.0,0.0,0.0,0.0,0.0,0.0,0.0,0.0,0.0,0.0,0.0,0.0,0.0,0.0,0.0,0.0,0.0,0.0,0.0,0.0,0.0,0.0,0.0,0.0,0.0,0.0,0.0,0.0,0.0,0.0,0.0,0.0,0.0,0.0,0.0,0.0,0.0,0.0,0.0,0.0,0.0,0.0,0.0,0.0,0.0,0.0,0.0,0.0,0.0,0.0,0.0,0.0,0.0,0.0,-1.3688,-1.5984,-1.8159,-1.9017,-1.8412,-1.6083,-1.4513,0.0,0.0,0.0,0.0,0.0,0.0,0.0,0.0,0.0,0.0,0.0,0.0,0.0,0.0,0.0,0.0,0.0,0.0,0.0,0.0,0.0,0.0,0.0,0.0,0.0,0.0,0.0,0.0,0.0,0.0,0.0,0.0,0.0,0.0,0.0,0.0,0.0,0.0,0.0,0.0,0.0,0.0,0.0,0.0,0.0,0.0,0.0,0.0,0.0,0.0,0.0,0.0,0.0,0.0,0.0,0.0,0.0,0.0,0.0,0.0,0.0,0.0,0.0,0.0,0.0,0.0,0.0,0.0,0.0,0.0,0.0,0.0,0.0,0.0,0.0,0.0,0.0,0.0,0.0,0.0,0.0,0.0,0.0,0.0,0.0,0.0,0.0,0.0,0.0,0.0,0.0,0.0,0.0,0.0,0.0,0.0,0.0,0.0,0.0,0.0,0.0,0.0,0.0,0.0,0.0,0.0,0.0,0.0,-1.4831,-1.7877,-1.8828,-1.9664,-2.0376,-1.8232,-1.5892,0.0,0.0,0.0,0.0,0.0,0.0,0.0,0.0,0.0,0.0,0.0,0.0,0.0,0.0,0.0,0.0,0.0,0.0,0.0,0.0,0.0,0.0,0.0,0.0,0.0,0.0,0.0,0.0,0.0,0.0,0.0,0.0,0.0,0.0,0.0,0.0,0.0,0.0,0.0,0.0,0.0,0.0,0.0,0.0,0.0,0.0,0.0,0.0,0.0,0.0,0.0,0.0,0.0,0.0,0.0,0.0,0.0,0.0,0.0,0.0,0.0,0.0,0.0,0.0,0.0,0.0,0.0,0.0,0.0,0.0,0.0,0.0,0.0,0.0,0.0,0.0,0.0,0.0,0.0,0.0,0.0,0.0,0.0,0.0,0.0,0.0,0.0,0.0,0.0,0.0,0.0,0.0,0.0,0.0,0.0,0.0,0.0,0.0,0.0,0.0,0.0,0.0,0.0,0.0,0.0,0.0,0.0,0.0,-1.5103,-1.7031,-1.8471,-1.9618,-2.0401,-1.8736,-1.6982,0.0,0.0,0.0,0.0,0.0,0.0,0.0,0.0,0.0,0.0,0.0,0.0,0.0,0.0,0.0,0.0,0.0,0.0,0.0,0.0,0.0,0.0,0.0,0.0,0.0,0.0,0.0,0.0,0.0,0.0,0.0,0.0,0.0,0.0,0.0,0.0,0.0,0.0,0.0,0.0,0.0,0.0,0.0,0.0,0.0,0.0,0.0,0.0,-0.5482,0.0,0.0,0.0,0.0,0.0,0.0,0.0,0.0,0.0,0.0,0.0,0.0,0.0,0.0,0.0,0.0,0.0,0.0,0.0,0.0,0.0,0.0,0.0,0.0,0.0,0.0,0.0,0.0,0.0,0.0,0.0,0.0,0.0,0.0,0.0,0.0,0.0,0.0,0.0,0.0,0.0,0.0,0.0,0.0,0.0,0.0,0.0,0.0,0.0,0.0,0.0,0.0,0.0,0.0,0.0,0.0,0.0,0.0,0.0,-1.5696,-1.8388,-1.8931,-1.9549,-2.033,-1.92,-1.7766,0.0,0.0,0.0,0.0,0.0,0.0,0.0,0.0,0.0,0.0,0.0,0.0,0.0,0.0,0.0,0.0,0.0,0.0,0.0,0.0,0.0,0.0,0.0,0.0,0.0,0.0,0.0,0.0,0.0,0.0,0.0,0.0,0.0,0.0,0.0,0.0,0.0,0.0,0.0,0.0,0.0,0.0,0.0,0.0,0.0,0.0,0.0,0.0,0.0,0.0,0.0,0.0,0.0,0.0,0.0,0.0,0.0,0.0,0.0,0.0,0.0,0.0,0.0,0.0,0.0,0.0,0.0,0.0,0.0,0.0,0.0,0.0,0.0,0.0,0.0,0.0,0.0,0.0,0.0,0.0,0.0,0.0,0.0,0.0,0.0,0.0,0.0,0.0,0.0,0.0,0.0,0.0,0.0,0.0,0.0,0.0,0.0,0.0,0.0,0.0,0.0,0.0,0.0,0.0,0.0,0.0,0.0,-1.4507,-1.6341,-1.9971,-1.9481,-1.9461,-2.0168,-1.9479,-1.8274,-1.653,0.0,0.0,0.0,0.0,0.0,0.0,0.0,0.0,0.0,0.0,0.0,0.0,0.0,0.0,0.0,0.0,0.0,0.0,0.0,0.0,0.0,0.0,0.0,0.0,0.0,0.0,0.0,0.0,0.0,0.0,0.0,0.0,0.0,0.0,0.0,0.0,0.0,0.0,-0.5932,-0.6568,0.0,0.0,0.0,0.0,0.0,0.0,0.0,0.0,-0.5809,0.0,0.0,0.0,0.0,0.0,0.0,0.0,0.0,0.0,0.0,0.0,0.0,0.0,0.0,0.0,0.0,0.0,0.0,0.0,0.0,0.0,0.0,0.0,0.0,0.0,0.0,0.0,0.0,0.0,0.0,0.0,0.0,0.0,0.0,0.0,0.0,0.0,0.0,0.0,0.0,0.0,0.0,0.0,0.0,0.0,0.0,0.0,0.0,0.0,0.0,0.0,0.0,0.0,0.0,0.0,0.0,-1.523,-1.5297,-1.6602,-1.9231,-1.9176,-1.9176,-1.932,-1.9176,-1.8261,-1.6469,0.0,0.0,0.0,0.0,0.0,0.0,0.0,0.0,0.0,0.0,0.0,0.0,0.0,0.0,0.0,0.0,0.0,0.0,0.0,0.0,0.0,0.0,0.0,0.0,0.0,0.0,0.0,0.0,0.0,0.0,0.0,0.0,0.0,0.0,0.0,0.0,0.0,0.0,0.0,-0.7938,-0.8238,0.0,0.0,0.0,0.0,0.0,0.0,0.0,0.0,-0.6125,0.0,0.0,0.0,0.0,0.0,0.0,0.0,0.0,0.0,0.0,0.0,0.0,0.0,0.0,0.0,0.0,0.0,0.0,0.0,0.0,0.0,0.0,0.0,0.0,0.0,0.0,0.0,0.0,0.0,0.0,0.0,0.0,0.0,0.0,0.0,0.0,0.0,0.0,0.0,0.0,0.0,0.0,0.0,0.0,0.0,0.0,0.0,0.0,0.0,0.0,0.0,0.0,0.0,0.0,0.0,-1.4645,-1.5252,-1.6627,-1.896,-1.9,-1.9018,-1.9,-1.8621,-1.7615,0.0,0.0,0.0,0.0,0.0,0.0,0.0,0.0,0.0,0.0,0.0,0.0,0.0,0.0,0.0,0.0,0.0,0.0,0.0,0.0,0.0,0.0,0.0,0.0,0.0,0.0,0.0,0.0,0.0,0.0,0.0,0.0,0.0,0.0,0.0,0.0,0.0,0.0,0.0,0.0,-0.9515,-0.978,-0.9975,0.0,0.0,0.0,0.0,0.0,0.0,-0.7781,-0.7044,0.0,0.0,0.0,0.0,0.0,0.0,0.0,0.0,0.0,0.0,0.0,0.0,0.0,0.0,0.0,0.0,0.0,0.0,0.0,0.0,0.0,0.0,0.0,0.0,0.0,0.0,0.0,0.0,0.0,0.0,0.0,0.0,0.0,0.0,0.0,0.0,0.0,0.0,0.0,0.0,0.0,0.0,0.0,0.0,0.0,0.0,0.0,0.0,0.0,0.0,0.0,0.0,0.0,0.0,0.0,-1.4125,-1.5027,-1.6547,-1.8854,-1.8912,-1.8895,-1.8877,-1.8175,-1.7041,0.0,0.0,0.0,0.0,0.0,0.0,0.0,0.0,0.0,0.0,0.0,0.0,0.0,0.0,0.0,0.0,0.0,0.0,0.0,0.0,0.0,0.0,0.0,0.0,0.0,0.0,0.0,0.0,0.0,0.0,0.0,0.0,0.0,0.0,0.0,0.0,0.0,0.0,0.0,0.0,0.0,-1.1172,-1.1024,-1.08,0.0,0.0,0.0,0.0,-1.0492,-0.9207,0.0,0.0,0.0,0.0,0.0,0.0,0.0,0.0,0.0,0.0,0.0,0.0,0.0,0.0,0.0,0.0,0.0,0.0,0.0,0.0,0.0,0.0,0.0,0.0,0.0,0.0,0.0,0.0,0.0,0.0,0.0,0.0,0.0,0.0,0.0,0.0,0.0,0.0,0.0,0.0,0.0,0.0,0.0,0.0,0.0,0.0,0.0,0.0,0.0,0.0,0.0,0.0,0.0,0.0,0.0,0.0,-1.4057,-1.5017,-1.6553,-1.8767,-1.8895,-1.8895,-1.8878,-1.8193,-1.7008,0.0,0.0,0.0,0.0,0.0,0.0,0.0,0.0,0.0,0.0,0.0,0.0,0.0,0.0,0.0,0.0,0.0,0.0,0.0,0.0,0.0,0.0,0.0,0.0,0.0,0.0,0.0,0.0,0.0,0.0,0.0,0.0,0.0,0.0,0.0,0.0,0.0,0.0,0.0,0.0,0.0,-1.1803,-1.1088,-1.0859,-1.1047,0.0,0.0,-1.0629,-1.2522,-1.0686,0.0,0.0,0.0,0.0,0.0,0.0,0.0,0.0,0.0,0.0,0.0,0.0,0.0,0.0,0.0,0.0,0.0,0.0,0.0,0.0,0.0,0.0,0.0,0.0,0.0,0.0,0.0,0.0,0.0,0.0,0.0,0.0,0.0,0.0,0.0,0.0,0.0,0.0,0.0,0.0,0.0,0.0,0.0,0.0,0.0,0.0,0.0,0.0,0.0,0.0,0.0,0.0,0.0,0.0,0.0,-1.0718,-1.4098,-1.5408,-1.6956,-1.8805,-1.8861,-1.8843,-1.8825,-1.7644,-1.6248,0.0,0.0,0.0,0.0,0.0,0.0,0.0,0.0,0.0,0.0,0.0,0.0,0.0,0.0,0.0,0.0,0.0,0.0,0.0,0.0,0.0,0.0,0.0,0.0,0.0,0.0,0.0,0.0,0.0,0.0,0.0,0.0,0.0,0.0,0.0,0.0,0.0,0.0,0.0,0.0,0.0,0.0,-1.2474,-1.1953,0.0,0.0,0.0,-1.2179,-1.3067,0.0,0.0,0.0,0.0,0.0,0.0,0.0,0.0,0.0,0.0,0.0,0.0,0.0,0.0,0.0,0.0,0.0,0.0,0.0,0.0,0.0,0.0,0.0,0.0,0.0,0.0,0.0,0.0,0.0,0.0,0.0,0.0,0.0,0.0,0.0,0.0,0.0,0.0,0.0,0.0,0.0,0.0,0.0,0.0,0.0,0.0,0.0,0.0,0.0,0.0,0.0,0.0,0.0,0.0,0.0,0.0,0.0,-1.4157,-1.5705,-1.7249,-1.8789,-1.8825,-1.8806,-1.877,-1.7219,0.0,0.0,0.0,0.0,0.0,0.0,0.0,0.0,0.0,0.0,0.0,0.0,0.0,0.0,0.0,0.0,0.0,0.0,0.0,0.0,0.0,0.0,0.0,0.0,0.0,0.0,0.0,-0.0943,0.0,0.0,0.0,0.0,0.0,0.0,0.0,0.0,0.0,0.0,0.0,0.0,0.0,0.0,-1.3599,-1.3295,-1.2941,-1.2944,0.0,0.0,-1.3698,-1.3698,-1.3698,-1.2922,0.0,0.0,0.0,0.0,0.0,0.0,0.0,0.0,0.0,0.0,0.0,0.0,0.0,0.0,0.0,0.0,0.0,0.0,0.0,0.0,0.0,0.0,0.0,0.0,0.0,0.0,0.0,0.0,0.0,0.0,0.0,0.0,0.0,0.0,0.0,0.0,0.0,0.0,0.0,0.0,0.0,0.0,0.0,0.0,0.0,0.0,0.0,0.0,0.0,0.0,0.0,0.0,0.0,0.0,0.0,-1.4123,-1.5642,-1.7182,-1.8735,-1.8806,-1.8806,-1.8752,-1.7254,-1.5684,0.0,0.0,0.0,0.0,0.0,0.0,0.0,0.0,0.0,0.0,0.0,0.0,0.0,0.0,0.0,0.0,0.0,0.0,0.0,0.0,0.0,0.0,0.0,0.0,0.0,0.0,0.0,0.0,0.0,0.0,0.0,0.0,0.0,0.0,0.0,0.0,0.0,0.0,0.0,0.0,0.0,-1.3919,-1.2742,-1.3433,-1.4098,0.0,0.0,-1.5083,-1.5057,-1.3529,-1.2051,-1.1197,0.0,0.0,0.0,0.0,0.0,0.0,0.0,0.0,0.0,0.0,0.0,0.0,0.0,0.0,0.0,0.0,0.0,0.0,0.0,0.0,0.0,0.0,0.0,0.0,0.0,0.0,0.0,0.0,0.0,0.0,0.0,0.0,0.0,0.0,0.0,0.0,0.0,0.0,0.0,0.0,0.0,0.0,0.0,0.0,0.0,0.0,0.0,0.0,0.0,0.0,0.0,0.0,0.0,-1.0972,-1.4159,-1.5642,-1.7182,-1.8717,-1.8676,-1.8676,-1.8788,-1.7082,-1.5496,0.0,0.0,0.0,0.0,0.0,0.0,0.0,0.0,0.0,0.0,0.0,0.0,0.0,0.0,0.0,0.0,0.0,0.0,0.0,0.0,0.0,0.0,0.0,0.0,0.0,0.0,0.0,0.0,-0.3294,-0.3963,-0.4681,0.0,0.0,0.0,0.0,0.0,0.0,0.0,0.0,0.0,0.0,-1.4941,-1.4807,-1.5165,0.0,0.0,-1.687,-1.6901,-1.643,-1.5426,-1.4111,-1.2462,-1.0489,0.0,0.0,0.0,0.0,0.0,0.0,0.0,0.0,0.0,0.0,0.0,0.0,0.0,0.0,0.0,0.0,0.0,0.0,0.0,0.0,0.0,0.0,0.0,0.0,0.0,0.0,0.0,0.0,0.0,0.0,0.0,0.0,0.0,0.0,0.0,0.0,0.0,0.0,0.0,0.0,0.0,0.0,0.0,0.0,0.0,0.0,0.0,0.0,0.0,0.0,0.0,0.0,-1.098,-1.4177,-1.5642,-1.7182,-1.877,-1.8676,-1.8653,-1.8704,-1.6973,-1.5452,0.0,0.0,0.0,0.0,0.0,0.0,0.0,0.0,0.0,0.0,0.0,0.0,0.0,0.0,0.0,0.0,0.0,0.0,0.0,0.0,0.0,0.0,0.0,0.0,0.0,0.0,0.0,0.0,-0.5862,-0.5821,-0.6968,0.0,0.0,0.0,0.0,0.0,0.0,0.0,0.0,0.0,0.0,-1.5779,-1.6145,-1.6363,-1.6886,-1.8038,-1.8038,-1.7578,-1.6675,-1.6981,-1.6355,-1.3409,0.0,0.0,0.0,0.0,0.0,0.0,0.0,0.0,0.0,0.0,0.0,0.0,0.0,0.0,0.0,0.0,0.0,0.0,0.0,0.0,0.0,0.0,0.0,0.0,0.0,0.0,0.0,0.0,0.0,0.0,-0.9925,0.0,0.0,0.0,0.0,0.0,0.0,0.0,0.0,0.0,0.0,0.0,0.0,0.0,0.0,0.0,0.0,0.0,0.0,0.0,0.0,0.0,0.0,-1.099,-1.4159,-1.5642,-1.7165,-1.8734,-1.8788,-1.87,-1.855,-1.6982,-1.5662,-1.4742,0.0,0.0,0.0,0.0,0.0,0.0,0.0,0.0,0.0,0.0,0.0,0.0,0.0,0.0,0.0,0.0,0.0,0.0,0.0,0.0,0.0,0.0,0.0,0.0,0.0,0.0,-1.0947,-0.8887,-0.7732,0.0,0.0,0.0,0.0,0.0,0.0,0.0,0.0,0.0,0.0,-1.4612,-1.6194,-1.624,-1.6793,-1.7516,-1.8114,-1.77,-1.6824,-1.5595,-1.7868,-1.8351,0.0,0.0,0.0,0.0,0.0,0.0,0.0,0.0,0.0,0.0,0.0,0.0,0.0,0.0,0.0,0.0,0.0,0.0,0.0,0.0,0.0,0.0,0.0,0.0,0.0,0.0,0.0,-1.3118,-1.235,0.0,0.0,0.0,0.0,0.0,0.0,0.0,0.0,0.0,0.0,0.0,-1.53,-1.5575,0.0,0.0,0.0,0.0,0.0,0.0,0.0,0.0,0.0,0.0,0.0,0.0,-1.1528,-1.411,-1.554,-1.6994,-1.8547,-1.8266,-1.813,-1.8185,-1.7048,-1.539,-1.3137,0.0,0.0,0.0,0.0,0.0,0.0,0.0,0.0,0.0,0.0,0.0,0.0,0.0,0.0,0.0,0.0,0.0,0.0,0.0,0.0,0.0,0.0,0.0,0.0,0.0,-1.0112,0.0,0.0,0.0,0.0,0.0,0.0,0.0,0.0,0.0,0.0,0.0,-1.493,-1.6103,-1.7347,-1.8083,-1.7899,-1.8936,-1.9615,0.0,0.0,0.0,0.0,0.0,0.0,0.0,0.0,0.0,0.0,0.0,0.0,0.0,0.0,-1.1925,-0.87,-0.7768,-0.743,-0.7401,0.0,0.0,0.0,0.0,0.0,0.0,0.0,0.0,0.0,0.0,0.0,0.0,0.0,0.0,-1.57,0.0,-1.4856,0.0,0.0,0.0,0.0,0.0,0.0,0.0,0.0,-1.6948,-1.777,-1.7756,-1.7987,-1.7632,0.0,-1.6282,-1.452,0.0,0.0,0.0,0.0,0.0,0.0,0.0,0.0,-1.234,-1.4338,-1.5798,-1.7131,-1.8351,-1.8163,-1.7997,-1.7971,-1.6749,-1.4964,-1.2523,-1.0764,-0.9587,0.0,0.0,0.0,0.0,0.0,0.0,0.0,0.0,0.0,0.0,0.0,0.0,0.0,0.0,0.0,0.0,0.0,0.0,0.0,0.0,0.0,0.0,0.0,-1.0416,0.0,0.0,0.0,0.0,0.0,0.0,0.0,0.0,0.0,-1.1964,-1.4132,-1.6514,-1.8558,-1.8923,-1.8979,-1.9046,0.0,0.0,0.0,0.0,0.0,0.0,0.0,-1.7898,-1.7209,-1.6727,-1.6188,-1.5319,-1.4423,-1.4415,-1.6097,0.0,0.0,-1.1131,-1.025,-1.004,-1.0035,-1.0386,-1.0725,-1.0771,-1.1349,-1.1887,0.0,0.0,0.0,0.0,0.0,0.0,0.0,0.0,-1.8228,-1.8506,0.0,-1.7596,0.0,0.0,0.0,0.0,0.0,-1.6694,0.0,0.0,-2.0486,-2.1607,-2.148,-2.0679,-1.9918,-1.9194,-1.9087,-1.7858,-1.5528,-1.3297,0.0,0.0,0.0,0.0,0.0,0.0,-1.3395,-1.4744,-1.6394,-1.7596,-1.8256,-1.8445,-1.8363,-1.7957,-1.6192,-1.4562,-1.3053,-1.2108,-1.1025,-0.9766,-0.8952,0.0,0.0,0.0,0.0,0.0,0.0,0.0,0.0,0.0,0.0,0.0,0.0,0.0,0.0,0.0,0.0,0.0,0.0,0.0,0.0,-0.9925,0.0,0.0,0.0,0.0,0.0,0.0,0.0,0.0,0.0,0.0,-1.5384,-1.5878,-1.715,-1.9695,0.0,0.0,0.0,0.0,-1.9959,-1.9944,-1.942,-1.9057,-1.9027,-1.85,-1.8014,-1.7904,0.0,0.0,-1.6113,-1.6862,-1.7111,-1.5742,-1.6349,-1.6764,-1.5562,-1.4612,-1.4187,-1.4147,-1.4089,-1.4105,-1.3641,-1.3803,-1.4137,-2.1928,0.0,0.0,0.0,0.0,-2.0377,-2.1361,-2.2436,-2.3219,-2.2588,-2.0919,-2.07,0.0,0.0,0.0,0.0,0.0,0.0,-1.8754,-1.9845,-2.0543,-2.1114,-2.1589,-2.1298,-2.1025,-2.0771,-2.0083,-1.9076,-1.7771,-1.6538,-1.4629,-1.2133,0.0,0.0,0.0,0.0,-1.4066,-1.5627,-1.6373,-1.7097,-1.7861,-1.7698,-1.7566,-1.7512,-1.6377,-1.5576,-1.5169,-1.3351,-1.2164,-1.18,-1.0528,0.0,0.0,0.0,0.0,0.0,0.0,0.0,0.0,0.0,0.0,0.0,0.0,0.0,0.0,0.0,0.0,0.0,0.0,0.0,-0.9594,-1.0204,-1.09,0.0,0.0,0.0,0.0,0.0,0.0,0.0,0.0,0.0,-1.7894,-1.8477,-1.9386,0.0,0.0,-1.9706,-2.0333,-2.0853,-2.1083,-2.0753,0.0,0.0,0.0,-1.9942,-1.9191,-1.9141,-1.8713,-1.8201,-1.773,-1.7685,-1.7426,-1.6616,-1.612,-1.5995,-1.6506,-1.5052,-1.3841,-1.3726,-1.4019,-1.4441,-1.4718,-1.524,-1.5748,-2.508,-2.2647,-2.1971,-2.2125,-2.2868,-2.3353,-2.4271,-2.5485,-2.5968,-2.5485,-2.4355,-2.404,-2.258,-2.0299,-1.9298,0.0,0.0,0.0,-2.0753,-2.177,-2.2078,-2.2239,-2.2365,-2.2402,-2.2142,-2.1637,-2.109,-2.0187,-1.9006,-1.8155,-1.6712,-1.4716,0.0,0.0,-1.4164,-1.4554,-1.522,-1.6145,-1.669,-1.7183,-1.7572,-1.737,-1.7256,-1.7263,-1.6393,-1.5934,-1.5942,-1.3978,-1.2903,-1.2907,-1.1874,-1.0606,0.0,0.0,0.0,0.0,0.0,0.0,0.0,0.0,0.0,0.0,0.0,-0.8654,0.0,0.0,0.0,0.0,-0.7469,-0.992,-1.1301,-1.1542,0.0,0.0,0.0,0.0,0.0,0.0,0.0,-1.5858,-1.7087,-1.8388,-1.9803,-2.071,-2.131,-2.1358,-2.0945,-2.0691,-2.0802,0.0,-2.1829,-2.156,-2.2173,-2.2574,-2.2143,-2.1605,-2.1126,-2.0767,-1.996,-1.9218,-1.8852,-1.8535,-1.8214,-1.7743,-1.6702,-1.6024,-1.6692,-1.5327,-1.4368,-1.4819,-1.5182,-1.5516,-1.5676,-1.6169,-1.6735,-2.7195,-2.7046,-2.5643,-2.5381,-2.589,-2.5965,-2.6376,-2.699,-2.7083,-2.7415,-2.789,-2.7128,-2.6313,-2.5407,-2.2995,0.0,-2.1835,-2.3074,-2.3656,-2.3871,-2.4549,-2.4377,-2.3585,-2.3739,-2.3191,-2.1984,-2.2018,-2.1198,-1.9652,-1.8702,-1.7921,-1.7255,-1.6693,-1.6273,-1.6024,-1.6424,-1.6579,-1.6419,-1.7232,-1.7572,-1.7384,-1.7296,-1.7272,-1.7256,-1.6354,-1.5838,-1.5727,-1.4224,-1.3339,-1.3321,-1.2967,-1.1823,-0.9826,0.0,0.0,0.0,0.0,0.0,0.0,0.0,0.0,0.0,0.0,0.0,0.0,0.0,0.0,0.0,-1.0013,0.0,-1.3464,-1.3532,0.0,0.0,0.0,-1.7221,-1.5833,-1.6285,-1.7209,-1.8585,0.0,0.0,-2.1276,0.0,-2.2883,-2.1574,-2.1698,-2.1719,-2.1228,-2.1849,-2.2338,-2.2383,-2.2607,-2.2798,-2.2813,-2.3026,-2.2894,-2.2158,-2.1277,-2.0256,-1.9546,-1.9413,-1.9324,-1.9269,-1.794,-1.687,-1.6518,-1.5995,-1.5821,-1.688,-1.6982,-1.6808,-1.643,-1.6735,-1.7171,-2.8776,-2.859,-2.8383,-2.7661,-2.6712,-2.7307,-2.766,-2.7844,-2.8515,-2.8389,-2.7691,-2.7486,-2.6871,-2.5998,-2.5325,-2.5041,-2.5073,-2.5306,-2.5285,-2.509,-2.5199,-2.4812,-2.4063,-2.4088,-2.3615,-2.2635,-2.1895,-2.1298,-2.078,-1.9989,-1.925,-1.8512,-1.8314,-1.7774,-1.6762,-1.6526,-1.6697,-1.7384,-1.7351,-1.7281,-1.7166,-1.7009,-1.6901,-1.6901,-1.6491,-1.6004,-1.5528,-1.4528,-1.3814,-1.3445,-1.2723,-1.204,-1.1434,-0.9436,0.0,0.0,0.0,0.0,0.0,0.0,0.0,0.0,0.0,-1.0094,-0.8903,0.0,-0.729,0.0,-1.0843,-1.4721,-1.4222,-1.4714,0.0,0.0,-1.7793,-1.8867,-1.8209,-1.8119,-1.8585,-1.982,-2.0218,-2.1019,-2.2615,-2.3339,-2.3606,-2.3227,-2.2627,-2.2273,-2.2473,-2.2537,-2.2757,-2.3161,-2.331,-2.3385,-2.334,-2.2986,-2.2542,-2.1813,-2.134,-2.0676,-1.9597,-1.9836,-2.0204,-2.0436,-2.0016,-1.9261,-1.8521,-1.7534,-1.6895,-1.7069,-1.6445,-1.6039,-1.6764,-1.7084,-1.7253,-3.0361,-3.0294,-3.0203,-2.9669,-2.8926,-2.8669,-2.8418,-2.8327,-2.8787,-2.864,-2.8099,-2.8075,-2.7549,-2.6734,-2.6451,-2.6318,-2.6284,-2.6092,-2.5913,-2.5775,-2.5736,-2.5115,-2.4033,-2.4112,-2.3615,-2.259,-2.2055,-2.1521,-2.1029,-2.0589,-1.9956,-1.916,-1.916,-1.8801,-1.8074,-1.7515,-1.7493,-1.7945,-1.774,-1.7374,-1.6991,-1.6857,-1.6671,-1.6358,-1.6402,-1.6113,-1.5502,-1.4658,-1.4092,-1.3789,-1.2783,-1.2011,-1.1617,-1.0549,-0.9453,0.0,0.0,0.0,0.0,0.0,0.0,0.0,0.0,0.0,0.0,0.0,-1.138,-1.0403,-1.4594,-1.7093,-1.6378,-1.642,-1.6841,-1.7656,-1.9432,-2.0472,-2.0262,-2.0113,-2.0533,-2.1831,-2.2178,-2.2679,-2.372,-2.4484,-2.4843,-2.4591,-2.4008,-2.3544,-2.3281,-2.3193,-2.3221,-2.3535,-2.3595,-2.3595,-2.3566,-2.3197,-2.2812,-2.2357,-2.1951,-2.1501,-2.1156,-2.0673,-2.0712,-2.1598,-2.138,-2.0669,-1.9725,-1.8753,-1.8056,-1.7925,-1.7287,-1.6619,-1.6401,-1.6576,-1.6876,-3.1531,-3.1626,-3.1265,-3.1188,-3.1249,-2.9874,-2.9113,-2.8811,-2.8837,-2.8801,-2.8714,-2.8619,-2.816,-2.7414,-2.6969,-2.6661,-2.6545,-2.6277,-2.6169,-2.6226,-2.6178,-2.5407,-2.4041,-2.4192,-2.3577,-2.232,-2.2378,-2.1872,-2.0938,-2.0865,-2.0416,-1.9674,-1.9641,-1.9564,-1.9378,-1.8897,-1.8585,-1.8418,-1.8205,-1.7726,-1.7001,-1.6837,-1.6476,-1.595,-1.6218,-1.6113,-1.5543,-1.4761,-1.4283,-1.416,-1.2913,-1.1994,-1.1578,-1.223,-1.1728,0.0,-1.0561,0.0,0.0,0.0,0.0,0.0,0.0,0.0,0.0,-1.4532,-1.5979,-1.7379,-1.9077,-1.971,-1.8885,-1.8234,-1.8426,-1.9807,-2.1048,-2.1864,-2.2112,-2.2162,-2.2659,-2.3951,-2.4448,-2.4677,-2.4775,-2.5592,-2.6026,-2.5508,-2.5217,-2.4705,-2.3933,-2.3679,-2.3651,-2.3595,-2.3566,-2.3523,-2.3466,-2.3466,-2.3392,-2.3187,-2.2673,-2.2541,-2.3025,-2.1841,-2.1207,-2.2424,-2.2294,-2.1554,-2.0611,-1.9885,-1.9362,-1.9333,-1.8738,-1.7766,-1.6503,-1.6256,-1.6459,-3.1109,-3.1011,-3.1083,-3.093,-3.0679,-3.042,-3.0377,-3.0442,-3.0618,-3.0017,-2.8853,-2.8539,-2.815,-2.7653,-2.749,-2.7402,-2.7355,-2.7157,-2.6926,-2.677,-2.6621,-2.608,-2.5203,-2.5217,-2.4382,-2.2909,-2.2859,-2.2445,-2.1628,-2.154,-2.113,-2.0409,-2.0336,-1.9984,-1.9443,0.0,0.0,0.0,-1.8405,-1.8022,-1.7823,-1.7066,-1.6586,-1.6433,-1.6309,0.0,-1.5304,-1.5083,-1.476,-1.4206,-1.2913,0.0,0.0,0.0,0.0,0.0,0.0,0.0,0.0,0.0,0.0,0.0,-1.3905,-1.319,-1.2456,-1.4212,-1.6013,-1.7492,-1.9924,-2.0893,-1.9634,-1.9349,-1.982,-2.1213,-2.1632,-2.2424,-2.3884,-2.4116,-2.4282,-2.4497,-2.4646,-2.5027,-2.5716,-2.6085,-2.6026,-2.5594,-2.5198,-2.4784,-2.4276,-2.4166,-2.3967,-2.348,-2.3407,-2.3407,-2.3378,-2.329,-2.3187,-2.3098,-2.2965,-2.2832,-2.2891,-2.273,-2.2381,-2.2888,-2.2772,-2.2598,-2.2337,-2.1452,-2.064,-2.0625,-1.9725,-1.8825,-1.8433,-1.7635,-1.675,-3.2154,0.0,-3.2058,-3.1894,0.0,-3.1762,-3.1671,-3.1462,-3.0784,-3.0095,-2.9421,-2.9248,-2.9039,-2.8749,-2.8578,-2.8241,-2.7782,-2.77,-2.7348,-2.6809,-2.6691,-2.6252,-2.5495,-2.5396,-2.4528,-2.3031,-2.2967,-2.254,-2.1771,-2.1724,-2.1467,-2.0999,-2.094,-2.073,-2.0375,-2.0613,-2.0374,-1.9605,-1.9235,-1.8795,-1.8305,-1.7798,-1.7211,-1.6526,0.0,0.0,0.0,0.0,0.0,0.0,0.0,0.0,0.0,0.0,0.0,-1.4212,-1.482,-1.4388,-1.2607,-1.4374,-1.6121,-1.7325,-1.6884,-1.642,-1.6198,-1.6348,-1.718,-1.8992,-2.0766,-2.1661,-2.1313,-2.0903,-2.1301,-2.2692,-2.352,-2.4265,-2.4762,-2.4779,-2.4895,-2.5359,-2.5425,-2.5657,-2.6049,-2.6096,-2.6007,-2.5758,-2.5589,-2.5305,-2.4936,-2.4326,-2.3711,-2.3363,-2.3378,-2.3378,-2.3201,-2.279,-2.2688,-2.2877,-2.2686,-2.2643,-2.2844,-2.2888,-2.2888,-2.2888,-2.2888,-2.2888,-2.2844,-2.2337,-2.1859,-2.154,-2.0973,-2.0498,-2.0356,-1.9006,-1.7214,-3.3298,-3.3444,-3.3024,-3.2866,-3.293,-3.2848,-3.2521,-3.195,0.0,0.0,0.0,-3.0117,-2.9946,-2.9708,-2.9455,-2.8835,-2.8032,-2.7981,-2.7487,-2.6674,-2.664,-2.6253,-2.5664,-2.5464,-2.468,-2.3351,-2.3187,-2.2646,-2.1861,-2.1713,-2.1556,-2.1417,-2.1386,-2.1324,-2.1246,-2.1151,-2.0783,-2.0114,-2.0001,-1.9544,-1.8749,-1.8593,-1.7955,-1.6806,-1.7159,-1.6928,-1.5929,-1.5787,-1.5718,-1.5729,-1.5499,-1.5021,-1.4265,-1.5047,-1.5786,-1.6253,-1.6586,-1.6433,-1.5607,-1.7226,-1.8697,-1.9717,-1.922,-1.9313,-2.0351,-1.8858,-1.8792,-2.0931,-2.1516,-2.2145,-2.299,-2.2278,-2.2427,-2.4033,-2.5408,-2.5938,-2.5392,-2.5094,-2.5359,-2.6187,-2.627,-2.6267,-2.6327,-2.6122,-2.6069,-2.6184,-2.6122,-2.5992,-2.5625,-2.4731,-2.3941,-2.3733,-2.3496,-2.3246,-2.3024,-2.2586,-2.2323,-2.2802,-2.2527,-2.2381,-2.2728,-2.2888,-2.2888,-2.2888,-2.2888,-2.2888,-2.2888,-2.283,-2.2714,-2.2236,-2.2135,-2.2076,-2.1801,-2.0275,-1.8375,-3.2979,-3.2961,-3.2737,-3.2639,-3.2639,-3.2335,-3.2073,-3.1819,-3.1595,-3.1182,-3.0594,-3.0471,-3.0074,-2.9437,-2.9227,-2.873,-2.7998,-2.7876,-2.7401,0.0,-2.6623,-2.6436,-2.618,-2.6164,-2.5627,-2.4644,-2.405,-2.3293,-2.2457,-2.1789,-2.1417,-2.1386,-2.134,-2.1246,-2.1135,-2.1103,-2.0878,-2.0438,-1.9988,-1.9657,-1.95,-1.8873,-1.8422,-1.8236,-1.8115,-1.7992,-1.7792,-1.7761,-1.7777,-1.7777,-1.7407,-1.7085,-1.6906,-1.7577,-1.7773,-1.7136,-1.7609,-1.8019,-1.8206,-1.8708,-1.9414,-2.0411,-2.0439,-2.0417,-2.0384,-1.9744,-2.024,-2.2294,-2.2178,-2.2361,-2.3553,-2.2675,-2.2791,-2.4663,-2.569,-2.6137,-2.6021,-2.6021,-2.6253,-2.6936,-2.6584,-2.6531,-2.6991,-2.6554,-2.6365,-2.6771,-2.6636,-2.6365,-2.6364,-2.5766,-2.5106,-2.4567,-2.3659,-2.3067,-2.2976,-2.2875,-2.2773,-2.2859,-2.2786,-2.2701,-2.2844,-2.2888,-2.2888,-2.2888,-2.2888,-2.2888,-2.2888,-2.2888,-2.2785,-2.2624,-2.2624,-2.2593,-2.2446,-2.1556,-2.054,-3.2737,-3.2705,-3.2521,-3.2404,-3.2301,-3.2037,-3.1893,-3.18,-3.1709,-3.1519,-3.119,-3.1119,-3.0839,-3.0421,-3.033,-2.9864,-2.9115,-2.8583,-2.7938,-2.7195,-2.6687,-2.6365,-2.6295,-2.6173,-2.5702,-2.4939,-2.4592,-2.3769,-2.2622,-2.2166,-2.1793,-2.1373,-2.1246,-2.1087,-2.0925,-2.0827,-2.0662,-2.0392,-2.0215,-2.0092,-2.0026,-1.9681,-1.9322,-1.8966,-1.884,-1.8576,-1.8222,-1.8176,-1.8176,-1.8144,-1.7976,-1.7869,-1.7838,-1.7928,-1.812,-1.8519,-1.8425,-1.8663,-1.935,-1.9656,-2.0493,-2.1936,-2.1796,-2.1977,-2.2675,-2.1562,-2.1552,-2.3306,-2.3868,-2.4282,-2.4597,-2.4348,-2.4613,-2.5556,-2.6021,-2.6187,-2.627,-2.6717,-2.6899,-2.68,-2.7094,-2.7135,-2.6772,-2.6885,-2.6967,-2.712,-2.7146,-2.7354,-2.741,-2.699,-2.6253,-2.5345,-2.4307,-2.3647,-2.347,-2.3091,-2.2917,-2.2888,-2.2599,-2.26,-2.2802,-2.2873,-2.2859,-2.2888,-2.2888,-2.2888,-2.2888,-2.2857,-2.2826,-2.2795,-2.2749,-2.2629,-2.2438,-2.1863,-2.0968,-3.2588,-3.2606,-3.2352,-3.2161,-3.2018,-3.1856,-3.1783,-3.1746,-3.1654,-3.1579,-3.1542,-3.1542,-3.1449,-3.1295,-3.1295,-3.0845,-3.0036,-2.937,-2.8622,-2.7847,-2.695,-2.6545,-2.6493,-2.6181,-2.5678,-2.5151,-2.4882,-2.4141,-2.3029,-2.2801,-2.2378,-2.1746,-2.16,-2.1372,-2.0964,-2.0795,-2.0659,-2.0535,-2.0624,-2.0562,-2.0304,-2.0304,-2.0058,-1.958,-1.9518,-1.9239,-1.8651,-1.8636,-1.8588,-1.8524,-1.8524,-1.8572,-1.8588,-1.8187,-1.8498,-1.9486,-1.9101,-1.9148,-2.0019,-2.0814,-2.1754,-2.3059,-2.2916,-2.3325,-2.443,-2.3293,-2.2834,-2.4166,-2.5375,-2.5905,-2.5524,-2.5789,-2.6203,-2.6203,-2.6203,-2.6303,-2.6485,-2.7127,-2.7453,-2.704,-2.7657,-2.7728,-2.7295,-2.749,-2.7729,-2.7624,-2.8084,-2.8535,-2.8408,-2.7996,-2.7252,-2.6284,-2.5305,-2.4602,-2.421,-2.3644,-2.325,-2.312,-2.2658,-2.2571,-2.2744,-2.2716,-2.2658,-2.2745,-2.2843,-2.2843,-2.2857,-2.2826,-2.2735,-2.2689,-2.2486,-2.2281,-2.2073,-2.177,-2.0936,-3.2606,-3.2555,-3.2249,-3.2018,-3.1837,-3.18,-3.1709,-3.1634,-3.1617,-3.1504,-3.1334,-3.1334,-3.1334,-3.1312,-3.1235,-3.0746,-2.9993,-2.982,-2.9269,-2.8381,-2.7644,-2.7258,-2.7068,-2.636,-2.5921,-2.5684,-2.5056,-2.4574,-2.4178,-2.3643,-2.3248,-2.2975,-2.2923,-2.2366,-2.1545,-2.1397,-2.1326,-2.1229,-2.1229,-2.0921,-2.035,-2.0304,-2.0258,-2.0227,-2.0212,-2.0112,-1.984,-1.9917,-1.9882,-1.9858,-1.9763,-1.9828,-1.9793,-1.9712,-1.9667,-1.9741,-1.9651,-1.9934,-2.0738,-2.2499,-2.3312,-2.3026,-2.3538,-2.4166,-2.4978,-2.4297,-2.4132,-2.496,-2.574,-2.6137,-2.6104,-2.617,-2.6203,-2.6203,-2.6168,-2.6452,-2.6998,-2.7316,-2.7816,-2.8942,-2.8369,-2.842,-2.9124,-2.8625,-2.82,-2.8556,-2.9087,-2.9396,-2.8976,-2.8482,-2.7887,-2.7325,-2.6806,-2.5945,-2.4965,-2.4384,-2.3949,-2.3746,-2.3238,-2.2873,-2.2731,-2.2127,-2.152,-2.2701,-2.2752,-2.2721,-2.2721,-2.2721,-2.2526,-2.2338,-2.1962,-2.1563,-2.1502,-2.1668,-2.1288,-3.2301,-3.2266,-3.2037,-3.1873,-3.1783,-3.1709,-3.1671,-3.1579,-3.1466,-3.1372,-3.1295,-3.1235,-3.1252,-3.1269,-3.1151,-3.087,-3.0527,-2.9973,-2.9271,-2.8439,-2.7632,-2.6958,-2.6491,-2.6065,-2.5828,-2.5791,-2.5403,-2.4956,-2.4434,-2.3681,-2.3218,-2.3096,-2.2896,-2.2352,-2.1553,-2.1414,-2.1157,-2.0736,-2.072,-2.0516,-2.0285,-2.0553,-2.0635,-2.0316,-2.0181,-2.0131,-2.01,-2.0045,-1.999,-1.9884,-1.9884,-2.0089,-2.0535,-2.0098,-2.0227,-2.1081,-2.1006,-2.1024,-2.1308,-2.2356,-2.3131,-2.3518,-2.4061,-2.4738,-2.5638,-2.5454,-2.5438,-2.5704,-2.6054,-2.6203,-2.6203,-2.6203,-2.6203,-2.6168,-2.6132,-2.6211,-2.6495,-2.729,-2.7869,-2.7951,-2.8674,-2.9065,-2.9228,-2.9186,-2.9183,-2.9448,-2.9756,-2.9617,-2.9166,-2.8638,-2.7975,-2.7135,-2.6526,-2.5901,-2.5038,-2.4747,-2.4254,-2.3557,-2.3076,-2.2888,-2.2788,-2.2571,-2.2337,-2.2756,-2.2618,-2.2615,-2.2661,-2.2241,-2.1936,-2.1747,-2.1348,-2.0823,-2.0765,-2.1145,-2.092,-3.2108,-3.2073,-3.1873,-3.18,-3.1746,-3.1634,-3.1579,-3.1487,-3.1372,-3.1295,-3.1274,-3.1173,-3.1151,-3.1151,-3.1032,-3.0975,-3.0811,-3.0206,-2.9586,-2.8942,-2.813,-2.7388,-2.6841,-2.6248,-2.5994,-2.5977,-2.5718,-2.5287,-2.4717,-2.4104,-2.3633,-2.3486,-2.3277,-2.2652,-2.1807,-2.1636,-2.126,-2.0674,-2.0701,-2.0742,-2.0768,-2.1255,-2.1133,-2.0303,-2.0076,-1.999,-1.9995,-1.9975,-1.999,-2.0047,-2.0047,-2.0362,-2.0955,-2.0498,-2.0961,-2.2383,-2.2218,-2.1939,-2.1868,-2.2469,-2.3224,-2.4044,-2.4547,-2.5236,-2.5999,-2.6203,-2.6203,-2.6187,-2.6203,-2.6203,-2.6203,-2.6096,-2.6059,-2.6132,-2.6079,-2.6125,-2.6615,-2.7453,-2.7898,-2.7882,-2.8893,-2.9355,-2.8656,-2.8712,-2.8994,-2.9372,-2.9518,-2.9347,-2.876,-2.8233,-2.759,-2.6359,-2.5766,-2.5392,-2.495,-2.4617,-2.4109,-2.3554,-2.3091,-2.2857,-2.2857,-2.2828,-2.2768,-2.2618,-2.254,-2.2509,-2.2509,-2.2033,-2.1447,-2.1221,-2.0909,-2.047,-2.0189,-2.0484,-2.054,-3.2108,-3.209,-3.1873,-3.176,-3.1634,-3.1648,-3.1538,-3.1419,-3.1346,-3.1291,-3.119,-3.1072,-3.1032,-3.1015,-3.0975,-3.0895,-3.0733,-3.0625,-3.0385,-3.0054,-2.9436,-2.9075,-2.8878,-2.7499,-2.672,-2.659,-2.5913,-2.5454,-2.5237,-2.515,-2.495,-2.453,-2.4387,-2.3701,-2.2463,-2.2278,-2.1916,-2.1362,-2.1688,-2.195,-2.1988,-2.2409,-2.1756,-2.0313,-2.0066,-2.0025,-1.9908,-1.9827,-2.0092,-2.0647,-2.0662,-2.0782,-2.1036,-2.1395,-2.2188,-2.3251,-2.2951,-2.2516,-2.2415,-2.34,-2.4209,-2.4494,-2.5049,-2.5672,-2.6099,-2.6203,-2.6203,-2.6203,-2.6203,-2.6203,-2.6132,-2.5914,-2.5787,-2.599,-2.6115,-2.6603,-2.7666,-2.7574,-2.8419,-2.916,-2.9085,-2.8686,-2.7899,-2.7348,-2.7996,-2.8692,-2.8919,-2.8693,-2.8105,-2.7659,-2.6866,-2.5716,-2.5092,-2.4829,-2.4742,-2.4539,-2.4152,-2.3569,-2.3057,-2.2824,-2.2766,-2.2737,-2.2661,-2.2523,-2.237,-2.2324,-2.237,-2.2041,-2.1457,-2.1175,-2.1048,-2.0653,-2.0091,-1.9782,-1.995,-3.1856,-3.1817,-3.2242,-3.2372,-3.229,-3.269,-3.2599,-3.2094,-3.1947,-3.1596,-3.1106,-3.1015,-3.0935,-3.0797,-3.0814,-3.0773,-3.0692,-3.0568,-3.0212,-2.9716,-2.9271,-2.8829,-2.8233,-2.7241,-2.6724,-2.6626,-2.5956,-2.5502,-2.5294,-2.5005,-2.4751,-2.4614,-2.4467,-2.3906,-2.3102,-2.2932,-2.2555,-2.1881,-2.2011,-2.201,-2.1948,-2.2073,-2.1799,-2.1171,-2.1078,-2.1091,-2.1076,-2.1038,-2.1135,-2.1335,-2.135,-2.156,-2.2054,-2.2607,-2.3101,-2.352,-2.34,-2.3203,-2.3247,-2.406,-2.4465,-2.407,-2.5207,-2.599,-2.6168,-2.6203,-2.6203,-2.6203,-2.6203,-2.6132,-2.5987,-2.584,-2.5824,-2.5934,-2.5934,-2.6258,-2.6945,-2.7153,-2.7446,-2.8248,-2.8223,-2.8142,-2.8271,-2.8239,-2.8514,-2.9275,-2.9219,-2.8933,-2.8846,-2.8186,-2.7022,-2.6072,-2.5267,-2.4716,-2.4687,-2.4558,-2.4211,-2.3576,-2.3037,-2.2948,-2.2904,-2.2704,-2.2569,-2.2463,-2.2278,-2.2231,-2.2249,-2.1981,-2.1412,-2.092,-2.0821,-2.0751,-2.0161,-2.0049,-2.0119,-3.2187,-3.2368,-3.2882,-3.3026,-3.2974,-3.341,-3.326,-3.2686,-3.2391,-3.1881,-3.1362,-3.1053,-3.0814,-3.0708,-3.0626,-3.0609,-3.0609,-3.0443,-3.007,-2.9559,-2.9358,-2.903,-2.8509,-2.7729,-2.7324,-2.7147,-2.6438,-2.5831,-2.5425,-2.5111,-2.4823,-2.4523,-2.4343,-2.3979,-2.3409,-2.3247,-2.2869,-2.2255,-2.2224,-2.2267,-2.2133,-2.228,-2.236,-2.2306,-2.2337,-2.2124,-2.1828,-2.1854,-2.1934,-2.1994,-2.2009,-2.2293,-2.2921,-2.3355,-2.3595,-2.3595,-2.3595,-2.3595,-2.3681,-2.4297,-2.4558,-2.4241,-2.5176,-2.5954,-2.6151,-2.6203,-2.6203,-2.6184,-2.6076,-2.5914,-2.584,-2.5787,-2.5824,-2.5807,-2.5717,-2.5989,-2.6633,-2.6805,-2.7008,-2.7462,-2.7948,-2.8142,-2.819,-2.832,-2.8608,-2.9231,-2.8939,-2.8862,-2.8602,-2.7951,-2.6807,-2.5956,-2.5116,-2.4558,-2.4488,-2.4468,-2.4525,-2.3946,-2.3498,-2.3293,-2.2894,-2.2694,-2.2477,-2.237,-2.2263,-2.2217,-2.2044,-2.1791,-2.1355,-2.0807,-2.0779,-2.0864,-2.054,-2.0358,-2.0513,-3.3134,-3.3567,-3.3721,-3.3673,-3.3607,-3.3634,-3.3482,-3.3119,-3.2479,-3.2152,-3.1909,-3.1174,-3.0825,-3.0717,-3.0534,-3.0417,-3.0359,-3.0375,-3.0215,-2.9962,-2.9935,-2.9876,-2.9675,-2.8903,-2.8313,-2.8062,-2.7343,-2.6513,-2.5779,-2.5586,-2.5133,-2.4482,-2.4317,-2.401,-2.3332,-2.3283,-2.2867,-2.2452,-2.2667,-2.2802,-2.2877,-2.3203,-2.343,-2.3477,-2.3475,-2.2936,-2.1859,-2.2158,-2.2458,-2.2637,-2.2724,-2.2981,-2.343,-2.358,-2.3595,-2.3595,-2.3595,-2.3595,-2.3638,-2.4063,-2.4719,-2.5082,-2.5368,-2.5663,-2.6079,-2.6168,-2.6168,-2.6096,-2.5877,-2.567,-2.5766,-2.5675,-2.5637,-2.5663,-2.5659,-2.5924,-2.6555,-2.6911,-2.7008,-2.7203,-2.7883,-2.8174,-2.751,-2.7574,-2.8035,-2.8259,-2.8149,-2.789,-2.7442,-2.7025,-2.599,-2.5029,-2.4751,-2.4747,-2.4547,-2.4455,-2.4562,-2.4526,-2.4177,-2.3844,-2.3093,-2.271,-2.2381,-2.2217,-2.2217,-2.217,-2.217,-2.1945,-2.1819,-2.1412,-2.1313,-2.1187,-2.1074,-2.0962,-2.0836,-3.3792,-3.37,-3.4193,-3.4253,-3.4107,-3.4141,-3.4028,-3.3829,-3.3108,-3.2746,-3.2484,-3.1791,-3.1373,-3.1113,-3.0665,-3.029,-3.0162,-3.0103,-3.0076,-2.9989,-2.9946,-2.9902,-2.9729,-2.8957,-2.8142,-2.747,-2.7005,-2.667,-2.6333,-2.5768,-2.5238,-2.4964,-2.4548,-2.4184,-2.3943,-2.3886,-2.3651,-2.3349,-2.3417,-2.3438,-2.3353,-2.349,-2.3595,-2.3595,-2.3595,-2.337,-2.3026,-2.3131,-2.3221,-2.3295,-2.331,-2.34,-2.355,-2.3595,-2.3595,-2.3595,-2.3595,-2.3595,-2.3681,-2.4297,-2.5036,-2.5717,-2.5828,-2.5864,-2.6023,-2.6132,-2.6096,-2.595,-2.5728,-2.5616,-2.5654,-2.5616,-2.5616,-2.5637,-2.5616,-2.6005,-2.6847,-2.7672,-2.7737,-2.7219,-2.7624,-2.7786,-2.7639,-2.7805,-2.8056,-2.8293,-2.8014,-2.7537,-2.7601,-2.6996,-2.6572,-2.5782,-2.5572,-2.5112,-2.5089,-2.4972,-2.4977,-2.4963,-2.4685,-2.421,-2.3477,-2.3011,-2.2639,-2.2339,-2.2311,-2.2212,-2.2212,-2.2114,-2.1988,-2.2002,-2.1875,-2.1777,-2.1707,-2.1661,-2.1611,-3.4432,-3.4389,-3.4803,-3.4901,-3.4751,-3.4723,-3.465,-3.4397,-3.3729,-3.3306,-3.3023,-3.2392,-3.199,-3.1649,-3.1013,-3.0571,-3.044,-3.038,-3.0145,-2.9874,-2.9918,-2.9858,-2.9677,-2.892,-2.8252,-2.7711,-2.7439,-2.7178,-2.6915,-2.6363,-2.592,-2.5613,-2.5229,-2.482,-2.4521,-2.4447,-2.4228,-2.39,-2.3724,-2.3696,-2.3595,-2.3595,-2.3595,-2.3595,-2.3595,-2.3595,-2.3595,-2.3595,-2.3595,-2.3595,-2.3595,-2.3595,-2.3595,-2.3595,-2.3595,-2.3595,-2.361,-2.3668,-2.3867,-2.4436,-2.5153,-2.586,-2.6007,-2.6007,-2.5987,-2.5987,-2.584,-2.553,-2.5546,-2.5653,-2.5763,-2.5653,-2.561,-2.5616,-2.5972,-2.6442,-2.7251,-2.8158,-2.8271,-2.7696,-2.7862,-2.8201,-2.8501,-2.8167,-2.8202,-2.8323,-2.7898,-2.7414,-2.763,-2.7188,-2.675,-2.6351,-2.6012,-2.5706,-2.5643,-2.5562,-2.5427,-2.53,-2.5117,-2.4596,-2.3949,-2.3766,-2.3512,-2.3126,-2.2999,-2.255,-2.2465,-2.2255,-2.21,-2.2212,-2.2362,-2.2451,-2.2432,-2.2553,-2.2523,-3.5101,-3.556,-3.5503,-3.5424,-3.5362,-3.5186,-3.5015,-3.4938,-3.4255,-3.3819,-3.3518,-3.2895,-3.2475,-3.2236,-3.1573,-3.1173,-3.1095,-3.083,-3.0387,-2.9878,-2.9746,-2.9665,-2.9348,-2.8872,-2.8607,-2.8466,-2.8323,-2.798,-2.7457,-2.7195,-2.7011,-2.6275,-2.6061,-2.5787,-2.5121,-2.4896,-2.4475,-2.3964,-2.3713,-2.3595,-2.3595,-2.3595,-2.3595,-2.3595,-2.3595,-2.3595,-2.3595,-2.3595,-2.3595,-2.3595,-2.3595,-2.3595,-2.3595,-2.3595,-2.3595,-2.358,-2.3538,-2.3739,-2.4105,-2.4436,-2.4879,-2.5508,-2.5824,-2.5934,-2.5807,-2.56,-2.5432,-2.5169,-2.5445,-2.5773,-2.5983,-2.6029,-2.5918,-2.5972,-2.6847,-2.7462,-2.7737,-2.8433,-2.8537,-2.8152,-2.8535,-2.9134,-2.9262,-2.8513,-2.813,-2.77,-2.7479,-2.7225,-2.7063,-2.6817,-2.6621,-2.6336,-2.6051,-2.5926,-2.5788,-2.5776,-2.5626,-2.5542,-2.5374,-2.4924,-2.4348,-2.4216,-2.423,-2.387,-2.363,-2.3161,-2.2768,-2.2636,-2.249,-2.2491,-2.2721,-2.3021,-2.2989,-2.2888,-2.2777,-3.5425,-3.552,-3.5492,-3.54,-3.5115,-3.4585,-3.4605,-3.4814,-3.4074,-3.4027,-3.4131,-3.3526,-3.3074,-3.2898,-3.2232,-3.1876,-3.1623,-3.1033,-3.0619,-3.0238,-2.9573,-2.9183,-2.8967,-2.8779,-2.8605,-2.8477,-2.8396,-2.8255,-2.7959,-2.75,-2.7131,-2.6777,-2.6351,-2.5971,-2.5561,-2.5093,-2.4687,-2.4342,-2.3819,-2.3595,-2.3595,-2.3595,-2.3595,-2.3595,-2.3595,-2.3595,-2.3595,-2.3595,-2.3595,-2.3595,-2.3595,-2.3595,-2.3595,-2.3595,-2.3522,-2.3419,-2.345,-2.3508,-2.3691,-2.4225,-2.4639,-2.4735,-2.5442,-2.5626,-2.5323,-2.5107,-2.5107,-2.5297,-2.5759,-2.6118,-2.6469,-2.6927,-2.73,-2.7948,-2.844,-2.8672,-2.8472,-2.9,-2.9339,-2.8722,-2.8869,-2.8607,-2.8027,-2.781,-2.7539,-2.7085,-2.6928,-2.6899,-2.6871,-2.6568,-2.6408,-2.6247,-2.5974,-2.5918,-2.5889,-2.5892,-2.5837,-2.5795,-2.5584,-2.5261,-2.4685,-2.4287,-2.4348,-2.4362,-2.4332,-2.4003,-2.3585,-2.3345,-2.3082,-2.2606,-2.2661,-2.2773,-2.2671,-2.2572,-2.2463,-3.5458,-3.54,-3.5337,-3.5245,-3.5055,-3.4575,-3.4549,-3.4671,-3.4327,-3.4231,-3.4382,-3.4039,-3.3713,-3.3486,-3.2869,-3.2449,-3.2176,-3.1678,-3.1039,-3.0085,-2.9218,-2.8779,-2.87,-2.8605,-2.8477,-2.8348,-2.8299,-2.825,-2.8091,-2.7692,-2.7491,-2.7334,-2.6937,-2.6572,-2.6083,-2.5483,-2.4927,-2.4567,-2.3969,-2.3595,-2.3595,-2.3595,-2.3595,-2.3595,-2.3595,-2.3595,-2.3595,-2.3595,-2.3595,-2.3595,-2.3595,-2.3595,-2.3595,-2.3523,-2.3405,-2.3316,-2.3348,-2.3378,-2.3641,-2.404,-2.4581,-2.519,-2.5624,-2.5775,-2.6014,-2.5721,-2.5556,-2.5847,-2.6045,-2.6414,-2.7064,-2.7946,-2.8725,-2.907,-2.9275,-2.9096,-2.8686,-2.9163,-2.9271,-2.8935,-2.8496,-2.8061,-2.6937,-2.7269,-2.7418,-2.7407,-2.7407,-2.7227,-2.7075,-2.668,-2.6432,-2.6481,-2.6427,-2.6427,-2.6385,-2.6386,-2.6356,-2.6272,-2.5729,-2.5412,-2.5061,-2.457,-2.4815,-2.5003,-2.4984,-2.4721,-2.4123,-2.3484,-2.275,-2.2419,-2.2465,-2.2577,-2.2596,-2.2439,-2.2309,-3.5337,-3.5291,-3.5152,-3.5105,-3.5041,-3.493,-3.4738,-3.4691,-3.4593,-3.4448,-3.4317,-3.4284,-3.4153,-3.4068,-3.3371,-3.2965,-3.2734,-3.236,-3.1205,-3.006,-2.9069,-2.8632,-2.8558,-2.8477,-2.8332,-2.8235,-2.8186,-2.8088,-2.7974,-2.7959,-2.7875,-2.7685,-2.7685,-2.7319,-2.6531,-2.5869,-2.527,-2.4612,-2.3954,-2.361,-2.3595,-2.361,-2.367,-2.3834,-2.3834,-2.3819,-2.3759,-2.3684,-2.3625,-2.3729,-2.3641,-2.3642,-2.3657,-2.3555,-2.3599,-2.3658,-2.3629,-2.3672,-2.3881,-2.3909,-2.46,-2.5911,-2.5629,-2.5854,-2.6646,-2.6293,-2.5968,-2.6158,-2.6244,-2.6686,-2.7525,-2.8838,-2.9351,-2.9313,-2.8764,-2.8606,-2.8873,-2.9092,-2.9061,-2.8856,-2.8156,-2.7571,-2.715,-2.7403,-2.8001,-2.8454,-2.8153,-2.7539,-2.7441,-2.7315,-2.7216,-2.7271,-2.7186,-2.7074,-2.703,-2.693,-2.6903,-2.6836,-2.6031,-2.5625,-2.5392,-2.519,-2.5411,-2.5467,-2.4797,-2.4396,-2.4104,-2.3402,-2.2633,-2.2433,-2.2553,-2.277,-2.2917,-2.2493,-2.2285,-3.5165,-3.5152,-3.5105,-3.5041,-3.4947,-3.4787,-3.4739,-3.4691,-3.4497,-3.4349,-3.43,-3.4201,-3.4101,-3.4101,-3.3705,-3.3521,-3.3208,-3.2388,-3.1036,-2.9635,-2.9369,-2.8793,-2.8488,-2.8348,-2.8299,-2.8186,-2.8186,-2.8088,-2.789,-2.784,-2.779,-2.769,-2.7645,-2.731,-2.6632,-2.6033,-2.53,-2.4582,-2.3984,-2.3684,-2.3655,-2.3684,-2.3909,-2.4328,-2.4418,-2.4403,-2.4268,-2.3879,-2.3835,-2.4,-2.3911,-2.391,-2.4356,-2.4667,-2.4819,-2.4851,-2.4648,-2.4148,-2.361,-2.4325,-2.5103,-2.5405,-2.5849,-2.5954,-2.5864,-2.597,-2.5894,-2.6123,-2.6396,-2.6942,-2.7859,-2.8607,-2.8889,-2.8732,-2.8286,-2.8106,-2.8581,-2.9005,-2.9143,-2.9182,-2.8974,-2.8432,-2.7147,-2.7801,-2.8497,-2.9272,-2.8897,-2.7953,-2.7867,-2.7979,-2.7961,-2.8015,-2.7555,-2.7429,-2.7294,-2.7157,-2.6965,-2.6813,-2.6144,-2.5458,-2.5308,-2.5172,-2.5239,-2.4838,-2.4253,-2.3953,-2.3809,-2.3431,-2.2652,-2.2698,-2.2643,-2.2596,-2.2478,-2.2298,-2.2368,-3.5024,-3.4994,-3.4947,-3.4899,-3.4787,-3.4659,-3.4546,-3.4513,-3.4349,-3.425,-3.4151,-3.4,-3.3915,-3.3899,-3.3658,-3.345,-3.3082,-3.2117,-3.0778,-2.9592,-2.9265,-2.8863,-2.8259,-2.8152,-2.8137,-2.8039,-2.7989,-2.789,-2.7725,-2.7725,-2.7675,-2.7625,-2.756,-2.7475,-2.7021,-2.6393,-2.5959,-2.5465,-2.4567,-2.4088,-2.4073,-2.4088,-2.4403,-2.4941,-2.5045,-2.5045,-2.4924,-2.4671,-2.4594,-2.4619,-2.4479,-2.4555,-2.5129,-2.5607,-2.5968,-2.5982,-2.532,-2.4751,-2.4336,-2.4621,-2.5297,-2.5676,-2.5952,-2.6354,-2.6426,-2.6434,-2.64,-2.6751,-2.6876,-2.7051,-2.7819,-2.8317,-2.8381,-2.8238,-2.7745,-2.7794,-2.8629,-2.8951,-2.8996,-2.9025,-2.8869,-2.8586,-2.8293,-2.8484,-2.8841,-2.9551,-2.9679,-2.889,-2.8689,-2.8771,-2.8679,-2.8559,-2.7991,-2.7638,-2.7585,-2.7309,-2.6929,-2.6556,-2.6013,-2.5331,-2.4851,-2.4758,-2.4702,-2.4339,-2.4051,-2.3607,-2.3433,-2.303,-2.2739,-2.2506,-2.236,-2.2211,-2.2219,-2.2348,-2.2452,-3.4899,-3.4851,-3.4739,-3.4707,-3.4643,-3.4546,-3.4301,-3.4121,-3.4137,-3.3891,-3.3822,-3.3636,-3.3518,-3.3575,-3.3361,-3.3096,-3.2656,-3.2021,-3.083,-2.9628,-2.9455,-2.885,-2.8202,-2.794,-2.789,-2.779,-2.784,-2.7725,-2.7625,-2.756,-2.7625,-2.756,-2.756,-2.741,-2.731,-2.6901,-2.6363,-2.6004,-2.5241,-2.4597,-2.4627,-2.4642,-2.5075,-2.5583,-2.5717,-2.5622,-2.5515,-2.5334,-2.5301,-2.532,-2.5248,-2.5438,-2.5838,-2.6359,-2.6778,-2.6715,-2.5843,-2.538,-2.5249,-2.5329,-2.5705,-2.6721,-2.6337,-2.6577,-2.734,-2.7179,-2.7011,-2.707,-2.7144,-2.6938,-2.7393,-2.7695,-2.8054,-2.8,-2.7358,-2.7724,-2.8838,-2.8916,-2.8807,-2.9041,-2.9261,-2.9132,-2.9058,-2.9154,-2.9522,-2.9728,-2.9813,-2.9827,-2.9582,-2.9346,-2.9105,-2.8844,-2.8222,-2.7421,-2.7218,-2.7167,-2.6789,-2.6235,-2.574,-2.5375,-2.4795,-2.4856,-2.4806,-2.4342,-2.4016,-2.358,-2.3232,-2.2898,-2.2613,-2.2306,-2.2253,-2.2293,-2.2424,-2.2503,-2.2628,-3.4851,-3.4739,-3.4691,-3.4643,-3.4497,-3.4399,-3.3974,-3.3453,-3.3421,-3.3144,-3.288,-3.2814,-3.2994,-3.3187,-3.3096,-3.2757,-3.24,-3.1949,-3.1213,-3.0075,-2.9794,-2.9137,-2.8112,-2.7871,-2.774,-2.7675,-2.7725,-2.7725,-2.7625,-2.756,-2.756,-2.756,-2.756,-2.738,-2.6991,-2.6617,-2.6452,-2.6183,-2.5659,-2.5255,-2.5016,-2.5209,-2.5685,-2.6217,-2.6243,-2.6194,-2.5977,-2.5575,-2.5438,-2.5745,-2.5442,-2.5791,-2.6345,-2.6725,-2.6769,-2.6739,-2.6504,-2.6226,-2.626,-2.637,-2.6504,-2.6721,-2.662,-2.6576,-2.6982,-2.6974,-2.6937,-2.698,-2.6995,-2.6905,-2.6937,-2.7115,-2.7357,-2.7428,-2.7632,-2.7665,-2.8869,-2.9175,-2.9204,-2.9606,-2.9763,-2.976,-2.9625,-2.9519,-2.9582,-2.969,-2.967,-2.9713,-2.9628,-2.9324,-2.9073,-2.8743,-2.841,-2.7525,-2.6752,-2.6726,-2.6506,-2.5852,-2.5453,-2.544,-2.5115,-2.5172,-2.4969,-2.4646,-2.4144,-2.3689,-2.324,-2.2831,-2.2707,-2.2643,-2.2574,-2.2515,-2.2704,-2.2827,-2.2968,-3.4739,-3.4691,-3.4546,-3.4448,-3.4399,-3.425,-3.4022,-3.3599,-3.3128,-3.2819,-3.2588,-3.2352,-3.2289,-3.251,-3.2648,-3.2353,-3.1934,-3.2013,-3.1247,-3.0236,-2.9879,-2.935,-2.8216,-2.79,-2.7705,-2.7625,-2.7675,-2.769,-2.7625,-2.756,-2.756,-2.756,-2.756,-2.7395,-2.7186,-2.7126,-2.6916,-2.6572,-2.6273,-2.5974,-2.5659,-2.5956,-2.6258,-2.6683,-2.6811,-2.6775,-2.6579,-2.6352,-2.6213,-2.6316,-2.6192,-2.6344,-2.6605,-2.6803,-2.6788,-2.6779,-2.6794,-2.6794,-2.6794,-2.6794,-2.6765,-2.6779,-2.6794,-2.6794,-2.6794,-2.6832,-2.6808,-2.6953,-2.7534,-2.7476,-2.6934,-2.6823,-2.7099,-2.7694,-2.8187,-2.8856,-2.9217,-2.9297,-2.9608,-3.0011,-2.9864,-2.9761,-2.9771,-2.9676,-2.9623,-2.9602,-2.9602,-2.9602,-2.9602,-2.9198,-2.8803,-2.8195,-2.7723,-2.6989,-2.6264,-2.6208,-2.622,-2.5664,-2.5312,-2.5312,-2.5312,-2.5276,-2.5204,-2.496,-2.4434,-2.3953,-2.3496,-2.318,-2.3102,-2.297,-2.2952,-2.2889,-2.3021,-2.3197,-2.3292,-3.4643,-3.4594,-3.4399,-3.43,-3.425,-3.4101,-3.3903,-3.3643,-3.2928,-3.2554,-3.2437,-3.2044,-3.1846,-3.1989,-3.2153,-3.2011,-3.1387,-3.1814,-3.1172,-3.0332,-3.0036,-2.9522,-2.8839,-2.8308,-2.806,-2.7955,-2.7925,-2.7694,-2.7575,-2.756,-2.756,-2.7575,-2.7575,-2.7575,-2.7479,-2.7369,-2.7524,-2.7375,-2.7076,-2.6747,-2.6683,-2.651,-2.6633,-2.7122,-2.7167,-2.7063,-2.6916,-2.682,-2.6739,-2.6745,-2.6707,-2.6765,-2.6779,-2.6779,-2.6779,-2.6794,-2.6794,-2.6794,-2.6794,-2.6794,-2.6794,-2.6794,-2.6794,-2.6852,-2.6939,-2.6982,-2.6953,-2.736,-2.7911,-2.8274,-2.7476,-2.6953,-2.7287,-2.8216,-2.9464,-3.0363,-2.9746,-2.9562,-2.9577,-2.9775,-2.9775,-2.9699,-2.9637,-2.9713,-2.9602,-2.9602,-2.9602,-2.9602,-2.9477,-2.8867,-2.8325,-2.7471,-2.6799,-2.6264,-2.5804,-2.5581,-2.5594,-2.5453,-2.5312,-2.5312,-2.5312,-2.5312,-2.524,-2.518,-2.4893,-2.4357,-2.3966,-2.3582,-2.3447,-2.3367,-2.33,-2.3384,-2.3537,-2.3618,-2.3723,-3.4546,-3.4349,-3.43,-3.425,-3.4101,-3.3848,-3.3393,-3.2846,-3.2482,-3.2132,-3.1977,-3.1836,-3.1973,-3.2206,-3.2195,-3.2074,-3.1962,-3.1747,-3.1392,-3.0714,-3.0438,-3.0053,-2.9535,-2.9415,-2.8846,-2.8502,-2.8427,-2.8098,-2.7769,-2.7634,-2.7575,-2.7575,-2.7488,-2.7386,-2.7437,-2.7386,-2.7218,-2.7269,-2.7181,-2.7121,-2.6982,-2.6583,-2.6644,-2.6865,-2.6989,-2.6937,-2.6884,-2.6846,-2.6846,-2.6794,-2.6794,-2.6794,-2.6794,-2.6794,-2.6794,-2.6794,-2.6794,-2.6794,-2.6794,-2.6794,-2.6794,-2.6794,-2.6794,-2.7084,-2.752,-2.7374,-2.7534,-2.8942,-2.8942,-2.8623,-2.8187,-2.7505,-2.781,-2.8624,-2.9739,-3.0182,-2.9879,-2.9582,-2.9637,-2.9401,-2.9373,-2.9387,-2.9401,-2.9526,-2.9602,-2.9602,-2.9602,-2.954,-2.9135,-2.826,-2.7591,-2.6731,-2.6264,-2.5734,-2.5594,-2.5312,-2.5348,-2.5336,-2.5432,-2.5408,-2.536,-2.5384,-2.536,-2.5276,-2.4979,-2.4765,-2.4362,-2.4046,-2.3839,-2.37,-2.363,-2.3768,-2.4054,-2.4051,-2.4054,-3.4399,-3.43,-3.4201,-3.405,-3.3848,-3.3761,-3.3431,-3.2907,-3.2253,-3.1925,-3.1768,-3.1647,-3.1821,-3.2139,-3.2094,-3.194,-3.1841,-3.1727,-3.1519,-3.1129,-3.0717,-3.0372,-3.0058,-2.9744,-2.934,-2.9131,-2.8719,-2.8368,-2.7995,-2.7637,-2.7473,-2.7372,-2.7335,-2.7284,-2.7284,-2.7233,-2.7233,-2.7218,-2.7167,-2.7144,-2.7019,-2.6806,-2.6711,-2.6884,-2.6884,-2.6832,-2.6846,-2.6794,-2.6794,-2.6794,-2.6794,-2.6794,-2.6794,-2.6794,-2.6794,-2.6794,-2.6794,-2.6794,-2.6794,-2.6794,-2.6837,-2.6823,-2.6968,-2.7534,-2.8565,-2.8507,-2.8173,-2.9174,-2.961,-2.9435,-2.9073,-2.8898,-2.9,-2.9464,-2.9834,-2.9943,-2.9884,-2.9713,-2.9526,-2.9261,-2.8931,-2.8867,-2.8867,-2.9135,-2.9135,-2.8931,-2.8817,-2.8716,-2.8026,-2.6989,-2.6389,-2.5931,-2.5664,-2.5382,-2.5382,-2.5312,-2.5396,-2.5468,-2.5805,-2.5733,-2.5516,-2.5468,-2.5576,-2.5409,-2.5146,-2.4862,-2.459,-2.439,-2.4143,-2.4035,-2.3939,-2.4062,-2.4235,-2.4189,-2.4166,-3.4201,-3.4151,-3.4066,-3.3915,-3.3694,-3.3539,-3.3398,-3.3124,-3.232,-3.1927,-3.1858,-3.1674,-3.1803,-3.1987,-3.1898,-3.1799,-3.1727,-3.1539,-3.1524,-3.133,-3.1019,-3.0765,-3.06,-3.0257,-2.9884,-2.9471,-2.8916,-2.8358,-2.7861,-2.758,-2.7233,-2.7167,-2.7196,-2.7144,-2.7144,-2.7093,-2.7078,-2.7078,-2.7078,-2.7041,-2.6922,-2.6937,-2.6855,-2.6846,-2.6794,-2.6794,-2.6794,-2.6794,-2.6794,-2.6794,-2.6794,-2.6794,-2.6794,-2.6794,-2.6794,-2.6794,-2.6794,-2.6794,-2.6866,-2.6953,-2.707,-2.7258,-2.7578,-2.8507,-2.9871,-2.961,-2.9232,-2.9726,-3.0089,-2.9914,-2.9624,-3.0031,-2.9942,-2.9705,-2.9647,-2.9695,-2.9637,-2.9184,-2.8931,-2.8739,-2.8403,-2.7934,-2.8078,-2.8546,-2.8597,-2.8325,-2.8143,-2.7895,-2.7143,-2.6173,-2.5987,-2.5695,-2.555,-2.5492,-2.5685,-2.5636,-2.5612,-2.5745,-2.6081,-2.619,-2.6045,-2.5925,-2.6008,-2.5732,-2.5409,-2.5311,-2.5283,-2.4818,-2.4418,-2.4253,-2.4062,-2.4223,-2.4338,-2.4338,-2.4388,-3.3949,-3.3745,-3.3761,-3.3694,-3.3658,-3.315,-3.2951,-3.2897,-3.2501,-3.2259,-3.2078,-3.1987,-3.1875,-3.1796,-3.1694,-3.1564,-3.1509,-3.1524,-3.1377,-3.1377,-3.1407,-3.123,-3.1068,-3.0889,-3.0446,-2.9444,-2.899,-2.8263,-2.7466,-2.7392,-2.7195,-2.7181,-2.7085,-2.7055,-2.6989,-2.6937,-2.6884,-2.6884,-2.6884,-2.6884,-2.6832,-2.6846,-2.6846,-2.6794,-2.6794,-2.6794,-2.6794,-2.6794,-2.6794,-2.6794,-2.6794,-2.6794,-2.6794,-2.6794,-2.6794,-2.6794,-2.6794,-2.6794,-2.6852,-2.7287,-2.7897,-2.8463,-2.8971,-2.9406,-3.0379,-3.0553,-3.0437,-3.0321,-3.048,-3.048,-3.0364,-3.051,-3.0332,-3.0001,-2.9667,-2.9428,-2.9121,-2.8325,-2.8078,-2.8091,-2.7815,-2.7271,-2.7101,-2.7533,-2.7815,-2.759,-2.7527,-2.7276,-2.6909,-2.613,-2.6117,-2.5937,-2.5624,-2.5745,-2.619,-2.6238,-2.6226,-2.6442,-2.6779,-2.6803,-2.6719,-2.6632,-2.6776,-2.6391,-2.617,-2.603,-2.5762,-2.5303,-2.4796,-2.4399,-2.4303,-2.4636,-2.4809,-2.4866,-2.483,-3.3797,-3.3642,-3.3346,-3.3203,-3.3203,-3.3005,-3.2773,-3.2594,-3.2358,-3.2191,-3.2094,-3.194,-3.1856,-3.1694,-3.1159,-3.0968,-3.0911,-3.0896,-3.0941,-3.1019,-3.1111,-3.1306,-3.1292,-3.1115,-3.0644,-2.9731,-2.9234,-2.8869,-2.8316,-2.7696,-2.7496,-2.7394,-2.7088,-2.6928,-2.6846,-2.6846,-2.6794,-2.6794,-2.6794,-2.6794,-2.6794,-2.6794,-2.6794,-2.6794,-2.6794,-2.6794,-2.6794,-2.6794,-2.6794,-2.6794,-2.6794,-2.6794,-2.6794,-2.6794,-2.6794,-2.6794,-2.6794,-2.6794,-2.6939,-2.7403,-2.7998,-2.8637,-2.9247,-2.99,-3.051,-3.0628,-3.0642,-3.0628,-3.0582,-3.0582,-3.0433,-3.0493,-3.0433,-3.0068,-2.9574,-2.9135,-2.861,-2.7749,-2.7351,-2.743,-2.7015,-2.6539,-2.6489,-2.6433,-2.6678,-2.6828,-2.6797,-2.6742,-2.6542,-2.6406,-2.6418,-2.6358,-2.6129,-2.6081,-2.6514,-2.6683,-2.6815,-2.714,-2.7452,-2.728,-2.7244,-2.7765,-2.7783,-2.7387,-2.6819,-2.6546,-2.6124,-2.5639,-2.524,-2.4958,-2.5015,-2.5245,-2.5348,-2.5406,-2.5373,-3.3607,-3.3398,-3.3043,-3.2912,-3.2912,-3.2788,-3.2594,-3.2358,-3.2247,-3.2094,-3.194,-3.1784,-3.1727,-3.1504,-3.1162,-3.0866,-3.0941,-3.0854,-3.081,-3.0932,-3.1084,-3.1219,-3.1117,-3.0911,-3.0455,-2.9809,-2.9373,-2.898,-2.7988,-2.8024,-2.7763,-2.7374,-2.7215,-2.7055,-2.6794,-2.6794,-2.6794,-2.6794,-2.6794,-2.6794,-2.6794,-2.6794,-2.6794,-2.6794,-2.6794,-2.6794,-2.6794,-2.6794,-2.6794,-2.6794,-2.6794,-2.6794,-2.6794,-2.6794,-2.6794,-2.6794,-2.6794,-2.6794,-2.7012,-2.7984,-2.8695,-2.9406,-2.9682,-3.0176,-3.0437,-3.0642,-3.0642,-3.0642,-3.0582,-3.0462,-3.0205,-3.0266,-3.0054,-2.9546,-2.8038,-2.7458,-2.767,-2.7217,-2.696,-2.6769,-2.6377,-2.6251,-2.6318,-2.6408,-2.6761,-2.6803,-2.6525,-2.6737,-2.7063,-2.6959,-2.6983,-2.6887,-2.6731,-2.6743,-2.6827,-2.7007,-2.7148,-2.755,-2.7765,-2.7669,-2.7765,-2.8251,-2.8167,-2.7439,-2.707,-2.6852,-2.6645,-2.6278,-2.5968,-2.567,-2.5773,-2.5865,-2.5888,-2.5922,-2.5865,-3.3398,-3.2966,-3.2897,-3.2912,-3.2843,-3.2523,-3.2358,-3.2247,-3.2206,-3.2053,-3.1784,-3.1597,-3.1524,-3.148,-3.1285,-3.1108,-3.1123,-3.1068,-3.1083,-3.1025,-3.0984,-3.0984,-3.0881,-3.069,-3.0251,-2.9217,-2.9115,-2.8708,-2.7355,-2.8245,-2.8013,-2.7534,-2.7534,-2.7302,-2.6837,-2.6808,-2.6808,-2.6794,-2.6794,-2.6794,-2.6895,-2.6866,-2.6794,-2.6939,-2.6823,-2.6794,-2.6794,-2.6794,-2.6794,-2.6794,-2.6794,-2.6794,-2.6794,-2.6794,-2.6794,-2.6794,-2.6852,-2.6881,-2.6982,-2.9174,-3.0074,-3.0205,-3.0292,-3.0451,-3.0553,-3.0597,-3.0536,-3.043,-3.0548,-3.0125,-2.9974,-2.9808,-2.9421,-2.8729,-2.7227,-2.659,-2.6904,-2.6817,-2.6602,-2.6648,-2.6382,-2.6202,-2.6371,-2.655,-2.7059,-2.6974,-2.6528,-2.6659,-2.7248,-2.7536,-2.7572,-2.7536,-2.7404,-2.7404,-2.7452,-2.7351,-2.7579,-2.7925,-2.8036,-2.7882,-2.787,-2.8176,-2.7938,-2.7371,-2.7151,-2.7047,-2.7116,-2.7139,-2.6703,-2.6301,-2.6358,-2.6439,-2.645,-2.645,-2.6404,-3.3043,-3.2897,-3.2648,-3.2523,-3.2428,-3.2302,-3.2247,-3.2135,-3.1981,-3.1826,-3.1655,-3.1539,-3.1467,-3.1362,-3.1049,-3.0884,-3.0755,-3.0696,-3.0639,-3.057,-3.0749,-3.0851,-3.0776,-3.06,-3.0162,-2.9581,-2.9508,-2.9464,-2.8797,-2.916,-2.9116,-2.8739,-2.7998,-2.736,-2.7084,-2.707,-2.7273,-2.6866,-2.6823,-2.6953,-2.7302,-2.7084,-2.7026,-2.7374,-2.7084,-2.6895,-2.6866,-2.6881,-2.6866,-2.6852,-2.6852,-2.6794,-2.6794,-2.6794,-2.6852,-2.6997,-2.72,-2.7752,-2.826,-2.9595,-3.0526,-3.0553,-3.0568,-3.0568,-3.0582,-3.0596,-3.0401,-3.0116,-3.0134,-2.9575,-2.8963,-2.8716,-2.8368,-2.8132,-2.7252,-2.6951,-2.6897,-2.66,-2.6396,-2.6663,-2.6647,-2.6899,-2.7103,-2.7103,-2.7428,-2.7681,-2.7308,-2.7188,-2.7621,-2.8017,-2.8198,-2.8198,-2.8138,-2.8114,-2.8089,-2.7867,-2.7789,-2.7977,-2.8075,-2.7879,-2.7995,-2.8042,-2.7788,-2.7301,-2.7219,-2.7231,-2.7231,-2.7208,-2.7105,-2.6932,-2.6864,-2.6852,-2.6852,-2.6909,-2.6955,-3.2609,-3.2703,-3.2413,-3.2302,-3.2191,-3.2191,-3.2135,-3.2038,-3.1769,-3.1597,-3.1524,-3.1524,-3.1467,-3.1332,-3.1049,-3.0753,-3.0639,-3.0539,-3.0497,-3.0382,-3.0602,-3.0732,-3.0702,-3.0598,-3.0161,-2.9842,-2.9813,-2.9769,-2.9116,-2.9697,-2.9711,-2.9319,-2.8797,-2.8231,-2.7795,-2.7665,-2.7679,-2.749,-2.765,-2.7723,-2.7868,-2.7795,-2.7694,-2.7853,-2.7723,-2.7403,-2.72,-2.7113,-2.7113,-2.707,-2.6953,-2.6823,-2.6794,-2.6823,-2.7229,-2.7911,-2.8231,-2.8608,-2.8884,-2.9421,-3.0,-2.9927,-3.029,-3.0358,-3.0276,-3.0344,-2.9932,-2.9603,-2.9412,-2.8824,-2.8119,-2.7812,-2.7978,-2.7754,-2.7322,-2.7016,-2.6895,-2.6576,-2.6755,-2.7019,-2.7236,-2.7536,-2.7813,-2.7813,-2.7873,-2.8053,-2.8186,-2.8077,-2.7945,-2.8246,-2.851,-2.8486,-2.8474,-2.8378,-2.8263,-2.8116,-2.806,-2.8087,-2.795,-2.7788,-2.7638,-2.7638,-2.7394,-2.7313,-2.7231,-2.7231,-2.7231,-2.7196,-2.7139,-2.7139,-2.7139,-2.7151,-2.7231,-2.7231,-2.7231,-3.1951,-3.229,-3.2201,-3.2114,-3.2145,-3.2104,-3.1996,-3.1784,-3.1612,-3.1467,-3.1467,-3.1467,-3.1467,-3.1482,-3.1306,-3.1203,-3.1057,-3.0852,-3.0778,-3.0674,-3.0673,-3.0642,-3.0642,-3.0613,-3.0277,-3.0103,-3.006,-2.9972,-2.9058,-2.9856,-3.0118,-2.9813,-2.9479,-2.9073,-2.8681,-2.8376,-2.826,-2.8274,-2.8303,-2.8419,-2.8579,-2.8536,-2.8507,-2.8565,-2.8463,-2.8129,-2.7911,-2.7766,-2.7752,-2.7592,-2.7287,-2.6997,-2.6837,-2.6837,-2.8419,-2.9508,-2.9595,-2.929,-2.9073,-2.9564,-2.9328,-2.9366,-2.9814,-2.9709,-2.961,-2.9722,-2.9412,-2.8538,-2.7987,-2.7751,-2.7436,-2.774,-2.8053,-2.7585,-2.7039,-2.6878,-2.6878,-2.6971,-2.7284,-2.7512,-2.7669,-2.7933,-2.8222,-2.8294,-2.815,-2.827,-2.8378,-2.8366,-2.827,-2.8306,-2.851,-2.851,-2.8498,-2.8498,-2.8339,-2.8179,-2.8018,-2.7857,-2.7696,-2.7534,-2.7383,-2.7313,-2.7231,-2.7231,-2.7231,-2.7231,-2.7231,-2.7231,-2.7219,-2.7231,-2.7231,-2.7231,-2.7231,-2.7231,-2.7231,-3.0812,-3.0869,-3.1274,-3.1363,-3.1273,-3.1558,-3.1655,-3.1597,-3.1539,-3.1467,-3.1467,-3.1467,-3.1424,-3.1351,-3.1336,-3.1176,-3.0999,-3.0821,-3.0747,-3.0702,-3.0642,-3.0642,-3.0642,-3.0568,-3.0422,-3.0408,-3.0393,-3.0364,-3.0147,-3.0568,-3.0539,-3.0306,-2.9885,-2.9755,-2.9653,-2.9377,-2.9058,-2.884,-2.8855,-2.9044,-2.9131,-2.9029,-2.9102,-2.9203,-2.9015,-2.8695,-2.8492,-2.8477,-2.8463,-2.8303,-2.8105,-2.7703,-2.6823,-2.7621,-2.9029,-3.0234,-3.0292,-3.0087,-2.9851,-2.9501,-2.9209,-2.8816,-2.8933,-2.8898,-2.8871,-2.8971,-2.8793,-2.7881,-2.7378,-2.736,-2.7526,-2.7824,-2.8071,-2.7777,-2.7344,-2.7236,-2.726,-2.7464,-2.7765,-2.7969,-2.8126,-2.8174,-2.8486,-2.8486,-2.8366,-2.8462,-2.851,-2.851,-2.851,-2.851,-2.851,-2.851,-2.851,-2.8498,-2.8271,-2.8111,-2.7857,-2.7615,-2.7452,-2.7371,-2.7301,-2.7231,-2.7231,-2.7231,-2.7231,-2.7231,-2.7231,-2.7231,-2.7231,-2.7231,-2.7231,-2.7231,-2.7231,-2.7231,-2.7231,-3.0011,-3.0234,-3.0495,-3.0667,-3.0779,-3.124,-3.1467,-3.1467,-3.1467,-3.1467,-3.1482,-3.1424,-3.1351,-3.1278,-3.1161,-3.0999,-3.0821,-3.0762,-3.0702,-3.0642,-3.0642,-3.0642,-3.0642,-3.0642,-3.0553,-3.0642,-3.0642,-3.0524,-3.0642,-3.0642,-3.0553,-3.051,-3.0103,-3.0203,-3.0232,-2.997,-2.9651,-2.9493,-2.9493,-2.9682,-2.9653,-2.9595,-2.9769,-2.9784,-2.9493,-2.9334,-2.9073,-2.9146,-2.9175,-2.8843,-2.8555,-2.8355,-2.7907,-2.8886,-2.9304,-3.0297,-3.0312,-2.9997,-2.9633,-2.9289,-2.8967,-2.8651,-2.8212,-2.8279,-2.8465,-2.8559,-2.8157,-2.7575,-2.7424,-2.7413,-2.773,-2.7977,-2.8041,-2.8065,-2.7885,-2.7705,-2.7825,-2.7981,-2.8198,-2.8402,-2.8474,-2.8462,-2.851,-2.851,-2.851,-2.851,-2.851,-2.851,-2.851,-2.851,-2.851,-2.851,-2.851,-2.8498,-2.8271,-2.8042,-2.7869,-2.7626,-2.7383,-2.7301,-2.7231,-2.7231,-2.7231,-2.7231,-2.7231,-2.7231,-2.7231,-2.7231,-2.7231,-2.7231,-2.7231,-2.7231,-2.7231,-2.7231,-2.7231,-2.9455,-2.9953,-2.9826,-3.0132,-3.0552,-3.124,-3.1467,-3.1467,-3.1482,-3.1482,-3.1467,-3.1336,-3.1278,-3.1161,-3.0999,-3.0821,-3.0762,-3.0687,-3.0642,-3.0642,-3.0642,-3.0642,-3.0642,-3.0642,-3.0642,-3.0642,-3.0642,-3.0642,-3.0642,-3.0642,-3.0642,-3.0642,-3.0524,-3.0539,-3.0389,-3.03,-3.0067,-2.9964,-3.0069,-3.023,-3.0348,-3.0495,-3.0568,-3.051,-3.0334,-3.0158,-2.9765,-2.9763,-2.9961,-2.9285,-2.8867,-2.8966,-2.932,-2.9736,-2.9922,-2.9903,-2.996,-2.9761,-2.9289,-2.8848,-2.8587,-2.8305,-2.8033,-2.7952,-2.8068,-2.7952,-2.7456,-2.7786,-2.7846,-2.7878,-2.8108,-2.8215,-2.8234,-2.8318,-2.8222,-2.8126,-2.8198,-2.8294,-2.8354,-2.851,-2.851,-2.851,-2.851,-2.851,-2.851,-2.851,-2.851,-2.851,-2.851,-2.851,-2.851,-2.851,-2.851,-2.8431,-2.8191,-2.8042,-2.7893,-2.7638,-2.7394,-2.7313,-2.7231,-2.7231,-2.7231,-2.7231,-2.7231,-2.7231,-2.7231,-2.7231,-2.7231,-2.7231,-2.7231,-2.7231,-2.7231,-2.7231,-2.7231,-2.8323,-2.8485,-2.9305,-2.9993,-3.0552,-3.124,-3.1452,-3.1482,-3.1409,-3.1321,-3.1292,-3.119,-3.1058,-3.0925,-3.0881,-3.0762,-3.0642,-3.0628,-3.0642,-3.0642,-3.0642,-3.0642,-3.0642,-3.0642,-3.0642,-3.0642,-3.0642,-3.0642,-3.0642,-3.0642,-3.0642,-3.0642,-3.0582,-3.0507,-3.0462,-3.0326,-3.0205,-3.0158,-3.0158,-3.0294,-3.0369,-3.0294,-3.0233,-3.0294,-3.0237,-3.0176,-2.9943,-2.994,-3.004,-2.9811,-2.9618,-2.9582,-2.9608,-2.9898,-2.9913,-2.9727,-2.9359,-2.9282,-2.8949,-2.8358,-2.793,-2.7695,-2.7525,-2.7653,-2.7519,-2.7195,-2.7322,-2.7946,-2.8263,-2.8359,-2.8476,-2.8506,-2.851,-2.851,-2.851,-2.851,-2.851,-2.851,-2.851,-2.851,-2.851,-2.851,-2.851,-2.851,-2.851,-2.851,-2.851,-2.851,-2.851,-2.851,-2.851,-2.851,-2.851,-2.8431,-2.8203,-2.8042,-2.7893,-2.765,-2.7313,-2.7231,-2.7231,-2.7231,-2.7231,-2.7231,-2.7231,-2.7231,-2.7231,-2.7231,-2.7231,-2.7231,-2.7231,-2.7231,-2.7231,-2.7231,-2.7231,-2.7875,-2.7946,-2.8801,-2.952,-3.0103,-3.0451,-3.0857,-3.1246,-3.088,-3.0851,-3.1043,-3.1014,-3.0895,-3.0762,-3.0762,-3.0702,-3.0642,-3.0642,-3.0642,-3.0642,-3.0642,-3.0642,-3.0642,-3.0642,-3.0642,-3.0642,-3.0642,-3.0642,-3.0642,-3.0642,-3.0642,-3.0582,-3.0507,-3.0462,-3.0401,-3.0205,-3.0068,-2.996,-2.9913,-2.9988,-3.0078,-3.0078,-3.0125,-3.0187,-3.0125,-3.005,-2.9974,-2.9913,-2.9865,-2.9851,-2.9704,-2.9628,-2.9651,-2.9727,-2.9401,-2.8931,-2.8648,-2.8634,-2.8304,-2.7874,-2.7347,-2.7242,-2.7468,-2.7802,-2.8341,-2.8052,-2.7975,-2.8435,-2.8464,-2.8524,-2.859,-2.8597,-2.8498,-2.851,-2.851,-2.851,-2.851,-2.851,-2.851,-2.851,-2.851,-2.851,-2.851,-2.851,-2.851,-2.851,-2.851,-2.851,-2.851,-2.851,-2.851,-2.851,-2.851,-2.851,-2.8363,-2.8122,-2.7893,-2.7557,-2.7313,-2.7231,-2.7231,-2.7231,-2.7231,-2.7231,-2.7231,-2.7231,-2.7231,-2.7231,-2.7231,-2.7231,-2.7231,-2.7231,-2.7231,-2.7242,-2.7277,-2.776,-2.7836,-2.8374,-2.8921,-2.9445,-2.9575,-3.0134,-3.0878,-3.028,-3.028,-3.0718,-3.0702,-3.0702,-3.0702,-3.0642,-3.0642,-3.0642,-3.0642,-3.0642,-3.0642,-3.0642,-3.0642,-3.0642,-3.0642,-3.0642,-3.0642,-3.0642,-3.0642,-3.0642,-3.0568,-3.0568,-3.0507,-3.0387,-3.028,-3.0097,-2.9898,-2.9837,-2.9789,-2.9741,-2.9693,-2.9831,-2.9955,-3.0017,-3.0017,-3.0017,-2.9913,-2.9775,-2.9651,-2.9602,-2.9602,-2.9665,-2.9602,-2.9279,-2.9169,-2.8783,-2.8332,-2.8358,-2.7986,-2.7475,-2.7404,-2.7249,-2.7357,-2.7709,-2.8175,-2.8699,-2.8778,-2.8635,-2.8529,-2.8548,-2.8554,-2.8621,-2.8621,-2.8578,-2.851,-2.851,-2.851,-2.851,-2.851,-2.851,-2.851,-2.851,-2.851,-2.851,-2.851,-2.851,-2.851,-2.851,-2.851,-2.851,-2.851,-2.851,-2.8431,-2.8431,-2.8431,-2.8363,-2.8122,-2.78,-2.7557,-2.7313,-2.7231,-2.7231,-2.7231,-2.7231,-2.7231,-2.7231,-2.7231,-2.7231,-2.7231,-2.7231,-2.7231,-2.7231,-2.7231,-2.7231,-2.7254,-2.7334,-2.7625,-2.767,-2.8308,-2.8629,-2.8762,-2.9629,-3.0211,-3.0234,-2.9966,-3.0165,-3.0478,-3.0129,-3.0068,-3.0642,-3.0642,-3.0642,-3.0642,-3.0642,-3.0642,-3.0642,-3.0642,-3.0642,-3.0642,-3.0642,-3.0642,-3.0642,-3.0582,-3.0568,-3.0568,-3.0568,-3.0507,-3.0326,-3.0326,-3.0205,-3.0111,-2.9913,-2.9761,-2.9727,-2.9749,-2.9729,-2.9701,-2.9749,-2.9783,-2.9783,-2.9783,-2.9679,-2.9665,-2.9602,-2.9602,-2.9602,-2.954,-2.954,-2.9008,-2.8383,-2.7908,-2.8453,-2.8383,-2.788,-2.7525,-2.7556,-2.7609,-2.7963,-2.8294,-2.8343,-2.8633,-2.8633,-2.85,-2.85,-2.8498,-2.8498,-2.8578,-2.8578,-2.851,-2.851,-2.851,-2.851,-2.851,-2.851,-2.851,-2.851,-2.851,-2.851,-2.851,-2.851,-2.851,-2.851,-2.851,-2.851,-2.851,-2.851,-2.851,-2.8431,-2.8351,-2.8203,-2.8042,-2.8042,-2.78,-2.7476,-2.7313,-2.7231,-2.7231,-2.7231,-2.7231,-2.7231,-2.7231,-2.7231,-2.7231,-2.7231,-2.7231,-2.7231,-2.7231,-2.7231,-2.7149,-2.7254,-2.7334]}]]